[[{"header":{"parameterUnit":"m.s-1","parameterCategory":1,"la1":31.0,"la2":29.5877,"lo1":-88.7671,"lo2":-86.6584,"dy":0.0162,"dx":0.0185,"nx":115,"ny":88,"refTime":"2026-03-06T00:00:00:Z","depth":0,"parameterNumber":2,"parameterNumberName":"U-component_of_WINDS"},"data":[0.0,0.0,0.0,0.0,0.0,0.0,0.0,0.0,0.0,0.0,0.0,0.0,0.0,0.0,0.0,0.0,0.0,0.0,0.0,0.0,0.0,0.0,0.0,0.0,0.0,0.0,0.0,0.0,0.0,0.0,0.0,0.0,0.0,0.0,0.0,0.0,0.0,0.0,0.0,0.0,0.0,0.0,0.0,0.0,0.0,0.0,0.0,0.0,0.0,0.0,0.0,0.0,0.0,0.0,0.0,0.0,0.0,0.0,0.0,0.0,0.0,0.0,0.0,0.0,0.0,0.0,0.0,0.0,0.0,0.0,0.0,0.0,0.0,0.0,0.0,0.0,0.0,0.0,0.0,0.0,0.0,0.0,0.0,0.0,0.0,0.0,0.0,0.0,0.0,0.0,0.0,0.0,0.0,0.0,0.0,0.0,0.0,0.0,0.0,0.0,0.0,0.0,0.0,0.0,0.0,0.0,0.0,0.0,0.0,0.0,0.0,0.0,0.0,0.0,0.0,0.0,0.0,0.0,0.0,0.0,0.0,0.0,0.0,0.0,0.0,0.0,0.0,0.0,0.0,0.0,0.0,0.0,0.0,0.0,0.0,0.0,0.0,0.0,0.0,0.0,0.0,0.0,0.0,0.0,0.0,0.0,0.0,0.0,0.0,0.0,0.0,0.0,0.0,0.0,0.0,0.0,0.0,0.0,0.0,0.0,0.0,0.0,0.0,0.0,0.0,0.0,0.0,0.0,0.0,0.0,0.0,0.0,0.0,0.0,0.0,0.0,0.0,0.0,0.0,0.0,0.0,0.0,0.0,0.0,0.0,0.0,0.0,0.0,0.0,0.0,0.0,0.0,0.0,0.0,0.0,0.0,0.0,0.0,0.0,0.0,0.0,0.0,0.0,0.0,0.0,0.0,0.0,0.0,0.0,0.0,0.0,0.0,0.0,0.0,0.0,0.0,0.0,0.0,0.0,0.0,0.0,0.0,0.0,0.0,0.0,0.0,0.0,0.0,0.0,0.0,0.0,0.0,0.0,0.0,0.0,0.0,0.0,0.0,0.0,0.0,0.0,0.0,0.0,0.0,0.0,0.0,0.0,0.0,0.0,0.0,0.0,0.0,0.0,0.0,0.0,0.0,0.0,0.0,0.0,0.0,0.0,0.0,0.0,0.0,0.0,0.0,0.0,0.0,0.0,0.0,0.0,0.0,0.0,0.0,0.0,0.0,0.0,0.0,0.0,0.0,0.0,0.0,0.0,0.0,0.0,0.0,0.0,0.0,0.0,0.0,0.0,0.0,0.0,0.0,0.0,0.0,0.0,0.0,0.0,0.0,0.0,0.0,0.0,0.0,0.0,0.0,0.0,0.0,0.0,0.0,0.0,0.0,0.0,0.0,0.0,0.0,0.0,0.0,0.0,0.0,0.0,0.0,0.0,0.0,0.0,0.0,0.0,0.0,0.0,0.0,0.0,0.0,0.0,0.0,0.0,0.0,0.0,0.0,0.0,0.0,0.0,0.0,0.0,0.0,0.0,0.0,0.0,0.0,0.0,0.0,0.0,0.0,0.0,0.0,0.0,0.0,0.0,0.0,0.0,0.0,0.0,0.0,0.0,0.0,0.0,0.0,0.0,0.0,0.0,0.0,0.0,0.0,0.0,0.0,0.0,0.0,0.0,0.0,0.0,0.0,0.0,0.0,0.0,0.0,0.0,0.0,0.0,0.0,0.0,0.0,0.0,0.0,0.0,0.0,0.0,0.0,0.0,0.0,0.0,0.0,0.0,0.0,0.0,0.0,0.0,0.0,0.0,0.0,0.0,0.0,0.0,0.0,0.0,0.0,0.0,0.0,0.0,0.0,0.0,0.0,0.0,0.0,0.0,0.0,0.0,0.0,0.0,0.0,0.0,0.0,0.0,0.0,0.0,0.0,0.0,0.0,0.0,0.0,0.0,0.0,0.0,0.0,0.0,0.0,0.0,0.0,0.0,0.0,0.0,0.0,0.0,0.0,0.0,0.0,0.0,0.0,0.0,0.0,0.0,0.0,0.0,0.0,0.0,0.0,0.0,0.0,0.0,0.0,0.0,0.0,0.0,0.0,0.0,0.0,0.0,0.0,0.0,0.0,0.0,0.0,0.0,0.0,0.0,0.0,0.0,0.0,0.0,0.0,0.0,0.0,0.0,0.0,0.0,0.0,0.0,0.0,0.0,0.0,0.0,0.0,0.0,0.0,0.0,0.0,0.0,0.0,0.0,0.0,0.0,0.0,0.0,0.0,0.0,0.0,0.0,0.0,0.0,0.0,0.0,0.0,0.0,0.0,0.0,0.0,0.0,0.0,0.0,0.0,0.0,0.0,0.0,0.0,0.0,0.0,0.0,0.0,0.0,0.0,0.0,0.0,0.0,0.0,0.0,0.0,0.0,0.0,0.0,0.0,0.0,0.0,0.0,0.0,0.0,0.0,0.0,0.0,0.0,0.0,0.0,0.0,0.0,0.0,0.0,0.0,0.0,0.0,0.0,0.0,0.0,0.0,0.0,0.0,0.0,0.0,0.0,0.0,0.0,0.0,0.0,0.0,0.0,0.0,0.0,0.0,0.0,0.0,0.0,0.0,0.0,0.0,0.0,0.0,0.0,0.0,0.0,0.0,0.0,0.0,0.0,0.0,0.0,0.0,0.0,0.0,0.0,0.0,0.0,0.0,0.0,0.0,0.0,0.0,0.0,0.0,0.0,0.0,0.0,0.0,0.0,0.0,0.0,0.0,0.0,0.0,0.0,0.0,0.0,0.0,0.0,0.0,0.0,0.0,0.0,0.0,0.0,0.0,0.0,0.0,0.0,0.0,0.0,0.0,0.0,0.0,0.0,0.0,0.0,0.0,0.0,0.0,0.0,0.0,0.0,0.0,0.0,0.0,0.0,0.0,0.0,0.0,0.0,0.0,0.0,0.0,0.0,0.0,0.0,0.0,0.0,0.0,0.0,0.0,0.0,0.0,0.0,0.0,0.0,0.0,0.0,0.0,0.0,0.0,0.0,0.0,0.0,0.0,0.0,0.0,0.0,0.0,0.0,0.0,0.0,0.0,0.0,0.0,0.0,0.0,0.0,0.0,0.0,0.0,0.0,0.0,0.0,0.0,0.0,0.0,0.0,0.0,0.0,0.0,0.0,0.0,0.0,0.0,0.0,0.0,0.0,0.0,0.0,0.0,0.0,0.0,0.0,0.0,0.0,0.0,0.0,0.0,0.0,0.0,0.0,0.0,0.0,0.0,0.0,0.0,0.0,0.0,0.0,0.0,0.0,0.0,0.0,0.0,0.0,0.0,0.0,0.0,0.0,0.0,0.0,0.0,0.0,0.0,0.0,0.0,0.0,0.0,0.0,0.0,0.0,0.0,0.0,0.0,0.0,0.0,0.0,0.0,0.0,0.0,0.0,0.0,0.0,0.0,0.0,0.0,0.0,0.0,0.0,0.0,0.0,0.0,0.0,0.0,0.0,0.0,0.0,0.0,0.0,0.0,0.0,0.0,0.0,0.0,0.0,0.0,0.0,0.0,0.0,0.0,0.0,0.0,0.0,0.0,0.0,0.0,0.0,0.0,0.0,0.0,0.0,0.0,0.0,0.0,0.0,0.0,0.0,0.0,0.0,0.0,0.0,0.0,0.0,0.0,0.0,0.0,0.0,0.0,0.0,0.0,0.0,0.0,0.0,0.0,0.0,0.0,0.0,0.0,0.0,0.0,0.0,0.0,0.0,0.0,0.0,0.0,0.0,0.0,0.0,0.0,0.0,0.0,0.0,0.0,0.0,0.0,0.0,0.0,0.0,0.0,0.0,0.0,0.0,0.0,0.0,0.0,0.0,0.0,0.0,0.0,0.0,0.0,0.0,0.0,0.0,0.0,0.0,0.0,0.0,0.0,0.0,0.0,0.0,0.0,0.0,0.0,0.0,0.0,0.0,0.0,0.0,0.0,0.0,0.0,0.0,0.0,0.0,0.0,0.0,0.0,0.0,0.0,0.0,0.0,0.0,0.0,0.0,0.0,0.0,0.0,0.0,0.0,0.0,0.0,0.0,0.0,0.0,0.0,0.0,0.0,0.0,0.0,0.0,0.0,0.0,0.0,0.0,0.0,0.0,0.0,0.0,0.0,0.0,0.0,0.0,0.0,0.0,0.0,0.0,0.0,0.0,0.0,0.0,0.0,0.0,0.0,0.0,0.0,0.0,0.0,0.0,0.0,0.0,0.0,0.0,0.0,0.0,0.0,0.0,0.0,0.0,0.0,0.0,0.0,-5.2361,0.0,0.0,0.0,0.0,0.0,0.0,0.0,0.0,0.0,0.0,0.0,0.0,0.0,0.0,0.0,0.0,0.0,0.0,0.0,0.0,0.0,0.0,0.0,0.0,0.0,0.0,0.0,0.0,0.0,0.0,0.0,0.0,0.0,0.0,0.0,0.0,0.0,0.0,0.0,0.0,0.0,0.0,0.0,0.0,0.0,0.0,0.0,0.0,0.0,0.0,0.0,0.0,0.0,0.0,0.0,0.0,0.0,0.0,0.0,0.0,0.0,0.0,0.0,0.0,0.0,0.0,0.0,0.0,0.0,0.0,0.0,0.0,0.0,0.0,0.0,0.0,0.0,0.0,0.0,0.0,0.0,0.0,0.0,0.0,0.0,0.0,0.0,0.0,0.0,0.0,0.0,0.0,0.0,0.0,0.0,0.0,0.0,0.0,0.0,0.0,0.0,0.0,0.0,0.0,0.0,0.0,0.0,0.0,0.0,0.0,-5.567,-5.5689,-5.5242,-5.4388,-5.3113,0.0,0.0,0.0,0.0,0.0,0.0,0.0,0.0,0.0,0.0,0.0,0.0,0.0,0.0,0.0,0.0,0.0,0.0,0.0,0.0,0.0,0.0,0.0,0.0,0.0,0.0,0.0,0.0,0.0,0.0,0.0,0.0,0.0,0.0,0.0,0.0,0.0,0.0,0.0,0.0,0.0,0.0,0.0,0.0,0.0,0.0,0.0,0.0,0.0,0.0,0.0,0.0,0.0,0.0,0.0,0.0,0.0,0.0,0.0,0.0,0.0,0.0,0.0,0.0,0.0,0.0,0.0,0.0,0.0,0.0,0.0,0.0,0.0,0.0,0.0,0.0,0.0,0.0,0.0,0.0,0.0,0.0,0.0,0.0,0.0,0.0,0.0,0.0,0.0,0.0,0.0,0.0,0.0,0.0,0.0,0.0,0.0,0.0,0.0,0.0,0.0,0.0,0.0,0.0,0.0,0.0,0.0,0.0,0.0,0.0,0.0,0.0,-5.5537,-5.4495,-5.2979,0.0,0.0,0.0,0.0,0.0,0.0,0.0,0.0,0.0,0.0,0.0,0.0,0.0,0.0,0.0,0.0,0.0,0.0,0.0,0.0,0.0,0.0,0.0,0.0,0.0,0.0,0.0,0.0,0.0,0.0,0.0,0.0,0.0,0.0,0.0,0.0,0.0,0.0,0.0,0.0,0.0,0.0,0.0,0.0,0.0,0.0,0.0,0.0,0.0,0.0,0.0,0.0,0.0,0.0,0.0,0.0,0.0,0.0,0.0,0.0,0.0,0.0,0.0,0.0,0.0,0.0,0.0,0.0,0.0,0.0,0.0,0.0,0.0,0.0,0.0,0.0,0.0,0.0,0.0,0.0,0.0,0.0,0.0,0.0,0.0,0.0,0.0,0.0,0.0,0.0,0.0,0.0,0.0,0.0,0.0,0.0,0.0,0.0,0.0,0.0,0.0,0.0,0.0,0.0,0.0,0.0,0.0,0.0,0.0,0.0,-5.6046,-5.6106,-5.6087,0.0,-5.1335,0.0,0.0,0.0,0.0,0.0,0.0,0.0,0.0,0.0,0.0,0.0,0.0,0.0,0.0,0.0,0.0,0.0,0.0,0.0,0.0,0.0,0.0,0.0,0.0,0.0,0.0,0.0,0.0,0.0,0.0,0.0,0.0,0.0,0.0,0.0,0.0,0.0,0.0,0.0,0.0,0.0,0.0,0.0,0.0,0.0,0.0,0.0,0.0,0.0,0.0,0.0,0.0,0.0,0.0,0.0,0.0,0.0,0.0,0.0,0.0,0.0,0.0,0.0,0.0,0.0,0.0,0.0,0.0,0.0,0.0,0.0,0.0,0.0,0.0,0.0,0.0,0.0,0.0,0.0,0.0,0.0,0.0,0.0,0.0,0.0,0.0,0.0,0.0,0.0,0.0,0.0,0.0,0.0,0.0,0.0,0.0,0.0,0.0,0.0,0.0,0.0,0.0,0.0,0.0,0.0,0.0,0.0,0.0,0.0,0.0,-5.5876,-5.5979,-5.5036,-5.3149,0.0,0.0,0.0,0.0,0.0,0.0,0.0,0.0,0.0,0.0,0.0,0.0,0.0,0.0,0.0,0.0,0.0,0.0,0.0,0.0,0.0,0.0,0.0,0.0,0.0,0.0,0.0,0.0,0.0,0.0,0.0,0.0,0.0,0.0,0.0,0.0,0.0,0.0,0.0,0.0,0.0,0.0,0.0,0.0,0.0,0.0,0.0,0.0,0.0,0.0,0.0,0.0,0.0,0.0,0.0,0.0,0.0,0.0,0.0,0.0,0.0,0.0,0.0,0.0,0.0,0.0,0.0,0.0,0.0,0.0,0.0,0.0,0.0,0.0,0.0,0.0,0.0,0.0,0.0,0.0,0.0,0.0,0.0,0.0,0.0,0.0,0.0,0.0,0.0,0.0,0.0,0.0,0.0,0.0,0.0,0.0,0.0,0.0,0.0,0.0,0.0,0.0,0.0,0.0,0.0,0.0,0.0,0.0,0.0,0.0,-5.5339,-5.5271,-5.5114,-5.3791,-5.1955,-4.9614,0.0,0.0,0.0,0.0,0.0,0.0,0.0,0.0,0.0,0.0,0.0,0.0,0.0,0.0,0.0,0.0,0.0,0.0,0.0,0.0,0.0,0.0,0.0,0.0,0.0,0.0,0.0,0.0,0.0,0.0,0.0,0.0,0.0,0.0,0.0,0.0,0.0,0.0,0.0,0.0,0.0,0.0,0.0,0.0,0.0,0.0,0.0,0.0,0.0,0.0,0.0,0.0,0.0,0.0,0.0,0.0,0.0,0.0,0.0,0.0,0.0,0.0,0.0,0.0,0.0,0.0,0.0,0.0,0.0,0.0,0.0,0.0,0.0,0.0,0.0,0.0,0.0,0.0,0.0,0.0,0.0,0.0,0.0,0.0,0.0,0.0,0.0,0.0,0.0,0.0,0.0,0.0,0.0,0.0,0.0,0.0,0.0,0.0,0.0,0.0,0.0,0.0,0.0,0.0,0.0,0.0,0.0,0.0,0.0,-5.4574,-5.3996,-5.3427,-5.2597,-5.1287,0.0,0.0,0.0,0.0,0.0,0.0,0.0,0.0,0.0,0.0,0.0,0.0,0.0,0.0,0.0,0.0,0.0,0.0,0.0,0.0,0.0,0.0,0.0,0.0,0.0,0.0,0.0,0.0,0.0,0.0,0.0,0.0,0.0,0.0,0.0,0.0,0.0,0.0,0.0,0.0,0.0,0.0,0.0,0.0,0.0,0.0,0.0,0.0,0.0,0.0,0.0,0.0,0.0,0.0,0.0,0.0,0.0,0.0,0.0,0.0,0.0,0.0,0.0,0.0,0.0,0.0,0.0,0.0,0.0,0.0,0.0,0.0,0.0,0.0,0.0,0.0,0.0,0.0,0.0,0.0,0.0,0.0,0.0,0.0,0.0,0.0,0.0,0.0,0.0,0.0,0.0,0.0,0.0,0.0,0.0,0.0,0.0,0.0,0.0,0.0,0.0,0.0,0.0,0.0,0.0,0.0,0.0,0.0,0.0,-5.4262,-5.3671,-5.3031,-5.2374,-5.2068,-5.0817,0.0,0.0,0.0,0.0,0.0,0.0,0.0,0.0,0.0,0.0,0.0,0.0,0.0,0.0,0.0,0.0,0.0,0.0,0.0,0.0,0.0,0.0,0.0,0.0,0.0,0.0,0.0,0.0,0.0,0.0,0.0,0.0,0.0,0.0,0.0,0.0,0.0,0.0,0.0,0.0,0.0,0.0,0.0,0.0,0.0,0.0,0.0,0.0,0.0,0.0,0.0,0.0,0.0,0.0,0.0,0.0,0.0,0.0,0.0,0.0,0.0,0.0,0.0,0.0,0.0,0.0,0.0,0.0,0.0,0.0,0.0,0.0,0.0,0.0,0.0,0.0,0.0,0.0,0.0,0.0,0.0,0.0,0.0,0.0,0.0,0.0,0.0,0.0,0.0,0.0,0.0,0.0,0.0,0.0,0.0,0.0,0.0,0.0,0.0,0.0,0.0,0.0,0.0,0.0,0.0,0.0,0.0,0.0,0.0,-5.2601,0.0,-5.1928,0.0,-5.1171,-5.021,0.0,0.0,0.0,0.0,0.0,0.0,0.0,0.0,0.0,0.0,0.0,0.0,0.0,0.0,0.0,0.0,0.0,0.0,0.0,0.0,0.0,0.0,0.0,0.0,0.0,0.0,0.0,0.0,0.0,0.0,0.0,0.0,0.0,0.0,0.0,0.0,0.0,0.0,0.0,0.0,0.0,0.0,0.0,0.0,0.0,0.0,0.0,0.0,0.0,0.0,0.0,0.0,0.0,0.0,0.0,0.0,0.0,0.0,0.0,0.0,0.0,0.0,0.0,0.0,0.0,0.0,0.0,0.0,0.0,0.0,0.0,0.0,0.0,0.0,0.0,0.0,0.0,0.0,0.0,0.0,0.0,0.0,0.0,0.0,0.0,0.0,0.0,0.0,0.0,0.0,0.0,0.0,0.0,0.0,0.0,0.0,0.0,0.0,0.0,0.0,0.0,0.0,0.0,0.0,0.0,0.0,0.0,0.0,-5.2447,-5.0176,-5.0906,-5.0621,-4.9093,-4.9858,-4.9465,0.0,0.0,0.0,0.0,0.0,0.0,0.0,0.0,0.0,0.0,0.0,0.0,0.0,0.0,0.0,0.0,0.0,0.0,0.0,0.0,0.0,0.0,0.0,0.0,0.0,0.0,0.0,0.0,0.0,0.0,0.0,0.0,0.0,0.0,0.0,0.0,0.0,0.0,0.0,0.0,0.0,0.0,0.0,0.0,0.0,0.0,0.0,0.0,0.0,0.0,0.0,0.0,0.0,0.0,0.0,0.0,0.0,0.0,0.0,0.0,0.0,0.0,0.0,0.0,0.0,0.0,0.0,0.0,0.0,0.0,0.0,0.0,0.0,0.0,0.0,0.0,0.0,0.0,0.0,0.0,0.0,0.0,0.0,0.0,0.0,0.0,0.0,0.0,0.0,0.0,0.0,0.0,0.0,0.0,0.0,0.0,0.0,0.0,0.0,0.0,0.0,0.0,0.0,0.0,0.0,0.0,0.0,0.0,0.0,-4.9245,-4.9461,-4.9385,-4.8952,-4.9186,-4.8781,0.0,0.0,0.0,0.0,0.0,0.0,0.0,0.0,0.0,0.0,0.0,0.0,0.0,0.0,0.0,0.0,0.0,0.0,0.0,0.0,0.0,0.0,0.0,0.0,0.0,0.0,0.0,0.0,0.0,0.0,0.0,0.0,0.0,0.0,0.0,0.0,0.0,0.0,0.0,0.0,0.0,0.0,0.0,0.0,0.0,0.0,0.0,0.0,0.0,0.0,0.0,0.0,0.0,0.0,0.0,0.0,0.0,0.0,0.0,0.0,0.0,0.0,0.0,0.0,0.0,0.0,0.0,0.0,0.0,0.0,0.0,0.0,0.0,0.0,0.0,0.0,0.0,0.0,0.0,0.0,0.0,0.0,0.0,0.0,0.0,0.0,0.0,0.0,0.0,0.0,0.0,0.0,0.0,0.0,0.0,0.0,0.0,0.0,0.0,0.0,0.0,0.0,0.0,0.0,0.0,0.0,0.0,0.0,0.0,-4.8787,-4.9041,-4.908,-4.8834,-4.9119,-4.8846,-4.7973,0.0,0.0,0.0,0.0,0.0,0.0,0.0,0.0,0.0,0.0,0.0,0.0,0.0,0.0,0.0,0.0,0.0,0.0,0.0,0.0,0.0,0.0,0.0,0.0,0.0,0.0,0.0,0.0,0.0,0.0,0.0,0.0,0.0,0.0,0.0,0.0,0.0,0.0,0.0,0.0,0.0,0.0,0.0,0.0,0.0,0.0,0.0,0.0,0.0,0.0,0.0,0.0,0.0,0.0,0.0,0.0,0.0,0.0,0.0,0.0,0.0,0.0,0.0,0.0,0.0,0.0,0.0,0.0,0.0,0.0,0.0,0.0,0.0,0.0,0.0,0.0,0.0,0.0,0.0,0.0,0.0,0.0,0.0,0.0,0.0,0.0,0.0,0.0,0.0,0.0,0.0,0.0,0.0,0.0,0.0,0.0,0.0,0.0,0.0,0.0,0.0,0.0,0.0,0.0,0.0,0.0,0.0,0.0,-4.8644,-4.9459,-4.95,-4.8736,-4.9419,-4.9462,0.0,0.0,0.0,0.0,0.0,0.0,0.0,0.0,0.0,0.0,0.0,0.0,0.0,0.0,0.0,0.0,0.0,0.0,0.0,0.0,0.0,0.0,0.0,0.0,0.0,0.0,0.0,0.0,0.0,0.0,0.0,0.0,0.0,0.0,0.0,0.0,0.0,0.0,0.0,0.0,0.0,0.0,0.0,0.0,0.0,0.0,0.0,0.0,0.0,0.0,0.0,0.0,0.0,0.0,0.0,0.0,0.0,0.0,0.0,0.0,0.0,0.0,0.0,0.0,0.0,0.0,0.0,0.0,0.0,0.0,0.0,0.0,0.0,0.0,0.0,0.0,0.0,0.0,0.0,0.0,0.0,0.0,0.0,0.0,0.0,0.0,0.0,0.0,0.0,0.0,0.0,0.0,0.0,0.0,0.0,0.0,0.0,0.0,0.0,0.0,0.0,0.0,0.0,0.0,0.0,0.0,0.0,0.0,0.0,-4.9366,-4.9627,-4.9409,-4.8742,-4.884,-4.8832,0.0,0.0,0.0,0.0,0.0,0.0,0.0,0.0,0.0,0.0,0.0,0.0,0.0,0.0,0.0,0.0,0.0,0.0,0.0,0.0,0.0,0.0,0.0,0.0,0.0,0.0,0.0,0.0,0.0,0.0,0.0,0.0,0.0,0.0,0.0,0.0,0.0,0.0,0.0,0.0,0.0,0.0,0.0,0.0,0.0,0.0,0.0,0.0,0.0,0.0,0.0,0.0,0.0,0.0,0.0,0.0,0.0,0.0,0.0,0.0,0.0,0.0,0.0,0.0,0.0,0.0,0.0,0.0,0.0,0.0,0.0,0.0,0.0,0.0,0.0,0.0,0.0,0.0,0.0,0.0,0.0,0.0,0.0,0.0,0.0,0.0,0.0,0.0,0.0,0.0,0.0,0.0,0.0,0.0,0.0,0.0,0.0,0.0,0.0,0.0,0.0,0.0,0.0,0.0,0.0,0.0,0.0,0.0,-4.9437,-4.9437,-4.9544,-4.9374,-4.8961,-4.9008,-4.8994,0.0,0.0,0.0,0.0,0.0,0.0,0.0,0.0,0.0,0.0,0.0,0.0,0.0,0.0,0.0,0.0,0.0,0.0,0.0,0.0,0.0,0.0,0.0,0.0,0.0,0.0,0.0,0.0,0.0,0.0,0.0,0.0,0.0,0.0,0.0,0.0,0.0,0.0,0.0,0.0,0.0,0.0,0.0,0.0,0.0,0.0,0.0,0.0,0.0,0.0,0.0,0.0,0.0,0.0,0.0,0.0,0.0,0.0,0.0,0.0,0.0,0.0,0.0,0.0,0.0,0.0,0.0,0.0,0.0,0.0,0.0,0.0,0.0,0.0,0.0,0.0,0.0,0.0,0.0,0.0,0.0,0.0,0.0,0.0,0.0,0.0,0.0,0.0,0.0,0.0,0.0,0.0,0.0,0.0,0.0,0.0,0.0,0.0,0.0,0.0,0.0,0.0,0.0,0.0,0.0,0.0,0.0,0.0,-4.9129,-4.911,-4.9255,-4.9305,-4.9241,-4.9434,-4.948,0.0,0.0,0.0,0.0,0.0,0.0,0.0,0.0,0.0,0.0,0.0,0.0,0.0,0.0,0.0,0.0,0.0,0.0,0.0,0.0,0.0,0.0,0.0,0.0,0.0,0.0,0.0,0.0,0.0,0.0,0.0,0.0,0.0,0.0,0.0,0.0,0.0,0.0,0.0,0.0,0.0,0.0,0.0,0.0,0.0,0.0,0.0,0.0,0.0,0.0,0.0,0.0,0.0,0.0,0.0,0.0,0.0,0.0,0.0,0.0,0.0,0.0,0.0,0.0,0.0,0.0,0.0,0.0,0.0,0.0,0.0,0.0,0.0,0.0,0.0,0.0,0.0,0.0,0.0,0.0,0.0,0.0,0.0,0.0,0.0,0.0,0.0,0.0,0.0,0.0,0.0,0.0,0.0,0.0,0.0,0.0,0.0,0.0,0.0,0.0,0.0,0.0,0.0,0.0,0.0,0.0,0.0,0.0,-4.8713,-4.8713,-4.8801,-4.8818,-4.8749,-4.9094,-4.9228,0.0,0.0,0.0,0.0,0.0,0.0,0.0,0.0,0.0,0.0,0.0,0.0,0.0,0.0,0.0,0.0,0.0,0.0,0.0,0.0,0.0,0.0,0.0,0.0,0.0,0.0,0.0,0.0,0.0,0.0,0.0,0.0,0.0,0.0,0.0,0.0,0.0,0.0,0.0,0.0,0.0,0.0,0.0,0.0,0.0,0.0,0.0,0.0,-4.4123,0.0,0.0,0.0,0.0,0.0,0.0,0.0,0.0,0.0,0.0,0.0,0.0,0.0,0.0,0.0,0.0,0.0,0.0,0.0,0.0,0.0,0.0,0.0,0.0,0.0,0.0,0.0,0.0,0.0,0.0,0.0,0.0,0.0,0.0,0.0,0.0,0.0,0.0,0.0,0.0,0.0,0.0,0.0,0.0,0.0,0.0,0.0,0.0,0.0,0.0,0.0,0.0,0.0,0.0,0.0,0.0,0.0,0.0,0.0,-4.8326,-4.8326,-4.8383,-4.8402,-4.8344,-4.8458,-4.8587,0.0,0.0,0.0,0.0,0.0,0.0,0.0,0.0,0.0,0.0,0.0,0.0,0.0,0.0,0.0,0.0,0.0,0.0,0.0,0.0,0.0,0.0,0.0,0.0,0.0,0.0,0.0,0.0,0.0,0.0,0.0,0.0,0.0,0.0,0.0,0.0,0.0,0.0,0.0,0.0,0.0,0.0,0.0,0.0,0.0,0.0,0.0,0.0,0.0,0.0,0.0,0.0,0.0,0.0,0.0,0.0,0.0,0.0,0.0,0.0,0.0,0.0,0.0,0.0,0.0,0.0,0.0,0.0,0.0,0.0,0.0,0.0,0.0,0.0,0.0,0.0,0.0,0.0,0.0,0.0,0.0,0.0,0.0,0.0,0.0,0.0,0.0,0.0,0.0,0.0,0.0,0.0,0.0,0.0,0.0,0.0,0.0,0.0,0.0,0.0,0.0,0.0,0.0,0.0,0.0,0.0,0.0,-4.7827,-4.7931,-4.7931,-4.7975,-4.7994,-4.7931,-4.7684,-4.769,-4.7949,0.0,0.0,0.0,0.0,0.0,0.0,0.0,0.0,0.0,0.0,0.0,0.0,0.0,0.0,0.0,0.0,0.0,0.0,0.0,0.0,0.0,0.0,0.0,0.0,0.0,0.0,0.0,0.0,0.0,0.0,0.0,0.0,0.0,0.0,0.0,0.0,0.0,0.0,-4.1388,-4.2522,0.0,0.0,0.0,0.0,0.0,0.0,0.0,0.0,-4.3116,0.0,0.0,0.0,0.0,0.0,0.0,0.0,0.0,0.0,0.0,0.0,0.0,0.0,0.0,0.0,0.0,0.0,0.0,0.0,0.0,0.0,0.0,0.0,0.0,0.0,0.0,0.0,0.0,0.0,0.0,0.0,0.0,0.0,0.0,0.0,0.0,0.0,0.0,0.0,0.0,0.0,0.0,0.0,0.0,0.0,0.0,0.0,0.0,0.0,0.0,0.0,0.0,0.0,0.0,0.0,0.0,-4.7363,-4.7515,-4.7578,-4.7578,-4.7578,-4.76,-4.756,-4.6858,-4.6513,-4.6558,0.0,0.0,0.0,0.0,0.0,0.0,0.0,0.0,0.0,0.0,0.0,0.0,0.0,0.0,0.0,0.0,0.0,0.0,0.0,0.0,0.0,0.0,0.0,0.0,0.0,0.0,0.0,0.0,0.0,0.0,0.0,0.0,0.0,0.0,0.0,0.0,0.0,0.0,0.0,-4.2615,-4.2729,0.0,0.0,0.0,0.0,0.0,0.0,0.0,0.0,-4.189,0.0,0.0,0.0,0.0,0.0,0.0,0.0,0.0,0.0,0.0,0.0,0.0,0.0,0.0,0.0,0.0,0.0,0.0,0.0,0.0,0.0,0.0,0.0,0.0,0.0,0.0,0.0,0.0,0.0,0.0,0.0,0.0,0.0,0.0,0.0,0.0,0.0,0.0,0.0,0.0,0.0,0.0,0.0,0.0,0.0,0.0,0.0,0.0,0.0,0.0,0.0,0.0,0.0,0.0,0.0,-4.6498,-4.6595,-4.6797,-4.7232,-4.7312,-4.7356,-4.7338,-4.6474,-4.5839,0.0,0.0,0.0,0.0,0.0,0.0,0.0,0.0,0.0,0.0,0.0,0.0,0.0,0.0,0.0,0.0,0.0,0.0,0.0,0.0,0.0,0.0,0.0,0.0,0.0,0.0,0.0,0.0,0.0,0.0,0.0,0.0,0.0,0.0,0.0,0.0,0.0,0.0,0.0,0.0,-4.1732,-4.154,-4.2064,0.0,0.0,0.0,0.0,0.0,0.0,-4.1157,-4.1117,0.0,0.0,0.0,0.0,0.0,0.0,0.0,0.0,0.0,0.0,0.0,0.0,0.0,0.0,0.0,0.0,0.0,0.0,0.0,0.0,0.0,0.0,0.0,0.0,0.0,0.0,0.0,0.0,0.0,0.0,0.0,0.0,0.0,0.0,0.0,0.0,0.0,0.0,0.0,0.0,0.0,0.0,0.0,0.0,0.0,0.0,0.0,0.0,0.0,0.0,0.0,0.0,0.0,0.0,0.0,-4.5632,-4.569,-4.6064,-4.6852,-4.7002,-4.7017,-4.6874,-4.5976,-4.5191,0.0,0.0,0.0,0.0,0.0,0.0,0.0,0.0,0.0,0.0,0.0,0.0,0.0,0.0,0.0,0.0,0.0,0.0,0.0,0.0,0.0,0.0,0.0,0.0,0.0,0.0,0.0,0.0,0.0,0.0,0.0,0.0,0.0,0.0,0.0,0.0,0.0,0.0,0.0,0.0,0.0,-4.0508,-4.1171,-4.0802,0.0,0.0,0.0,0.0,-4.0728,-4.0614,0.0,0.0,0.0,0.0,0.0,0.0,0.0,0.0,0.0,0.0,0.0,0.0,0.0,0.0,0.0,0.0,0.0,0.0,0.0,0.0,0.0,0.0,0.0,0.0,0.0,0.0,0.0,0.0,0.0,0.0,0.0,0.0,0.0,0.0,0.0,0.0,0.0,0.0,0.0,0.0,0.0,0.0,0.0,0.0,0.0,0.0,0.0,0.0,0.0,0.0,0.0,0.0,0.0,0.0,0.0,0.0,-4.5146,-4.53,-4.5717,-4.6442,-4.6572,-4.6359,-4.5703,-4.4901,-4.4103,0.0,0.0,0.0,0.0,0.0,0.0,0.0,0.0,0.0,0.0,0.0,0.0,0.0,0.0,0.0,0.0,0.0,0.0,0.0,0.0,0.0,0.0,0.0,0.0,0.0,0.0,0.0,0.0,0.0,0.0,0.0,0.0,0.0,0.0,0.0,0.0,0.0,0.0,0.0,0.0,0.0,-3.9849,-4.0053,-4.0028,-4.0037,0.0,0.0,-4.0171,-4.0171,-4.0171,0.0,0.0,0.0,0.0,0.0,0.0,0.0,0.0,0.0,0.0,0.0,0.0,0.0,0.0,0.0,0.0,0.0,0.0,0.0,0.0,0.0,0.0,0.0,0.0,0.0,0.0,0.0,0.0,0.0,0.0,0.0,0.0,0.0,0.0,0.0,0.0,0.0,0.0,0.0,0.0,0.0,0.0,0.0,0.0,0.0,0.0,0.0,0.0,0.0,0.0,0.0,0.0,0.0,0.0,0.0,-4.2911,-4.4032,-4.4139,-4.474,-4.5885,-4.6062,-4.581,-4.5074,-4.4349,-4.3599,0.0,0.0,0.0,0.0,0.0,0.0,0.0,0.0,0.0,0.0,0.0,0.0,0.0,0.0,0.0,0.0,0.0,0.0,0.0,0.0,0.0,0.0,0.0,0.0,0.0,0.0,0.0,0.0,0.0,0.0,0.0,0.0,0.0,0.0,0.0,0.0,0.0,0.0,0.0,0.0,0.0,0.0,-3.9224,-3.9505,0.0,0.0,0.0,-3.9558,-4.0117,0.0,0.0,0.0,0.0,0.0,0.0,0.0,0.0,0.0,0.0,0.0,0.0,0.0,0.0,0.0,0.0,0.0,0.0,0.0,0.0,0.0,0.0,0.0,0.0,0.0,0.0,0.0,0.0,0.0,0.0,0.0,0.0,0.0,0.0,0.0,0.0,0.0,0.0,0.0,0.0,0.0,0.0,0.0,0.0,0.0,0.0,0.0,0.0,0.0,0.0,0.0,0.0,0.0,0.0,0.0,0.0,0.0,-4.3028,-4.3095,-4.3845,-4.5329,-4.5529,-4.5156,-4.4237,-4.3704,0.0,0.0,0.0,0.0,0.0,0.0,0.0,0.0,0.0,0.0,0.0,0.0,0.0,0.0,0.0,0.0,0.0,0.0,0.0,0.0,0.0,0.0,0.0,0.0,0.0,0.0,0.0,-3.4656,0.0,0.0,0.0,0.0,0.0,0.0,0.0,0.0,0.0,0.0,0.0,0.0,0.0,0.0,-3.9275,-3.8724,-3.9246,-3.9534,0.0,0.0,-3.9275,-3.9844,-3.9411,-3.8957,0.0,0.0,0.0,0.0,0.0,0.0,0.0,0.0,0.0,0.0,0.0,0.0,0.0,0.0,0.0,0.0,0.0,0.0,0.0,0.0,0.0,0.0,0.0,0.0,0.0,0.0,0.0,0.0,0.0,0.0,0.0,0.0,0.0,0.0,0.0,0.0,0.0,0.0,0.0,0.0,0.0,0.0,0.0,0.0,0.0,0.0,0.0,0.0,0.0,0.0,0.0,0.0,0.0,0.0,-4.1019,-4.2315,-4.2481,-4.3291,-4.4695,-4.4882,-4.4297,-4.2894,-4.2792,-4.2124,0.0,0.0,0.0,0.0,0.0,0.0,0.0,0.0,0.0,0.0,0.0,0.0,0.0,0.0,0.0,0.0,0.0,0.0,0.0,0.0,0.0,0.0,0.0,0.0,0.0,0.0,0.0,0.0,0.0,0.0,0.0,0.0,0.0,0.0,0.0,0.0,0.0,0.0,0.0,0.0,0.0,-3.9087,-3.8891,-3.9454,-3.9855,0.0,-3.9838,-3.963,-3.9081,-3.8953,-3.8681,-3.8069,0.0,0.0,0.0,0.0,0.0,0.0,0.0,0.0,0.0,0.0,0.0,0.0,0.0,0.0,0.0,0.0,0.0,0.0,0.0,0.0,0.0,0.0,0.0,0.0,0.0,0.0,0.0,0.0,0.0,0.0,0.0,0.0,0.0,0.0,0.0,0.0,0.0,0.0,0.0,0.0,0.0,0.0,0.0,0.0,0.0,0.0,0.0,0.0,0.0,0.0,0.0,0.0,0.0,-4.0624,-4.2034,-4.2088,-4.284,-4.4254,-4.4361,-4.3698,-4.2247,-4.2277,-4.1442,0.0,0.0,0.0,0.0,0.0,0.0,0.0,0.0,0.0,0.0,0.0,0.0,0.0,0.0,0.0,0.0,0.0,0.0,0.0,0.0,0.0,0.0,0.0,0.0,0.0,0.0,0.0,0.0,-3.5884,-3.5555,-3.5703,0.0,0.0,0.0,0.0,0.0,0.0,0.0,0.0,0.0,0.0,-3.8498,-3.8029,-3.8726,0.0,0.0,-3.8804,-3.8727,-3.8622,-3.831,-3.7886,-3.7272,-3.6995,0.0,0.0,0.0,0.0,0.0,0.0,0.0,0.0,0.0,0.0,0.0,0.0,0.0,0.0,0.0,0.0,0.0,0.0,0.0,0.0,0.0,0.0,0.0,0.0,0.0,0.0,0.0,0.0,0.0,0.0,0.0,0.0,0.0,0.0,0.0,0.0,0.0,0.0,0.0,0.0,0.0,0.0,0.0,0.0,0.0,0.0,0.0,0.0,0.0,0.0,0.0,0.0,-4.0174,-4.1594,-4.1627,-4.2325,-4.3756,-4.3789,-4.309,-4.1693,-4.1722,-4.0752,0.0,0.0,0.0,0.0,0.0,0.0,0.0,0.0,0.0,0.0,0.0,0.0,0.0,0.0,0.0,0.0,0.0,0.0,0.0,0.0,0.0,0.0,0.0,0.0,0.0,0.0,0.0,0.0,-3.6252,-3.5736,-3.5451,0.0,0.0,0.0,0.0,0.0,0.0,0.0,0.0,0.0,0.0,-3.7997,-3.7491,-3.8353,-3.8912,-3.8531,-3.8489,-3.8421,-3.8162,-3.7803,-3.727,-3.6428,0.0,0.0,0.0,0.0,0.0,0.0,0.0,0.0,0.0,0.0,0.0,0.0,0.0,0.0,0.0,0.0,0.0,0.0,0.0,0.0,0.0,0.0,0.0,0.0,0.0,0.0,0.0,-4.2648,0.0,0.0,-4.293,0.0,0.0,0.0,0.0,0.0,0.0,0.0,0.0,0.0,0.0,0.0,0.0,0.0,0.0,0.0,0.0,0.0,0.0,0.0,0.0,0.0,0.0,-3.9554,-4.098,-4.1012,-4.1717,-4.3047,-4.3143,-4.2455,-4.1078,-4.1012,-4.0081,-3.8071,0.0,0.0,0.0,0.0,0.0,0.0,0.0,0.0,0.0,0.0,0.0,0.0,0.0,0.0,0.0,0.0,0.0,0.0,0.0,0.0,0.0,0.0,0.0,0.0,0.0,0.0,-3.6456,-3.6093,-3.5764,0.0,0.0,0.0,0.0,0.0,0.0,0.0,0.0,0.0,0.0,-3.6881,-3.7624,-3.7409,-3.8517,-3.9311,-3.9311,-3.9311,-3.8906,-3.7599,-3.7375,-3.6941,0.0,0.0,0.0,0.0,0.0,0.0,0.0,0.0,0.0,0.0,0.0,0.0,0.0,0.0,0.0,0.0,0.0,0.0,0.0,0.0,0.0,0.0,0.0,0.0,0.0,0.0,0.0,-4.2029,-4.2061,0.0,0.0,0.0,0.0,0.0,0.0,0.0,0.0,0.0,0.0,0.0,-3.8984,-3.8167,0.0,0.0,0.0,0.0,0.0,0.0,0.0,0.0,0.0,0.0,0.0,0.0,-3.9158,-4.0415,-4.0496,-4.1116,-4.2396,-4.2412,-4.1735,-4.0395,-4.0331,-3.9179,-3.6756,0.0,0.0,0.0,0.0,0.0,0.0,0.0,0.0,0.0,0.0,0.0,0.0,0.0,0.0,0.0,0.0,0.0,0.0,0.0,0.0,0.0,0.0,0.0,0.0,0.0,-3.7254,0.0,0.0,0.0,0.0,0.0,0.0,0.0,0.0,0.0,0.0,0.0,-3.4631,-3.4934,-3.5657,-3.6178,-3.6079,-3.7174,-3.796,0.0,0.0,0.0,0.0,0.0,0.0,0.0,0.0,0.0,0.0,0.0,0.0,0.0,0.0,-3.6932,-3.6721,-3.6527,-3.6174,-3.5576,0.0,0.0,0.0,0.0,0.0,0.0,0.0,0.0,0.0,0.0,0.0,0.0,0.0,0.0,-4.1416,-4.1471,-4.1303,0.0,0.0,0.0,0.0,0.0,0.0,0.0,0.0,-3.9738,-3.9313,-3.8752,-3.7977,-3.7623,0.0,-3.7027,-3.6971,0.0,0.0,0.0,0.0,0.0,0.0,0.0,0.0,-3.8576,-3.9734,-3.9767,-4.0419,-4.1657,-4.1737,-4.1182,-4.0008,-3.9263,-3.7959,-3.6027,-3.4664,-3.4004,0.0,0.0,0.0,0.0,0.0,0.0,0.0,0.0,0.0,0.0,0.0,0.0,0.0,0.0,0.0,0.0,0.0,0.0,0.0,0.0,0.0,0.0,0.0,-3.7123,0.0,0.0,0.0,0.0,0.0,0.0,0.0,0.0,0.0,-3.3605,-3.3568,-3.3609,-3.4013,-3.4542,-3.4923,-3.4958,0.0,0.0,0.0,0.0,0.0,0.0,0.0,-3.4448,-3.3731,-3.3886,-3.4382,-3.5145,-3.5885,-3.6433,-3.6749,0.0,0.0,-3.6707,-3.6679,-3.6477,-3.5926,-3.6193,-3.6524,-3.6471,-3.6827,-3.7104,0.0,0.0,0.0,0.0,0.0,0.0,0.0,0.0,-4.0942,-4.09,0.0,-4.0416,0.0,0.0,0.0,0.0,-4.0181,-3.9975,0.0,0.0,-3.9198,-3.8791,-3.8557,-3.7925,-3.7537,-3.7366,-3.6877,-3.6631,-3.6637,-3.6413,0.0,0.0,0.0,0.0,0.0,0.0,-3.7762,-3.8917,-3.8979,-3.9601,-4.0878,-4.0925,-4.0613,-3.9882,-3.7888,-3.6503,-3.5864,-3.4654,-3.3991,-3.4018,-3.3715,0.0,0.0,0.0,0.0,0.0,0.0,0.0,0.0,0.0,0.0,0.0,0.0,0.0,0.0,0.0,0.0,0.0,0.0,0.0,0.0,-3.6446,0.0,0.0,0.0,0.0,0.0,0.0,0.0,0.0,0.0,0.0,-3.2263,-3.2821,-3.3199,-3.2988,0.0,0.0,0.0,0.0,-3.5161,-3.5124,-3.5124,-3.484,-3.4005,-3.3843,-3.3534,-3.2786,0.0,0.0,-3.451,-3.5187,-3.5809,-3.6189,-3.6807,-3.7173,-3.6877,-3.6805,-3.6761,-3.6576,-3.6676,-3.6755,-3.6679,-3.6766,-3.6725,-4.1847,0.0,0.0,0.0,0.0,-4.0417,-4.0579,-4.0543,-4.0484,-4.0643,-4.092,-3.9873,0.0,0.0,0.0,0.0,0.0,0.0,-3.9184,-3.9292,-3.899,-3.8778,-3.869,-3.7961,-3.763,-3.7636,-3.693,-3.6724,-3.692,-3.6403,-3.6254,-3.6429,0.0,0.0,0.0,0.0,-3.6885,-3.7971,-3.8062,-3.8667,-3.9869,-4.0005,-3.9508,-3.8382,-3.6827,-3.5765,-3.5202,-3.4361,-3.4079,-3.4381,-3.3858,0.0,0.0,0.0,0.0,0.0,0.0,0.0,0.0,0.0,0.0,0.0,0.0,0.0,0.0,0.0,0.0,0.0,0.0,0.0,-3.5835,-3.5172,-3.4842,0.0,0.0,0.0,0.0,0.0,0.0,0.0,0.0,0.0,-3.1182,-3.1779,-3.22,0.0,0.0,-3.2844,-3.2916,-3.3586,-3.3974,-3.3688,-3.3679,0.0,-3.2962,-3.2496,-3.2108,-3.1873,-3.2395,-3.2941,-3.3264,-3.4172,-3.5036,-3.5631,-3.6195,-3.6654,-3.6912,-3.6956,-3.6758,-3.6353,-3.6678,-3.7106,-3.7114,-3.7434,-3.7725,-4.1097,-4.0639,-4.0293,-4.0003,-3.9899,-4.0294,-4.043,-4.0353,-4.0353,-4.0456,-4.0567,-3.9208,-3.8692,-3.8803,-3.8236,0.0,0.0,0.0,-3.8427,-3.8627,-3.8575,-3.856,-3.8531,-3.8084,-3.7894,-3.7923,-3.7215,-3.7009,-3.7143,-3.6266,-3.5907,-3.6064,0.0,0.0,-3.5911,-3.572,-3.6052,-3.6952,-3.7246,-3.7854,-3.8796,-3.8913,-3.8491,-3.7396,-3.635,-3.5502,-3.4908,-3.4326,-3.4151,-3.4425,-3.3846,-3.3446,0.0,0.0,0.0,0.0,0.0,0.0,0.0,0.0,0.0,0.0,0.0,-3.2867,-3.3225,0.0,0.0,0.0,-3.4945,-3.51,-3.4456,-3.3981,0.0,0.0,0.0,0.0,0.0,0.0,0.0,-3.1566,-3.1121,-3.0759,-3.0495,-3.0823,-3.1185,-3.1334,-3.1556,-3.174,-3.185,0.0,-3.2472,-3.2235,-3.2249,-3.215,-3.1825,-3.1446,-3.1237,-3.1348,-3.1714,-3.2171,-3.2601,-3.325,-3.3872,-3.4411,-3.4864,-3.5253,-3.5618,-3.6007,-3.6405,-3.651,-3.7006,-3.7428,-3.7531,-3.782,-3.8089,-4.0455,-4.0439,-4.0589,-4.0431,-4.0087,-4.0438,-4.0492,-4.0328,-4.0328,-4.0247,-3.9969,-3.8468,-3.761,-3.7257,-3.6837,0.0,-3.694,-3.7341,-3.7663,-3.7906,-3.8089,-3.8202,-3.8202,-3.8202,-3.8202,-3.8188,-3.7636,-3.736,-3.7244,-3.6075,-3.5505,-3.559,-3.54,-3.5252,-3.5148,-3.5148,-3.5359,-3.5874,-3.6477,-3.7111,-3.778,-3.7809,-3.75,-3.6836,-3.6197,-3.5583,-3.4916,-3.4487,-3.4258,-3.4243,-3.3746,-3.3198,-3.2646,0.0,0.0,0.0,0.0,0.0,0.0,0.0,0.0,0.0,0.0,0.0,0.0,0.0,0.0,0.0,-3.3829,0.0,-3.289,-3.2912,0.0,0.0,0.0,-3.2237,-3.2019,-3.1703,-3.1334,-3.0986,0.0,0.0,-3.0113,-3.0075,-3.0203,-3.0584,-3.066,-3.0736,-3.0911,-3.0986,-3.0949,-3.0975,-3.0962,-3.0874,-3.0712,-3.0635,-3.0726,-3.0984,-3.1072,-3.1369,-3.1966,-3.2265,-3.2462,-3.2922,-3.317,-3.3432,-3.3572,-3.4419,-3.5432,-3.6589,-3.7214,-3.7572,-3.7734,-3.7801,-3.7891,-4.0788,-4.0576,-4.0294,-3.9871,-3.9363,-3.9769,-3.9913,-3.9858,-3.9704,-3.9787,-3.988,-3.7758,-3.6402,-3.5588,-3.5683,-3.5897,-3.6269,-3.6705,-3.7187,-3.7663,-3.7891,-3.8066,-3.8202,-3.8202,-3.8202,-3.8188,-3.8057,-3.7738,-3.7288,-3.6475,-3.5872,-3.5447,-3.4908,-3.4716,-3.4798,-3.465,-3.4903,-3.5516,-3.5691,-3.612,-3.689,-3.6904,-3.6611,-3.6001,-3.5839,-3.5409,-3.4779,-3.4651,-3.4629,-3.4699,-3.4177,-3.3731,-3.3427,-3.2516,0.0,0.0,0.0,0.0,0.0,0.0,0.0,0.0,0.0,-3.0966,-3.0785,0.0,-3.1944,0.0,-3.1878,-3.2284,-3.2278,-3.2299,0.0,0.0,-3.1626,-3.1418,-3.1272,-3.0936,-3.0583,-3.0356,-3.0088,-2.9934,-2.9869,-2.9869,-2.9908,-3.0011,-3.0279,-3.0482,-3.052,-3.0558,-3.0482,-3.0343,-3.0343,-3.0241,-3.0062,-3.0023,-3.0061,-3.011,-3.0136,-3.0251,-3.0598,-3.0993,-3.1419,-3.1876,-3.2332,-3.266,-3.2896,-3.3342,-3.3736,-3.4316,-3.5701,-3.7017,-3.738,-3.7404,-3.7495,-4.0156,-4.0039,-3.9557,-3.9161,-3.8902,-3.9333,-3.9471,-3.9328,-3.9212,-3.9199,-3.9036,-3.7107,-3.5537,-3.4481,-3.4675,-3.5046,-3.5426,-3.6031,-3.6587,-3.7226,-3.7495,-3.7777,-3.8066,-3.7991,-3.8014,-3.8188,-3.7725,-3.7399,-3.7112,-3.6129,-3.5459,-3.5134,-3.4493,-3.4225,-3.4327,-3.438,-3.4588,-3.4922,-3.5261,-3.5747,-3.6428,-3.611,-3.5755,-3.5441,-3.5062,-3.4723,-3.4356,-3.4327,-3.4395,-3.4433,-3.4032,-3.3647,-3.3196,-3.2274,-3.1501,0.0,0.0,0.0,0.0,0.0,0.0,0.0,0.0,0.0,0.0,0.0,-3.0701,-3.0507,-3.1091,-3.1519,-3.1673,-3.1542,-3.1371,-3.1172,-3.0947,-3.0759,-3.0596,-3.0419,-3.019,-3.0011,-2.9869,-2.9779,-2.9779,-2.9779,-2.9779,-2.9779,-3.0011,-3.0113,-3.0113,-3.0113,-3.0088,-2.9972,-2.9972,-2.9934,-2.983,-2.9779,-2.9779,-2.9779,-2.9779,-2.983,-2.9934,-3.0212,-3.0518,-3.0764,-3.1138,-3.1396,-3.1539,-3.1941,-3.2332,-3.2698,-3.3751,-3.4971,-3.5791,-3.6259,-3.6571,-3.9172,-3.9069,-3.8647,-3.8466,-3.8512,-3.8845,-3.8922,-3.876,-3.8729,-3.8379,-3.7696,-3.6267,-3.4855,-3.3641,-3.3894,-3.4243,-3.4675,-3.5304,-3.5991,-3.6652,-3.7056,-3.7495,-3.7853,-3.7715,-3.7801,-3.8075,-3.7132,-3.6713,-3.6761,-3.5404,-3.4668,-3.4604,-3.407,-3.3813,-3.3848,-3.4074,-3.4278,-3.4346,-3.4931,-3.5433,-3.5933,-3.5257,-3.4879,-3.4815,-3.4168,-3.3779,-3.373,-3.3744,-3.3744,-3.3744,-3.357,-3.3198,-3.2565,-3.1923,-3.111,0.0,-2.9686,0.0,0.0,0.0,0.0,0.0,0.0,0.0,0.0,-2.9396,-2.9778,-3.0533,-3.0892,-3.1084,-3.1071,-3.0785,-3.0622,-3.0584,-3.0419,-3.0254,-3.0075,-3.0037,-3.0011,-2.983,-2.9779,-2.9779,-2.9779,-2.9779,-2.9779,-2.9792,-2.983,-2.9818,-2.9792,-2.983,-2.983,-2.9779,-2.9779,-2.9818,-2.9792,-2.9779,-2.9779,-2.9779,-2.9779,-2.9779,-2.9792,-2.9804,-2.9804,-2.9843,-3.0035,-3.0138,-3.0037,-3.061,-3.1099,-3.1358,-3.1902,-3.266,-3.3921,-3.4753,-3.5366,-3.8485,-3.805,-3.7815,-3.7736,-3.769,-3.7585,-3.7684,-3.7991,-3.7848,-3.6975,-3.5635,-3.4926,-3.4089,-3.3253,-3.3441,-3.3768,-3.4243,-3.4908,-3.5615,-3.6387,-3.6861,-3.7264,-3.7663,-3.761,-3.7663,-3.7658,-3.6869,-3.6239,-3.5778,-3.4794,-3.4072,-3.3593,-3.348,-3.3409,-3.3423,0.0,0.0,0.0,-3.4114,-3.416,-3.4106,-3.3972,-3.3726,-3.3417,-3.3269,0.0,-3.2931,-3.2917,-3.2917,-3.2931,-3.2881,0.0,0.0,0.0,0.0,0.0,0.0,0.0,0.0,0.0,0.0,0.0,-2.8725,-2.8912,-2.8768,-2.9328,-2.9986,-3.0602,-3.0607,-3.047,-3.033,-3.0267,-3.0152,-2.9985,-2.9934,-2.9908,-2.9856,-2.9869,-2.983,-2.9792,-2.9779,-2.9779,-2.9779,-2.9779,-2.9779,-2.9779,-2.9779,-2.9779,-2.9779,-2.9779,-2.9779,-2.9779,-2.9779,-2.9779,-2.9779,-2.9779,-2.9779,-2.9779,-2.9779,-2.9779,-2.9779,-2.9779,-2.9779,-2.9779,-2.9818,-2.9869,-2.9869,-2.9996,-3.0162,-3.0356,-3.0483,-3.1113,-3.2932,-3.355,-3.4064,-3.771,-3.7407,-3.7201,-3.7108,0.0,-3.6875,-3.6875,-3.7083,-3.7095,-3.6264,-3.4881,-3.4325,-3.3739,-3.3124,-3.3197,-3.3484,-3.3937,-3.441,-3.5046,-3.5843,-3.623,-3.6665,-3.7148,-3.7046,-3.7123,-3.7275,-3.5975,-3.5274,-3.4999,-3.3688,-3.2849,-3.2561,-3.2475,-3.2426,-3.239,-3.2318,-3.2618,-3.3283,-3.3283,-3.3262,-3.3157,-3.298,-3.2753,-3.2561,-3.2367,0.0,0.0,0.0,0.0,0.0,0.0,0.0,0.0,0.0,0.0,-2.9412,-2.8777,-2.8407,-2.8291,-2.8438,-2.8453,-2.8347,-2.8707,-2.8899,-2.8915,-2.9446,-2.9922,-3.0216,-3.0164,-3.0088,-2.9972,-2.9934,-2.9895,-2.9818,-2.9779,-2.9779,-2.9779,-2.9779,-2.9779,-2.9779,-2.9779,-2.9779,-2.9779,-2.9779,-2.9779,-2.9779,-2.9779,-2.9779,-2.9779,-2.9779,-2.9779,-2.9779,-2.9779,-2.9779,-2.9779,-2.9779,-2.9779,-2.9779,-2.9779,-2.9779,-2.9779,-2.9779,-2.9779,-2.9779,-2.9779,-2.9779,-2.9779,-2.9779,-2.9818,-2.9946,-2.9934,-3.0189,-3.1332,-3.2032,-3.2802,-3.7062,-3.6968,-3.6734,-3.6675,-3.6628,-3.6452,-3.6417,-3.6392,-3.6366,0.0,0.0,-3.4048,-3.3508,-3.3136,-3.3124,-3.3326,-3.3641,-3.3949,-3.4535,-3.5277,-3.5588,-3.6031,-3.6547,-3.6457,-3.6536,-3.6727,-3.5058,-3.4251,-3.4297,-3.2526,-3.1666,-3.1629,-3.1492,-3.1418,-3.1368,-3.1368,-3.1676,-3.2273,-3.2417,-3.2475,-3.2439,-3.2128,-3.1909,-3.185,-3.1542,-3.1344,-3.1294,-3.1294,-3.1294,-3.1294,-3.1145,-3.0837,-3.0377,-3.009,-2.966,-2.905,-2.8836,-2.8677,-2.852,-2.8489,-2.8543,-2.8632,-2.89,-2.9114,-2.9302,-2.9592,-2.9779,-2.9779,-2.9779,-2.9792,-2.9779,-2.9779,-2.9779,-2.9779,-2.9779,-2.9779,-2.9779,-2.9779,-2.9779,-2.9779,-2.9779,-2.9779,-2.9779,-2.9779,-2.9779,-2.9779,-2.9779,-2.9779,-2.9779,-2.9779,-2.9779,-2.9779,-2.9779,-2.9779,-2.9779,-2.9779,-2.9779,-2.9779,-2.9779,-2.9779,-2.9779,-2.9779,-2.9779,-2.9779,-2.9779,-2.9779,-2.9779,-2.9779,-2.9779,-2.9779,-2.9779,-2.9779,-2.9855,-3.0559,-3.1604,-3.6875,-3.6499,-3.6452,-3.6452,-3.6439,-3.6405,-3.6417,-3.6329,-3.5412,-3.4876,-3.4605,-3.3633,-3.3187,-3.3124,-3.3124,-3.324,-3.3484,-3.3894,-3.4356,-3.4799,-3.5426,-3.5831,-3.6125,-3.6298,-3.6298,-3.6029,-3.4555,-3.3677,-3.3322,-3.1878,-3.1099,-3.1136,-3.1086,-3.0986,-3.0836,-3.0811,-3.0798,-3.0735,-3.1331,-3.1589,-3.1405,-3.1344,-3.1172,-3.0911,-3.0849,-3.071,-3.0545,-3.0545,-3.0545,-3.0545,-3.0508,-3.0393,-3.0126,-2.9629,-2.9212,-2.8899,-2.8483,-2.8206,-2.8195,-2.8586,-2.9038,-2.9541,-2.9667,-2.9679,-2.9705,-2.978,-2.9779,-2.9779,-2.9779,-2.9779,-2.9779,-2.9779,-2.9779,-2.9779,-2.9779,-2.9779,-2.9779,-2.9779,-2.9779,-2.9779,-2.9779,-2.9779,-2.9779,-2.9779,-2.9779,-2.9779,-2.9779,-2.9779,-2.9779,-2.9779,-2.9779,-2.9779,-2.9779,-2.9779,-2.9779,-2.9779,-2.9779,-2.9779,-2.9779,-2.9779,-2.9779,-2.9779,-2.9779,-2.9779,-2.9779,-2.9779,-2.9779,-2.9779,-2.9779,-2.9779,-2.9779,-2.9779,-2.9792,-3.0098,-3.0647,-3.6968,-3.6781,-3.664,-3.6534,-3.6546,-3.6452,-3.6417,-3.6304,-3.519,-3.468,-3.4613,-3.3558,-3.3124,-3.3124,-3.3124,-3.3197,-3.3398,-3.3611,-3.4021,-3.4564,-3.4853,-3.5263,-3.5629,-3.5683,-3.5683,-3.5575,-3.4313,-3.341,-3.287,-3.1617,-3.0804,-3.0521,-3.0432,-3.0318,-3.0203,-3.0215,-3.0164,-3.0088,-3.0621,-3.0872,-3.0759,-3.0659,-3.0545,-3.0394,-3.0279,-3.0164,-3.0075,-3.0075,-3.0075,-3.0088,-3.0088,-2.9872,-2.9492,-2.9505,-2.9328,-2.8925,-2.8988,-2.9013,-2.9026,-2.9252,-2.9503,-2.9767,-2.9779,-2.993,-3.0218,-2.9967,-2.9779,-2.9779,-2.9779,-2.9779,-2.9779,-2.9779,-2.9779,-2.9779,-2.9779,-2.9779,-2.9779,-2.9779,-2.9779,-2.9779,-2.9779,-2.9779,-2.9779,-2.9779,-2.9779,-2.9779,-2.9779,-2.9779,-2.9779,-2.9779,-2.9779,-2.9779,-2.9779,-2.9779,-2.9779,-2.9779,-2.9779,-2.9779,-2.9779,-2.9779,-2.9779,-2.9779,-2.9779,-2.9779,-2.9779,-2.9779,-2.9779,-2.9779,-2.9779,-2.9779,-2.9779,-2.9779,-2.9817,-3.0206,-3.0981,-3.7353,-3.7168,-3.6956,-3.6815,-3.6662,-3.6499,-3.6329,-3.6081,-3.514,-3.465,-3.4412,-3.3495,-3.3124,-3.3124,-3.3124,-3.3197,-3.3313,-3.3441,-3.3781,-3.423,-3.4452,-3.4867,-3.5277,-3.5195,-3.5236,-3.5169,-3.4094,-3.3245,-3.2643,-3.1481,-3.0555,-3.0061,-2.9869,-2.9779,-2.9779,-2.9779,-2.9779,-2.983,-3.0126,-3.0254,-3.0267,-3.0126,-3.0049,-3.0011,-2.9908,-2.9779,-2.9779,-2.9779,-2.9779,-2.9779,-2.9779,-2.9591,-2.9176,-2.9541,-2.9591,-2.9227,-2.9541,-2.9779,-2.9779,-2.9779,-2.9779,-2.9779,-2.9779,-3.003,-3.0495,-3.0231,-2.998,-2.9993,-2.9993,-2.9942,-2.9817,-2.9779,-2.9779,-2.9779,-2.9779,-2.9779,-2.9779,-2.9779,-2.9779,-2.9779,-2.9779,-2.9779,-2.9779,-2.9779,-2.9779,-2.9779,-2.9779,-2.9779,-2.9779,-2.9779,-2.9779,-2.9779,-2.9779,-2.9779,-2.9779,-2.9779,-2.9779,-2.9779,-2.9779,-2.9779,-2.9779,-2.9779,-2.9779,-2.9779,-2.9779,-2.9779,-2.9779,-2.9779,-2.9779,-2.9779,-2.9779,-2.9779,-2.9817,-3.0608,-3.1433,-3.8031,-3.7505,-3.7407,-3.7155,-3.6671,-3.6461,-3.6056,-3.552,-3.4919,-3.4437,-3.396,-3.3332,-3.3124,-3.3124,-3.3124,-3.3111,-3.3154,-3.3513,-3.3725,-3.3882,-3.4647,-3.5072,-3.5154,-3.5277,-3.5277,-3.5006,-3.3863,-3.3155,-3.2782,-3.1379,-3.0383,-2.9893,-2.983,-2.9779,-2.9779,-2.9779,-2.9779,-2.9779,-2.983,-2.9869,-2.9869,-2.983,-2.9818,-2.983,-2.983,-2.9779,-2.9779,-2.9779,-2.9779,-2.9779,-2.9779,-2.9767,-2.9716,-2.9754,-2.9767,-2.9704,-2.9754,-2.9779,-2.9779,-2.9779,-2.9779,-2.9779,-2.9804,-3.0043,-3.0583,-3.0583,-3.0532,-3.0532,-3.0532,-3.0294,-2.9867,-2.9779,-2.9779,-2.9779,-2.9779,-2.9779,-2.9779,-2.9779,-2.9779,-2.9779,-2.9779,-2.9779,-2.9779,-2.9779,-2.9779,-2.9779,-2.9779,-2.9779,-2.9779,-2.9779,-2.9779,-2.9779,-2.9779,-2.9779,-2.9779,-2.9779,-2.9779,-2.9779,-2.9779,-2.9779,-2.9779,-2.9779,-2.9779,-2.9779,-2.9779,-2.9779,-2.9779,-2.9779,-2.9779,-2.9779,-2.9779,-2.9779,-2.9892,-3.0645,-3.1407,-3.7624,-3.7272,-3.7082,-3.6579,-3.5973,-3.5725,-3.5415,-3.4969,-3.4474,-3.4186,-3.401,-3.351,-3.3197,-3.3124,-3.324,-3.3283,-3.3326,-3.3556,-3.3839,-3.4134,-3.4522,-3.4908,-3.5236,-3.5127,-3.5044,-3.5031,-3.4025,-3.327,-3.2698,-3.1337,-3.0495,-3.0256,-2.9967,-2.9779,-2.9779,-2.9779,-2.9779,-2.9779,-2.9779,-2.9779,-2.9779,-2.9779,-2.9779,-2.9779,-2.9779,-2.9779,-2.9779,-2.9779,-2.9779,-2.9779,-2.9779,-2.9779,-2.9779,-2.9779,-2.9779,-2.9779,-2.9779,-2.9779,-2.9779,-2.9779,-2.9779,-2.9779,-3.0105,-3.0507,-3.1009,-3.1085,-3.1072,-3.1035,-3.0783,-3.0394,-2.988,-2.9779,-2.9779,-2.9779,-2.9779,-2.9779,-2.9779,-2.9779,-2.9779,-2.9779,-2.9779,-2.9779,-2.9779,-2.9779,-2.9779,-2.9779,-2.9779,-2.9779,-2.9779,-2.9779,-2.9779,-2.9779,-2.9779,-2.9779,-2.9779,-2.9779,-2.9779,-2.9779,-2.9779,-2.9779,-2.9779,-2.9779,-2.9779,-2.9779,-2.9779,-2.9779,-2.9779,-2.9779,-2.9779,-2.9779,-2.9779,-2.9779,-2.9779,-3.0645,-3.1342,-3.7685,-3.7317,-3.6906,-3.6271,-3.5576,-3.5353,-3.5041,-3.4685,-3.425,-3.4116,-3.4142,-3.3734,-3.3526,-3.3496,-3.3569,-3.3611,-3.3641,-3.3937,-3.4272,-3.4605,-3.4729,-3.5005,-3.544,-3.5072,-3.4921,-3.4853,-3.4092,-3.3334,-3.2663,-3.1461,-3.0758,-3.0557,-3.0068,-2.9779,-2.9779,-2.9779,-2.9779,-2.9779,-2.9779,-2.9779,-2.9779,-2.9779,-2.9779,-2.9779,-2.9779,-2.9779,-2.9779,-2.9779,-2.9779,-2.9779,-2.9779,-2.9779,-2.9779,-2.9779,-2.9779,-2.9779,-2.9779,-2.9779,-2.9779,-2.9779,-2.9779,-2.9842,-3.0306,-3.0771,-3.111,-3.1311,-3.1311,-3.1135,-3.0834,-3.0382,-2.988,-2.9779,-2.9779,-2.9779,-2.9779,-2.9779,-2.9779,-2.9779,-2.9779,-2.9779,-2.9779,-2.9779,-2.9779,-2.9779,-2.9779,-2.9779,-2.9779,-2.9779,-2.9779,-2.9779,-2.9779,-2.9779,-2.9779,-2.9779,-2.9779,-2.9779,-2.9779,-2.9779,-2.9779,-2.9779,-2.9779,-2.9779,-2.9779,-2.9779,-2.9779,-2.9779,-2.9779,-2.9779,-2.9779,-2.9779,-2.9779,-2.9779,-2.9779,-3.0683,-3.1235,-3.8641,-3.7951,-3.7064,-3.6409,-3.6035,-3.5732,-3.5228,-3.4579,-3.4541,-3.4375,-3.4192,-3.4102,-3.416,-3.4369,-3.4243,-3.4118,-3.416,-3.4701,-3.5031,-3.5113,-3.544,-3.5629,-3.5642,-3.5277,-3.499,-3.4716,-3.405,-3.3246,-3.2311,-3.1691,-3.1097,-3.062,-3.0105,-2.9804,-2.9792,-2.9779,-2.9779,-2.9779,-2.9779,-2.9779,-2.9779,-2.9779,-2.9779,-2.9779,-2.9779,-2.9779,-2.9779,-2.9779,-2.9779,-2.9779,-2.9779,-2.9779,-2.9779,-2.9779,-2.9779,-2.9779,-2.9779,-2.9779,-2.9779,-2.9779,-2.9804,-2.9892,-3.0369,-3.0658,-3.0809,-3.116,-3.1185,-3.0721,-3.062,-3.0331,-2.9892,-2.9779,-2.9779,-2.9779,-2.9779,-2.9779,-2.9779,-2.9779,-2.9779,-2.9779,-2.9779,-2.9779,-2.9779,-2.9779,-2.9779,-2.9779,-2.9779,-2.9779,-2.9779,-2.9779,-2.9779,-2.9779,-2.9779,-2.9779,-2.9779,-2.9779,-2.9779,-2.9779,-2.9779,-2.9779,-2.9779,-2.9779,-2.9779,-2.9779,-2.9779,-2.9779,-2.9779,-2.9779,-2.9779,-2.9779,-2.9779,-2.9779,-2.9779,-3.0683,-3.1223,-3.7851,-3.736,-3.6728,-3.6115,-3.5628,-3.5405,-3.4992,-3.4513,-3.4458,-3.4607,-3.4728,-3.4743,-3.4908,-3.5223,-3.544,-3.5237,-3.4825,-3.5277,-3.5575,-3.5669,-3.5831,-3.5924,-3.5912,-3.5494,-3.5059,-3.4647,-3.3995,-3.3369,-3.2772,-3.219,-3.165,-3.111,-3.0583,-3.0156,-2.9854,-2.9779,-2.9779,-2.9779,-2.9779,-2.9779,-2.9779,-2.9779,-2.9779,-2.9779,-2.9779,-2.9779,-2.9779,-2.9779,-2.9779,-2.9779,-2.9779,-2.9779,-2.9779,-2.9779,-2.9779,-2.9779,-2.9779,-2.9779,-2.9779,-2.9779,-2.9955,-3.0319,-3.0809,-3.1072,-3.1135,-3.126,-3.1173,-3.0683,-3.0256,-2.998,-2.9867,-2.9779,-2.9779,-2.9779,-2.9779,-2.9779,-2.9779,-2.9779,-2.9779,-2.9779,-2.9779,-2.9779,-2.9779,-2.9779,-2.9779,-2.9779,-2.9779,-2.9779,-2.9779,-2.9779,-2.9779,-2.9779,-2.9779,-2.9779,-2.9779,-2.9779,-2.9779,-2.9779,-2.9779,-2.9779,-2.9779,-2.9779,-2.9779,-2.9779,-2.9779,-2.9779,-2.9779,-2.9779,-2.9779,-2.9779,-2.9779,-2.9779,-2.9779,-3.0595,-3.1047,-3.7495,-3.7187,-3.6808,-3.6243,-3.5696,-3.5535,-3.525,-3.4853,-3.4812,-3.5018,-3.5358,-3.5467,-3.571,-3.6071,-3.6441,-3.6362,-3.5884,-3.6111,-3.6284,-3.6389,-3.635,-3.6324,-3.6258,-3.5764,-3.5277,-3.4758,-3.3979,-3.3441,-3.3048,-3.2491,-3.2026,-3.1637,-3.0984,-3.0432,-3.0093,-2.988,-2.9779,-2.9779,-2.9779,-2.9779,-2.9779,-2.9779,-2.9779,-2.9779,-2.9779,-2.9779,-2.9779,-2.9779,-2.9779,-2.9779,-2.9779,-2.9779,-2.9779,-2.9779,-2.9779,-2.9779,-2.9779,-2.9779,-2.9779,-2.9779,-2.9955,-3.0319,-3.0809,-3.1097,-3.0922,-3.1035,-3.0859,-3.0419,-3.0055,-2.9779,-2.9779,-2.9779,-2.9779,-2.9779,-2.9779,-2.9779,-2.9779,-2.9779,-2.9779,-2.9779,-2.9779,-2.9779,-2.9779,-2.9779,-2.9779,-2.9779,-2.9779,-2.9779,-2.9779,-2.9779,-2.9779,-2.9779,-2.9779,-2.9779,-2.9779,-2.9779,-2.9779,-2.9779,-2.9779,-2.9779,-2.9779,-2.9779,-2.9779,-2.9779,-2.9779,-2.9779,-2.9779,-2.9779,-2.9779,-2.9779,-2.9779,-2.9779,-3.0043,-3.0432,-3.0922,-3.7777,-3.7586,-3.7394,-3.6886,-3.6348,-3.6308,-3.6084,-3.575,-3.571,-3.5831,-3.6071,-3.6189,-3.6441,-3.6744,-3.7095,-3.7264,-3.7187,-3.7211,-3.7211,-3.7187,-3.707,-3.6954,-3.6861,-3.6111,-3.5426,-3.4936,-3.3937,-3.3313,-3.3086,-3.2566,-3.2252,-3.2001,-3.1223,-3.0721,-3.0595,-3.0105,-2.9829,-2.9792,-2.9779,-2.9779,-2.9779,-2.9779,-2.9779,-2.9779,-2.9779,-2.9779,-2.9779,-2.9779,-2.9779,-2.9779,-2.9779,-2.9779,-2.9779,-2.9779,-2.9779,-2.9779,-2.9779,-2.9779,-2.9779,-2.9779,-2.9804,-3.003,-3.0369,-3.052,-3.0256,-3.0444,-3.047,-3.0005,-2.9829,-2.9779,-2.9779,-2.9779,-2.9779,-2.9779,-2.9779,-2.9779,-2.9779,-2.9779,-2.9779,-2.9779,-2.9779,-2.9779,-2.9779,-2.9779,-2.9779,-2.9779,-2.9779,-2.9779,-2.9779,-2.9779,-2.9779,-2.9779,-2.9779,-2.9779,-2.9779,-2.9779,-2.9779,-2.9779,-2.9779,-2.9779,-2.9779,-2.9779,-2.9779,-2.9779,-2.9779,-2.9779,-2.9779,-2.9779,-2.9779,-2.9779,-2.9779,-2.9792,-3.003,-3.0369,-3.0959,-3.7991,-3.7815,-3.7739,-3.7457,-3.7003,-3.7003,-3.6822,-3.6587,-3.6587,-3.6719,-3.6875,-3.6978,-3.7095,-3.7341,-3.761,-3.7739,-3.7739,-3.7839,-3.7749,-3.7548,-3.7457,-3.7264,-3.694,-3.6401,-3.5602,-3.4647,-3.3937,-3.3513,-3.3275,-3.2965,-3.2616,-3.219,-3.1888,-3.1323,-3.0683,-3.0432,-3.0206,-2.9817,-2.9779,-2.9779,-2.9779,-2.9779,-2.9779,-2.9779,-2.9779,-2.9779,-2.9779,-2.9779,-2.9779,-2.9779,-2.9779,-2.9779,-2.9779,-2.9779,-2.9779,-2.9779,-2.9779,-2.9779,-2.9779,-2.9804,-2.9955,-3.0269,-3.0532,-3.0532,-3.0394,-3.052,-3.0394,-2.9917,-2.9792,-2.9779,-2.9779,-2.9779,-2.9842,-2.9792,-2.9779,-2.9779,-2.9779,-2.9779,-2.9779,-2.9779,-2.9779,-2.9779,-2.9779,-2.9779,-2.9792,-2.983,-2.983,-2.983,-2.983,-2.9818,-2.9779,-2.9779,-2.9779,-2.9779,-2.9779,-2.9779,-2.9779,-2.9779,-2.9779,-2.9779,-2.9779,-2.9779,-2.9779,-2.9779,-2.9779,-2.9779,-2.9779,-2.9779,-2.9779,-2.9779,-2.9779,-2.9817,-2.988,-3.0331,-3.1009,-3.8142,-3.7991,-3.8066,-3.7967,-3.7649,-3.7725,-3.7634,-3.7481,-3.7443,-3.7519,-3.7649,-3.7725,-3.7839,-3.7953,-3.8142,-3.8217,-3.8254,-3.8277,-3.8179,-3.7929,-3.7777,-3.7572,-3.7211,-3.6598,-3.5763,-3.4771,-3.4105,-3.3696,-3.3398,-3.3185,-3.288,-3.2566,-3.2328,-3.1901,-3.1223,-3.0972,-3.0633,-3.0168,-3.0105,-3.0005,-2.9829,-2.9779,-2.9779,-2.9779,-2.9779,-2.9779,-2.9779,-2.9779,-2.9779,-2.9779,-2.9779,-2.9779,-2.9779,-2.9779,-2.9779,-2.9779,-2.9779,-2.9779,-2.9779,-2.9792,-2.9917,-3.0269,-3.0495,-3.0568,-3.0645,-3.0733,-3.0708,-3.047,-3.0419,-3.0382,-3.0394,-3.0407,-3.0382,-3.0394,-3.0005,-2.9817,-2.9779,-2.9779,-2.9779,-2.9779,-2.9779,-2.9779,-2.9779,-2.9779,-2.983,-2.9869,-2.9908,-2.9972,-2.9972,-2.996,-2.9934,-2.9856,-2.9818,-2.9818,-2.9779,-2.9779,-2.9779,-2.9779,-2.9779,-2.9779,-2.9779,-2.9779,-2.9779,-2.9779,-2.9779,-2.9779,-2.9779,-2.9779,-2.9779,-2.9779,-2.9905,-2.9955,-3.0118,-3.062,-3.1235,-3.8202,-3.824,-3.8404,-3.8366,-3.8202,-3.8366,-3.8352,-3.8254,-3.8202,-3.8202,-3.824,-3.8352,-3.8478,-3.8516,-3.8612,-3.8708,-3.8745,-3.859,-3.8516,-3.8366,-3.8156,-3.7929,-3.7649,-3.6847,-3.6004,-3.5182,-3.4494,-3.3949,-3.3526,-3.3283,-3.3124,-3.3011,-3.2596,-3.2269,-3.2043,-3.1691,-3.1266,-3.084,-3.0698,-3.0459,-3.0044,-2.9955,-2.9955,-2.998,-2.9993,-3.0005,-3.0043,-3.0055,-2.993,-2.9804,-2.9792,-2.9829,-2.9854,-2.9842,-2.9892,-2.9993,-2.9905,-2.998,-2.993,-3.0055,-3.0043,-3.0156,-3.052,-3.0658,-3.0771,-3.1072,-3.126,-3.121,-3.1223,-3.1286,-3.126,-3.1248,-3.126,-3.1235,-3.0557,-3.0093,-2.9917,-2.9917,-2.993,-2.9892,-2.9829,-2.9779,-2.9779,-2.983,-2.9895,-2.9998,-3.0126,-3.0228,-3.0267,-3.0228,-3.0113,-3.0049,-2.9934,-2.9856,-2.983,-2.9779,-2.9779,-2.9779,-2.9779,-2.9792,-2.9792,-2.9792,-2.9779,-2.9779,-2.9942,-2.9892,-2.9942,-3.0055,-3.0143,-3.0256,-3.0294,-3.0244,-3.0532,-3.106,-3.1474,-3.8202,-3.824,-3.8404,-3.8478,-3.8441,-3.8649,-3.8701,-3.8649,-3.8664,-3.8752,-3.8679,-3.8723,-3.8797,-3.8738,-3.8826,-3.8782,-3.887,-3.8819,-3.8723,-3.8723,-3.8649,-3.8202,-3.7687,-3.7095,-3.6455,-3.575,-3.5072,-3.4535,-3.392,-3.3526,-3.3283,-3.3124,-3.3119,-3.29,-3.2545,-3.2492,-3.2204,-3.1745,-3.1561,-3.1417,-3.1265,-3.1055,-3.0959,-3.0959,-3.0934,-3.0934,-3.0959,-3.0972,-3.0557,-2.9842,-2.9779,-2.9993,-3.0357,-3.0407,-3.0532,-3.0821,-3.0922,-3.0947,-3.0934,-3.0922,-3.0934,-3.0972,-3.1072,-3.1185,-3.1185,-3.1298,-3.1386,-3.1386,-3.1386,-3.1424,-3.1411,-3.1436,-3.1424,-3.1361,-3.1148,-3.0947,-3.0834,-3.0633,-3.0407,-3.0369,-3.0055,-2.9867,-2.9881,-2.9946,-3.0049,-3.0152,-3.0343,-3.0533,-3.0558,-3.0533,-3.047,-3.0203,-3.0049,-2.9946,-2.9869,-2.983,-2.9779,-2.9779,-2.9792,-2.9792,-2.9804,-2.9829,-2.9804,-2.9779,-3.0294,-3.0407,-3.057,-3.0721,-3.0771,-3.0733,-3.0846,-3.0884,-3.116,-3.1587,-3.1863,-3.9053,-3.9182,-3.9373,-3.9524,-3.9614,-3.9795,-3.9869,-3.9884,-3.9869,-3.9884,-3.9884,-3.9884,-3.9884,-3.9884,-3.9884,-3.9884,-3.9884,-3.9809,-3.9639,-3.9262,-3.8966,-3.8478,-3.7863,-3.7366,-3.6783,-3.6097,-3.544,-3.4784,-3.4243,-3.3768,-3.3471,-3.3441,-3.3569,-3.3517,-3.3303,-3.3434,-3.3286,-3.2793,-3.2515,-3.2303,-3.206,-3.1724,-3.159,-3.1508,-3.1468,-3.1386,-3.1373,-3.1373,-3.106,-3.0595,-3.0482,-3.0608,-3.0884,-3.0947,-3.1085,-3.1373,-3.1386,-3.1373,-3.1386,-3.1386,-3.1386,-3.1436,-3.1562,-3.1712,-3.18,-3.1926,-3.2143,-3.2127,-3.2102,-3.2102,-3.2102,-3.2102,-3.2089,-3.2139,-3.2089,-3.1913,-3.1486,-3.111,-3.0959,-3.0821,-3.0495,-3.0143,-3.0131,-3.0136,-3.0203,-3.0394,-3.0609,-3.0798,-3.0949,-3.0887,-3.0736,-3.047,-3.0164,-3.0011,-2.9895,-2.9856,-2.9983,-2.9983,-3.0099,-3.0035,-3.0136,-3.0135,-3.0145,-3.0283,-3.0698,-3.0972,-3.115,-3.1226,-3.1148,-3.1185,-3.1361,-3.1562,-3.1775,-3.1964,-3.224,-4.0275,-4.0515,-4.0733,-4.0941,-4.1035,-4.1293,-4.1235,-4.1339,-4.125,-4.1227,-4.1265,-4.1339,-4.1152,-4.1422,-4.1092,-4.1324,-4.1309,-4.0986,-4.0695,-4.0159,-3.958,-3.9031,-3.8722,-3.7849,-3.7134,-3.6441,-3.5629,-3.5059,-3.4605,-3.4105,-3.3839,-3.3852,-3.4076,-3.4202,-3.4223,-3.4387,-3.4275,-3.3881,-3.3573,-3.3309,-3.2929,-3.2513,-3.2294,-3.224,-3.1981,-3.1833,-3.1754,-3.1662,-3.1599,-3.1574,-3.1474,-3.1361,-3.1424,-3.1474,-3.1562,-3.1662,-3.1738,-3.1712,-3.1625,-3.1725,-3.165,-3.1775,-3.2114,-3.229,-3.2365,-3.2654,-3.2923,-3.2898,-3.3111,-3.2973,-3.296,-3.3036,-3.2973,-3.291,-3.2968,-3.2583,-3.1905,-3.1512,-3.1461,-3.1436,-3.1009,-3.0746,-3.0649,-3.0542,-3.0535,-3.1242,-3.1406,-3.1514,-3.1497,-3.1316,-3.1052,-3.0736,-3.0419,-3.0126,-3.0011,-2.9895,-3.0086,-3.0239,-3.047,-3.0573,-3.0738,-3.0761,-3.0756,-3.0929,-3.136,-3.1587,-3.1647,-3.1631,-3.1666,-3.1804,-3.2055,-3.2102,-3.219,-3.234,-3.2566,-4.0422,-4.0515,-4.0902,-4.1056,-4.1133,-4.1308,-4.1452,-4.1429,-4.1467,-4.1504,-4.1452,-4.1452,-4.1482,-4.1482,-4.1504,-4.1422,-4.1527,-4.1436,-4.1227,-4.1114,-4.0806,-4.0588,-4.0094,-3.8859,-3.773,-3.7084,-3.6362,-3.5763,-3.5223,-3.4758,-3.4384,-3.4314,-3.4688,-3.4867,-3.4949,-3.525,-3.5399,-3.5211,-3.4846,-3.4603,-3.4361,-3.3803,-3.3472,-3.3444,-3.308,-3.2878,-3.2747,-3.2717,-3.2717,-3.2503,-3.1964,-3.1687,-3.1964,-3.2039,-3.2202,-3.2503,-3.2629,-3.2709,-3.2734,-3.2659,-3.2692,-3.2671,-3.2692,-3.2893,-3.2893,-3.2968,-3.3124,-3.3124,-3.3124,-3.3124,-3.3124,-3.3124,-3.3124,-3.3124,-3.3111,-3.3036,-3.2692,-3.229,-3.2064,-3.1926,-3.1628,-3.1317,-3.1519,-3.1752,-3.1862,-3.2202,-3.2315,-3.2379,-3.2166,-3.1891,-3.1561,-3.1258,-3.0811,-3.0508,-3.0318,-3.0343,-3.0663,-3.0945,-3.1203,-3.1643,-3.1772,-3.1641,-3.1742,-3.1902,-3.2123,-3.2219,-3.2288,-3.2424,-3.2546,-3.2634,-3.2634,-3.2629,-3.2667,-3.278,-3.278,-4.1607,-4.1656,-4.1907,-4.204,-4.2142,-4.2273,-4.2297,-4.2297,-4.2297,-4.2297,-4.2297,-4.2297,-4.2297,-4.2297,-4.2297,-4.2312,-4.2207,-4.1953,-4.1871,-4.1758,-4.1449,-4.1194,-4.1035,-4.0085,-3.9077,-3.8125,-3.7361,-3.6626,-3.5925,-3.5494,-3.5209,-3.5059,-3.5467,-3.5642,-3.5736,-3.6071,-3.623,-3.6084,-3.5817,-3.5615,-3.5426,-3.4908,-3.4327,-3.4118,-3.3738,-3.3441,-3.3245,-3.3129,-3.3111,-3.2973,-3.2558,-3.229,-3.2541,-3.2616,-3.2792,-3.3036,-3.3124,-3.3124,-3.3111,-3.3124,-3.3086,-3.3124,-3.3124,-3.3124,-3.3124,-3.3124,-3.3124,-3.3124,-3.3124,-3.3124,-3.3124,-3.3124,-3.3124,-3.3124,-3.3124,-3.3124,-3.3074,-3.2805,-3.2659,-3.263,-3.2294,-3.2247,-3.2378,-3.2652,-3.287,-3.3038,-3.3244,-3.332,-3.3233,-3.2904,-3.2321,-3.1885,-3.1331,-3.095,-3.0725,-3.0854,-3.1357,-3.1797,-3.2239,-3.2919,-3.3435,-3.3172,-3.283,-3.2914,-3.2937,-3.294,-3.3005,-3.3177,-3.3124,-3.2998,-3.2948,-3.3074,-3.3099,-3.2998,-3.2986,-4.2835,-4.2996,-4.3036,-4.3155,-4.3305,-4.326,-4.3215,-4.3245,-4.3305,-4.3125,-4.329,-4.3305,-4.3095,-4.3245,-4.32,-4.3275,-4.311,-4.2821,-4.2506,-4.2447,-4.2087,-4.1822,-4.1617,-4.1329,-4.0704,-3.9392,-3.8475,-3.7594,-3.6877,-3.6338,-3.6111,-3.5991,-3.6243,-3.6401,-3.6559,-3.6822,-3.6993,-3.6783,-3.6559,-3.6362,-3.6151,-3.5629,-3.5018,-3.441,-3.4063,-3.3768,-3.3471,-3.327,-3.3154,-3.3124,-3.3124,-3.3124,-3.3124,-3.3124,-3.3124,-3.3124,-3.3124,-3.3124,-3.3124,-3.3124,-3.3124,-3.3124,-3.3124,-3.3124,-3.3124,-3.3124,-3.3124,-3.3124,-3.3124,-3.321,-3.3167,-3.324,-3.324,-3.3197,-3.3197,-3.3167,-3.321,-3.3167,-3.3177,-3.3242,-3.3106,-3.3101,-3.3275,-3.3524,-3.3675,-3.388,-3.4097,-3.4246,-3.4172,-3.3875,-3.3236,-3.2836,-3.2382,-3.2137,-3.1948,-3.1949,-3.2366,-3.2941,-3.344,-3.4077,-3.4826,-3.4684,-3.43,-3.3747,-3.369,-3.3617,-3.3424,-3.333,-3.324,-3.3167,-3.3124,-3.3124,-3.3124,-3.3124,-3.3124,-4.2996,-4.3036,-4.317,-4.3265,-4.3305,-4.3305,-4.3305,-4.3305,-4.3305,-4.3305,-4.3305,-4.3305,-4.3305,-4.3305,-4.3305,-4.3305,-4.323,-4.3105,-4.309,-4.309,-4.288,-4.2772,-4.2688,-4.2495,-4.213,-4.1297,-4.0028,-3.8831,-3.814,-3.7508,-3.7217,-3.6945,-3.7116,-3.7286,-3.7353,-3.7394,-3.7581,-3.7479,-3.7215,-3.7056,-3.6861,-3.6362,-3.5723,-3.5018,-3.4675,-3.4259,-3.3768,-3.3471,-3.327,-3.3111,-3.3124,-3.3124,-3.3149,-3.3149,-3.3174,-3.3124,-3.3124,-3.3167,-3.3124,-3.3111,-3.3124,-3.3124,-3.3124,-3.3124,-3.3124,-3.3124,-3.3124,-3.3197,-3.3283,-3.3356,-3.3356,-3.3513,-3.3586,-3.3543,-3.3471,-3.3428,-3.3526,-3.3526,-3.3484,-3.3628,-3.3736,-3.3994,-3.4252,-3.4539,-3.486,-3.5065,-3.5281,-3.5303,-3.5231,-3.4771,-3.4145,-3.381,-3.3553,-3.3436,-3.3321,-3.3386,-3.365,-3.4335,-3.4867,-3.5272,-3.5815,-3.6038,-3.5735,-3.4914,-3.4299,-3.4014,-3.3797,-3.3484,-3.3326,-3.3197,-3.3167,-3.3124,-3.3154,-3.3197,-3.3124,-4.317,-4.3155,-4.3265,-4.3305,-4.3305,-4.3305,-4.3305,-4.3305,-4.3305,-4.3305,-4.3305,-4.3305,-4.3305,-4.3305,-4.3305,-4.3305,-4.3305,-4.3305,-4.3305,-4.3305,-4.3305,-4.3305,-4.3305,-4.321,-4.3006,-4.2436,-4.1414,-4.0319,-3.9629,-3.9198,-3.8759,-3.8753,-3.8855,-3.8933,-3.8769,-3.8683,-3.8486,-3.8299,-3.7877,-3.7615,-3.7485,-3.7031,-3.6468,-3.5857,-3.5399,-3.4881,-3.4301,-3.3768,-3.3484,-3.3283,-3.3167,-3.3124,-3.3255,-3.3449,-3.3568,-3.3255,-3.3248,-3.3265,-3.3253,-3.324,-3.327,-3.324,-3.3192,-3.3124,-3.3124,-3.3124,-3.3217,-3.3351,-3.3611,-3.3781,-3.3781,-3.4004,-3.3979,-3.3894,-3.3823,-3.3865,-3.3894,-3.3894,-3.4021,-3.4189,-3.4345,-3.4719,-3.5278,-3.5628,-3.6056,-3.6344,-3.6451,-3.6378,-3.6217,-3.5725,-3.51,-3.4816,-3.4583,-3.4421,-3.4437,-3.4626,-3.4796,-3.5502,-3.6025,-3.6448,-3.6562,-3.6624,-3.627,-3.5655,-3.5087,-3.4481,-3.3894,-3.3526,-3.3398,-3.3283,-3.3283,-3.327,-3.327,-3.3227,-3.324,-4.3305,-4.3305,-4.3305,-4.3305,-4.3305,-4.3305,-4.3305,-4.3305,-4.3305,-4.3305,-4.3305,-4.3305,-4.3305,-4.3305,-4.3305,-4.3305,-4.3305,-4.3305,-4.3305,-4.3305,-4.3305,-4.3305,-4.3305,-4.3305,-4.326,-4.3086,-4.2712,-4.1974,-4.0969,-4.049,-4.0442,-4.0183,-4.0427,-4.0485,-4.0178,-3.9823,-3.9561,-3.9257,-3.8827,-3.8395,-3.8174,-3.7943,-3.7565,-3.6946,-3.648,-3.5994,-3.5442,-3.4796,-3.4328,-3.4071,-3.383,-3.3631,-3.37,-3.4172,-3.4241,-3.3786,-3.3784,-3.3814,-3.3865,-3.3903,-3.3992,-3.3888,-3.3631,-3.3532,-3.3514,-3.367,-3.3712,-3.39,-3.4336,-3.4741,-3.4878,-3.4798,-3.4829,-3.4706,-3.4557,-3.441,-3.4522,-3.4647,-3.4895,-3.5018,-3.5046,-3.5413,-3.5977,-3.6336,-3.6691,-3.69,-3.7017,-3.7031,-3.688,-3.6711,-3.6234,-3.5868,-3.5565,-3.5357,-3.5426,-3.5781,-3.5952,-3.6388,-3.682,-3.7161,-3.7116,-3.7056,-3.6587,-3.6151,-3.5507,-3.4881,-3.4217,-3.3683,-3.3611,-3.3526,-3.3471,-3.3471,-3.3471,-3.3428,-3.3428,-4.3305,-4.3305,-4.3305,-4.3305,-4.3305,-4.3305,-4.3305,-4.3305,-4.3305,-4.3305,-4.3305,-4.3305,-4.3305,-4.3305,-4.3305,-4.3305,-4.3305,-4.3305,-4.3305,-4.3305,-4.3305,-4.3305,-4.3305,-4.3305,-4.3305,-4.329,-4.3185,-4.2733,-4.1961,-4.1388,-4.1045,-4.0934,-4.0993,-4.0831,-4.0945,-4.0748,-4.0669,-4.0562,-4.0421,-4.0217,-4.0047,-3.9838,-3.9441,-3.8951,-3.8373,-3.7676,-3.697,-3.6266,-3.5774,-3.5391,-3.5236,-3.5199,-3.525,-3.5276,-3.5447,-3.5414,-3.5357,-3.5269,-3.5223,-3.5076,-3.5032,-3.4831,-3.4743,-3.4723,-3.454,-3.466,-3.4926,-3.5489,-3.5905,-3.6188,-3.6298,-3.6366,-3.6329,-3.6073,-3.5734,-3.5574,-3.5494,-3.5372,-3.5629,-3.5937,-3.6044,-3.6256,-3.6679,-3.6993,-3.7264,-3.7457,-3.7572,-3.7534,-3.7467,-3.7244,-3.7082,-3.6672,-3.6515,-3.628,-3.6248,-3.6606,-3.6844,-3.7187,-3.7453,-3.7725,-3.7534,-3.7303,-3.7017,-3.6547,-3.5897,-3.5345,-3.4771,-3.4314,-3.3979,-3.3852,-3.3839,-3.3755,-3.367,-3.367,-3.3755,-4.3305,-4.3305,-4.3305,-4.3305,-4.3305,-4.3305,-4.3305,-4.3305,-4.3305,-4.3305,-4.3305,-4.3305,-4.3305,-4.3305,-4.3305,-4.3305,-4.3305,-4.3305,-4.3305,-4.3305,-4.3305,-4.3305,-4.3305,-4.3305,-4.3305,-4.3305,-4.329,-4.3185,-4.2663,-4.2514,-4.2296,-4.2158,-4.2173,-4.2238,-4.1868,-4.1661,-4.1464,-4.1238,-4.0978,-4.0733,-4.0694,-4.0593,-4.0358,-3.9949,-3.9389,-3.8779,-3.8103,-3.7304,-3.6688,-3.6254,-3.5859,-3.5683,-3.5862,-3.6176,-3.665,-3.6885,-3.7422,-3.7118,-3.6271,-3.6043,-3.5906,-3.569,-3.5525,-3.5213,-3.522,-3.5525,-3.588,-3.6153,-3.6718,-3.7216,-3.7626,-3.7689,-3.7703,-3.751,-3.7043,-3.6837,-3.6643,-3.6299,-3.635,-3.6691,-3.7099,-3.7317,-3.7494,-3.7699,-3.782,-3.7787,-3.7877,-3.7839,-3.7725,-3.7553,-3.7448,-3.7372,-3.7266,-3.7238,-3.7205,-3.7367,-3.7401,-3.7648,-3.7785,-3.7953,-3.7777,-3.7534,-3.7303,-3.694,-3.6362,-3.5817,-3.5345,-3.4853,-3.4481,-3.4343,-3.4246,-3.4259,-3.4259,-3.4246,-3.4301,-4.3305,-4.3305,-4.3305,-4.3305,-4.3305,-4.3305,-4.3305,-4.3305,-4.3305,-4.3305,-4.3305,-4.3305,-4.3305,-4.3305,-4.3305,-4.3305,-4.3305,-4.3305,-4.3305,-4.3305,-4.3305,-4.3305,-4.3305,-4.3305,-4.3305,-4.3305,-4.3305,-4.326,-4.3275,-4.3215,-4.3155,-4.3305,-4.3056,-4.3091,-4.2952,-4.2629,-4.2283,-4.212,-4.1779,-4.1587,-4.1542,-4.1449,-4.1254,-4.0869,-4.0371,-3.9817,-3.92,-3.8487,-3.786,-3.7511,-3.71,-3.699,-3.7074,-3.7546,-3.8029,-3.8317,-3.8895,-3.883,-3.7923,-3.7403,-3.6933,-3.6668,-3.6389,-3.6277,-3.627,-3.6523,-3.6933,-3.7316,-3.7971,-3.8443,-3.8755,-3.9033,-3.9031,-3.882,-3.8455,-3.8245,-3.798,-3.7686,-3.7599,-3.8071,-3.8375,-3.8402,-3.8509,-3.8496,-3.8447,-3.8266,-3.8165,-3.8185,-3.8063,-3.7945,-3.7859,-3.7835,-3.7806,-3.7792,-3.7801,-3.7877,-3.7967,-3.8005,-3.8142,-3.8127,-3.7953,-3.7815,-3.7572,-3.7173,-3.6794,-3.6573,-3.6256,-3.5575,-3.4977,-3.4964,-3.4922,-3.4977,-3.4977,-3.4964,-3.4922,-4.3305,-4.3305,-4.3305,-4.3305,-4.3305,-4.3305,-4.3305,-4.3305,-4.3305,-4.3305,-4.3305,-4.3305,-4.3305,-4.3305,-4.3305,-4.3305,-4.3305,-4.3305,-4.3305,-4.3305,-4.3305,-4.3305,-4.3305,-4.3305,-4.3305,-4.3305,-4.3305,-4.3305,-4.3305,-4.3305,-4.3305,-4.3305,-4.3305,-4.329,-4.322,-4.3076,-4.3001,-4.2947,-4.2783,-4.2867,-4.2812,-4.2748,-4.2564,-4.2342,-4.1995,-4.1614,-4.1155,-4.0251,-3.9666,-3.9376,-3.8942,-3.8722,-3.8695,-3.8905,-3.9251,-3.9598,-3.9871,-3.9946,-3.9652,-3.8989,-3.8586,-3.8326,-3.7943,-3.7546,-3.7552,-3.8124,-3.855,-3.8864,-3.9355,-3.9939,-4.0224,-4.042,-4.0274,-4.0128,-3.9745,-3.9418,-3.9233,-3.909,-3.9139,-3.951,-3.9528,-3.9347,-3.9328,-3.9305,-3.9088,-3.8884,-3.8768,-3.8759,-3.8629,-3.8514,-3.835,-3.8263,-3.822,-3.8176,-3.8142,-3.8142,-3.8104,-3.8104,-3.8165,-3.8202,-3.8165,-3.7991,-3.7853,-3.7649,-3.7327,-3.725,-3.7152,-3.6649,-3.617,-3.5778,-3.5629,-3.571,-3.571,-3.5696,-3.5696,-4.3305,-4.3305,-4.3305,-4.3305,-4.3305,-4.3305,-4.3305,-4.3305,-4.3305,-4.3305,-4.3305,-4.3305,-4.3305,-4.3305,-4.3305,-4.3305,-4.3305,-4.3305,-4.3305,-4.3305,-4.3305,-4.3305,-4.3305,-4.3305,-4.3305,-4.3305,-4.3305,-4.3305,-4.3305,-4.3305,-4.3305,-4.3305,-4.3364,-4.3305,-4.3305,-4.3305,-4.3305,-4.3305,-4.3305,-4.3305,-4.3305,-4.3235,-4.3076,-4.2875,-4.2459,-4.209,-4.1688,-4.1085,-4.0716,-4.043,-4.0112,-3.9982,-3.9938,-4.0039,-4.0243,-4.0545,-4.0688,-4.0915,-4.0915,-4.0199,-3.9469,-3.9069,-3.8832,-3.8742,-3.8756,-3.9158,-3.9543,-3.9954,-4.0402,-4.083,-4.1183,-4.1264,-4.1245,-4.1239,-4.1006,-4.0576,-4.0374,-4.0219,-4.0089,-4.0267,-4.009,-3.988,-3.9934,-4.0017,-3.977,-3.9523,-3.9421,-3.932,-3.9189,-3.9117,-3.8971,-3.8841,-3.8812,-3.8522,-3.842,-3.8333,-3.8231,-3.8202,-3.8202,-3.8275,-3.8304,-3.8179,-3.8028,-3.7929,-3.7973,-3.7977,-3.7926,-3.7724,-3.7366,-3.6882,-3.6649,-3.6522,-3.6508,-3.651,-3.6389,-4.3305,-4.3305,-4.3305,-4.3305,-4.3305,-4.3305,-4.3305,-4.3305,-4.3305,-4.3305,-4.3305,-4.3305,-4.3305,-4.3305,-4.3305,-4.3305,-4.3305,-4.3305,-4.3305,-4.3305,-4.3305,-4.3305,-4.3305,-4.3305,-4.3305,-4.3305,-4.3305,-4.3305,-4.3305,-4.3305,-4.3454,-4.3574,-4.3589,-4.3544,-4.3305,-4.3305,-4.3305,-4.3305,-4.3305,-4.3305,-4.3305,-4.329,-4.3195,-4.2996,-4.2729,-4.2485,-4.2158,-4.1646,-4.1311,-4.1071,-4.0845,-4.0659,-4.0674,-4.0802,-4.1029,-4.1198,-4.1367,-4.1507,-4.1339,-4.0816,-4.0112,-3.9719,-3.9733,-3.9645,-3.9733,-4.0025,-4.0315,-4.0474,-4.0916,-4.1339,-4.1702,-4.1672,-4.1755,-4.1693,-4.1618,-4.1273,-4.1256,-4.11,-4.0966,-4.0905,-4.08,-4.0829,-4.0858,-4.0902,-4.0408,-4.0104,-3.9784,-3.9741,-3.9741,-3.9697,-3.9683,-3.9552,-3.945,-3.9073,-3.8681,-3.8696,-3.8652,-3.8202,-3.8246,-3.8434,-3.8449,-3.8434,-3.8667,-3.8876,-3.8929,-3.8793,-3.8777,-3.8821,-3.8453,-3.7961,-3.7738,-3.749,-3.7377,-3.7352,-3.7088,-4.3305,-4.3305,-4.3305,-4.3305,-4.3349,-4.3305,-4.3305,-4.3305,-4.3305,-4.3305,-4.3305,-4.3305,-4.3305,-4.3305,-4.3305,-4.3305,-4.3334,-4.3349,-4.3409,-4.3439,-4.3648,-4.3454,-4.3484,-4.3559,-4.3708,-4.3394,-4.3529,-4.3648,-4.3484,-4.3648,-4.3843,-4.4152,-4.4272,-4.4062,-4.3409,-4.3334,-4.3334,-4.3349,-4.3439,-4.3514,-4.3559,-4.3589,-4.3508,-4.3239,-4.3133,-4.2961,-4.2526,-4.2117,-4.1827,-4.1744,-4.1465,-4.1339,-4.1339,-4.1339,-4.1465,-4.1619,-4.166,-4.1814,-4.1953,-4.1325,-4.0845,-4.0402,-4.043,-4.0473,-4.0459,-4.0659,-4.0916,-4.1001,-4.1395,-4.1619,-4.18,-4.1883,-4.2036,-4.2049,-4.1932,-4.1874,-4.1787,-4.1744,-4.1541,-4.1424,-4.1758,-4.2005,-4.1976,-4.1816,-4.1192,-4.0713,-4.0263,-4.0162,-4.0336,-4.0423,-4.0481,-4.022,-4.0089,-3.9712,-3.9363,-3.9233,-3.903,-3.8522,-3.8449,-3.8812,-3.9015,-3.9117,-3.9421,-3.9789,-3.9735,-3.9497,-3.9778,-4.0064,-3.9773,-3.9505,-3.8821,-3.8525,-3.8406,-3.8267,-3.8129,-4.3305,-4.3305,-4.3305,-4.3544,-4.3828,-4.3469,-4.3305,-4.3305,-4.3305,-4.3305,-4.3305,-4.3305,-4.3305,-4.3305,-4.3364,-4.3394,-4.3409,-4.3858,-4.3947,-4.4018,-4.4332,-4.4616,-4.4601,-4.4481,-4.4541,-4.4616,-4.4616,-4.4526,-4.4691,-4.4496,-4.4646,-4.4945,-4.502,-4.4855,-4.4706,-4.4631,-4.4646,-4.4646,-4.4661,-4.4661,-4.4616,-4.4556,-4.4336,-4.3867,-4.3745,-4.346,-4.3038,-4.2606,-4.2342,-4.2286,-4.1955,-4.1829,-4.1829,-4.1829,-4.187,-4.1939,-4.1953,-4.1995,-4.2051,-4.1773,-4.1507,-4.1213,-4.1086,-4.1128,-4.1071,-4.1269,-4.1437,-4.1479,-4.1717,-4.1897,-4.1995,-4.2036,-4.2092,-4.2092,-4.202,-4.2034,-4.199,-4.2005,-4.1932,-4.1889,-4.2078,-4.2092,-4.2092,-4.2092,-4.1628,-4.1497,-4.112,-4.1163,-4.1323,-4.1395,-4.1439,-4.0989,-4.0684,-4.035,-4.0075,-3.99,-3.9712,-3.9349,-3.9349,-3.9639,-3.9784,-3.9813,-3.9958,-4.0249,-4.022,-4.0205,-4.0554,-4.0916,-4.1253,-4.1059,-4.0242,-3.9625,-3.9438,-3.9448,-3.9473,-4.3305,-4.3319,-4.3544,-4.3913,-4.4212,-4.3813,-4.3673,-4.3633,-4.3633,-4.3514,-4.3379,-4.3499,-4.3648,-4.3708,-4.3873,-4.4003,-4.4062,-4.4421,-4.4661,-4.4706,-4.5035,-4.514,-4.5214,-4.5334,-4.511,-4.5304,-4.5304,-4.5244,-4.5155,-4.5244,-4.5409,-4.5618,-4.5873,-4.6007,-4.5873,-4.5633,-4.5185,-4.514,-4.511,-4.514,-4.517,-4.5155,-4.505,-4.4725,-4.4493,-4.4236,-4.3727,-4.323,-4.2811,-4.2643,-4.2361,-4.2136,-4.2121,-4.2107,-4.2107,-4.2092,-4.2092,-4.2092,-4.2092,-4.2092,-4.1829,-4.1662,-4.1662,-4.1662,-4.1647,-4.1773,-4.1814,-4.1856,-4.1995,-4.2051,-4.2092,-4.2092,-4.2092,-4.2092,-4.2092,-4.2092,-4.2092,-4.2092,-4.2092,-4.2092,-4.2092,-4.2092,-4.2092,-4.2092,-4.1947,-4.199,-4.2034,-4.2092,-4.2092,-4.2034,-4.199,-4.1628,-4.1294,-4.1018,-4.0742,-4.051,-4.0321,-4.0133,-4.0191,-4.0307,-4.0452,-4.0466,-4.0568,-4.0713,-4.0931,-4.1149,-4.1395,-4.17,-4.1761,-4.1717,-4.134,-4.0847,-4.0525,-4.0365,-4.0307,-4.3305,-4.3394,-4.4007,-4.4317,-4.4362,-4.4496,-4.4466,-4.4347,-4.4332,-4.4018,-4.3469,-4.4152,-4.4332,-4.4466,-4.496,-4.5125,-4.5155,-4.5244,-4.5319,-4.5379,-4.5618,-4.5574,-4.5589,-4.5603,-4.5738,-4.5559,-4.5559,-4.5798,-4.5454,-4.5678,-4.5978,-4.6322,-4.6741,-4.689,-4.6651,-4.6217,-4.5723,-4.5753,-4.5753,-4.5768,-4.5798,-4.5618,-4.5559,-4.5367,-4.5263,-4.5034,-4.457,-4.4081,-4.3639,-4.3211,-4.2725,-4.2395,-4.2208,-4.2165,-4.2165,-4.2136,-4.2165,-4.2092,-4.2092,-4.2092,-4.2092,-4.1968,-4.2009,-4.2051,-4.2051,-4.2009,-4.1995,-4.1995,-4.2051,-4.2092,-4.2092,-4.2092,-4.2092,-4.2092,-4.2092,-4.2092,-4.2092,-4.2092,-4.2092,-4.2092,-4.2092,-4.2092,-4.2092,-4.2092,-4.2092,-4.2092,-4.2092,-4.2092,-4.2092,-4.2092,-4.2049,-4.2034,-4.1773,-4.1686,-4.1439,-4.1134,-4.1033,-4.0873,-4.0699,-4.0757,-4.0931,-4.1134,-4.1236,-4.1453,-4.1831,-4.202,-4.1889,-4.1918,-4.202,-4.1903,-4.1744,-4.1613,-4.1163,-4.0815,-4.0684,-4.3305,-4.3379,-4.4032,-4.4571,-4.5125,-4.6022,-4.5918,-4.508,-4.5005,-4.4855,-4.4736,-4.4915,-4.502,-4.505,-4.5214,-4.5319,-4.5514,-4.5738,-4.5963,-4.6127,-4.6352,-4.6606,-4.6666,-4.6606,-4.6681,-4.6666,-4.6651,-4.6546,-4.6681,-4.6666,-4.6666,-4.707,-4.7189,-4.7294,-4.716,-4.689,-4.6696,-4.6576,-4.6531,-4.6531,-4.6561,-4.6546,-4.6367,-4.6127,-4.6022,-4.5732,-4.5134,-4.4699,-4.427,-4.3928,-4.3642,-4.3427,-4.3442,-4.3427,-4.334,-4.2716,-4.2411,-4.2092,-4.2092,-4.2107,-4.2179,-4.2237,-4.2165,-4.2092,-4.2092,-4.2121,-4.2121,-4.2092,-4.2092,-4.2092,-4.2092,-4.2092,-4.2092,-4.2092,-4.2092,-4.2092,-4.2092,-4.2092,-4.2092,-4.2092,-4.2092,-4.2092,-4.2092,-4.2092,-4.2092,-4.2092,-4.2092,-4.2092,-4.2092,-4.2092,-4.2092,-4.2092,-4.2063,-4.1903,-4.1932,-4.1715,-4.1686,-4.1613,-4.1381,-4.1279,-4.1512,-4.1715,-4.1889,-4.199,-4.2063,-4.2092,-4.2063,-4.2092,-4.2092,-4.2092,-4.1961,-4.1932,-4.1802,-4.1424,-4.1221,-4.3305,-4.3424,-4.4332,-4.5229,-4.6142,-4.695,-4.68,-4.6112,-4.5828,-4.5589,-4.5349,-4.5589,-4.5693,-4.5768,-4.6007,-4.6172,-4.6217,-4.6516,-4.6711,-4.6815,-4.71,-4.7145,-4.7279,-4.7309,-4.7219,-4.7309,-4.7309,-4.7145,-4.7309,-4.7309,-4.7279,-4.7264,-4.7309,-4.7309,-4.7264,-4.7204,-4.7249,-4.7219,-4.7249,-4.7309,-4.7309,-4.7309,-4.701,-4.6785,-4.6681,-4.6269,-4.5786,-4.5365,-4.5017,-4.4672,-4.4384,-4.4065,-4.4008,-4.395,-4.3892,-4.3355,-4.3181,-4.2992,-4.2992,-4.2948,-4.2876,-4.276,-4.2586,-4.2469,-4.2353,-4.231,-4.2179,-4.2092,-4.2092,-4.2092,-4.2092,-4.2092,-4.2092,-4.2092,-4.2092,-4.2092,-4.2092,-4.2092,-4.2092,-4.2092,-4.2092,-4.2092,-4.2092,-4.2121,-4.2092,-4.2092,-4.2092,-4.2092,-4.2092,-4.2092,-4.2092,-4.2092,-4.2092,-4.2049,-4.2092,-4.2092,-4.199,-4.1903,-4.1874,-4.186,-4.2092,-4.2078,-4.2034,-4.2049,-4.2078,-4.2092,-4.2092,-4.2092,-4.2092,-4.2092,-4.2092,-4.2034,-4.2005,-4.1903,-4.1816,-4.3305,-4.3409,-4.4751,-4.5992,-4.7204,-4.7294,-4.7279,-4.7249,-4.6636,-4.6067,-4.5738,-4.6142,-4.6381,-4.6471,-4.68,-4.7025,-4.6995,-4.71,-4.713,-4.7279,-4.7264,-4.7309,-4.7309,-4.7309,-4.7309,-4.7309,-4.7309,-4.7309,-4.7309,-4.7309,-4.7309,-4.7309,-4.7309,-4.7309,-4.7309,-4.7309,-4.7309,-4.7309,-4.7309,-4.7309,-4.7309,-4.7309,-4.7309,-4.7264,-4.7191,-4.7073,-4.6737,-4.634,-4.5853,-4.5344,-4.4923,-4.4501,-4.44,-4.4168,-4.411,-4.3979,-4.3834,-4.3718,-4.3674,-4.366,-4.3747,-4.3631,-4.3427,-4.3065,-4.2789,-4.2353,-4.2136,-4.2092,-4.2092,-4.2092,-4.2092,-4.2121,-4.2136,-4.2295,-4.2411,-4.2571,-4.2745,-4.2745,-4.276,-4.276,-4.2745,-4.2731,-4.2731,-4.2803,-4.2861,-4.2513,-4.244,-4.2484,-4.2382,-4.2382,-4.2223,-4.2208,-4.2092,-4.2092,-4.2092,-4.2092,-4.2092,-4.2078,-4.2092,-4.2092,-4.2092,-4.2092,-4.2092,-4.2092,-4.2092,-4.2092,-4.2092,-4.2092,-4.2092,-4.2092,-4.2092,-4.2092,-4.2092,-4.2092,-4.2092,-4.3305,-4.3424,-4.4751,-4.6067,-4.7234,-4.7309,-4.7309,-4.7294,-4.716,-4.695,-4.686,-4.6965,-4.704,-4.7055,-4.7174,-4.7309,-4.7309,-4.7309,-4.7309,-4.7309,-4.7309,-4.7309,-4.7309,-4.7309,-4.7309,-4.7309,-4.7309,-4.7309,-4.7309,-4.7309,-4.7309,-4.7309,-4.7309,-4.7309,-4.7309,-4.7309,-4.7309,-4.7309,-4.7309,-4.7309,-4.7309,-4.7309,-4.7309,-4.7309,-4.7266,-4.7164,-4.6944,-4.6798,-4.6504,-4.6226,-4.5962,-4.5667,-4.549,-4.4996,-4.4705,-4.4603,-4.4342,-4.424,-4.4197,-4.4226,-4.4226,-4.411,-4.3819,-4.3456,-4.3007,-4.244,-4.2136,-4.2121,-4.2092,-4.2092,-4.215,-4.2194,-4.231,-4.2571,-4.2803,-4.3108,-4.3398,-4.3413,-4.3442,-4.3442,-4.3456,-4.3442,-4.3413,-4.3442,-4.3529,-4.3544,-4.3573,-4.3529,-4.3268,-4.3123,-4.2644,-4.2513,-4.2165,-4.2107,-4.2092,-4.2092,-4.2092,-4.2092,-4.2092,-4.2092,-4.2092,-4.2092,-4.2092,-4.2092,-4.2092,-4.2092,-4.2092,-4.2092,-4.2092,-4.2092,-4.2092,-4.2092,-4.2092,-4.2092,-4.2092,-4.3305,-4.3469,-4.4751,-4.6067,-4.716,-4.7309,-4.7309,-4.7309,-4.7309,-4.7309,-4.7309,-4.7309,-4.7309,-4.7309,-4.7309,-4.7309,-4.7309,-4.7309,-4.7309,-4.7309,-4.7309,-4.7309,-4.7309,-4.7309,-4.7309,-4.7309,-4.7309,-4.7309,-4.7309,-4.7309,-4.7309,-4.7309,-4.7309,-4.7309,-4.7309,-4.7309,-4.7309,-4.7309,-4.7309,-4.7309,-4.7309,-4.7309,-4.7309,-4.7309,-4.7266,-4.7164,-4.7164,-4.7077,-4.6931,-4.6653,-4.6314,-4.6137,-4.5885,-4.5578,-4.5358,-4.5256,-4.5082,-4.4821,-4.4792,-4.4748,-4.4734,-4.4705,-4.4443,-4.4153,-4.4008,-4.3456,-4.2615,-4.2528,-4.215,-4.2092,-4.2484,-4.2629,-4.2963,-4.3253,-4.3398,-4.3616,-4.3732,-4.3761,-4.3761,-4.3761,-4.3776,-4.3761,-4.3747,-4.3747,-4.3805,-4.3805,-4.395,-4.4066,-4.3906,-4.3819,-4.334,-4.2905,-4.2629,-4.2237,-4.2092,-4.2092,-4.2092,-4.2092,-4.2092,-4.2092,-4.2092,-4.2092,-4.2092,-4.2092,-4.2092,-4.2092,-4.2092,-4.2092,-4.2092,-4.2092,-4.2092,-4.2092,-4.2092,-4.2092,-4.2092,-4.3409,-4.3693,-4.493,-4.6142,-4.7204,-4.7309,-4.7309,-4.7309,-4.7309,-4.7309,-4.7309,-4.7309,-4.7309,-4.7309,-4.7309,-4.7309,-4.7309,-4.7309,-4.7309,-4.7309,-4.7309,-4.7309,-4.7309,-4.7309,-4.7309,-4.7309,-4.7309,-4.7309,-4.7309,-4.7309,-4.7309,-4.7309,-4.7309,-4.7309,-4.7309,-4.7309,-4.7309,-4.7309,-4.7309,-4.7309,-4.7309,-4.7309,-4.7309,-4.7309,-4.7309,-4.7309,-4.7309,-4.7266,-4.7121,-4.6887,-4.6521,-4.6299,-4.6121,-4.5899,-4.5838,-4.5692,-4.5663,-4.5619,-4.5692,-4.5619,-4.5692,-4.5648,-4.5242,-4.4951,-4.4777,-4.4255,-4.3413,-4.2934,-4.2557,-4.2542,-4.2948,-4.3195,-4.3558,-4.3979,-4.4081,-4.4226,-4.4269,-4.4284,-4.4284,-4.4284,-4.4284,-4.4284,-4.4269,-4.4255,-4.4226,-4.4197,-4.4197,-4.4226,-4.4255,-4.4255,-4.4037,-4.3616,-4.3282,-4.2847,-4.2368,-4.231,-4.2397,-4.2092,-4.2092,-4.2092,-4.2092,-4.2092,-4.2092,-4.2092,-4.2092,-4.2121,-4.2107,-4.2092,-4.2092,-4.2092,-4.2092,-4.2092,-4.2092,-4.2092,-4.2092,-4.3958,-4.499,-4.5813,-4.6591,-4.7249,-4.7309,-4.7309,-4.7309,-4.7309,-4.7309,-4.7309,-4.7309,-4.7309,-4.7309,-4.7309,-4.7309,-4.7309,-4.7309,-4.7309,-4.7309,-4.7309,-4.7309,-4.7309,-4.7309,-4.7309,-4.7309,-4.7309,-4.7309,-4.7309,-4.7309,-4.7309,-4.7309,-4.7309,-4.7309,-4.7309,-4.7309,-4.7309,-4.7309,-4.7309,-4.7309,-4.7309,-4.7309,-4.7309,-4.7309,-4.7309,-4.7309,-4.7309,-4.7309,-4.7251,-4.7121,-4.68,-4.6491,-4.6225,-4.6046,-4.5956,-4.588,-4.588,-4.588,-4.588,-4.588,-4.588,-4.5866,-4.5503,-4.5358,-4.5155,-4.4893,-4.4255,-4.3921,-4.3645,-4.3602,-4.3848,-4.379,-4.4052,-4.4647,-4.4966,-4.5184,-4.5314,-4.5314,-4.5314,-4.5314,-4.5314,-4.5314,-4.53,-4.5285,-4.5285,-4.5256,-4.5227,-4.5242,-4.5126,-4.4951,-4.4705,-4.4385,-4.4008,-4.3442,-4.2963,-4.2876,-4.2818,-4.2426,-4.2223,-4.2455,-4.2455,-4.2121,-4.2121,-4.2469,-4.231,-4.2194,-4.2165,-4.2208,-4.2092,-4.2092,-4.2092,-4.2092,-4.2092,-4.2092,-4.2092]},{"header":{"parameterUnit":"m.s-1","parameterCategory":1,"la1":31.0,"la2":29.5877,"lo1":-88.7671,"lo2":-86.6584,"dy":0.0162,"dx":0.0185,"nx":115,"ny":88,"refTime":"2026-03-06T00:00:00:Z","depth":0,"parameterNumber":3,"parameterNumberName":"V-component_of_WINDS"},"data":[0.0,0.0,0.0,0.0,0.0,0.0,0.0,0.0,0.0,0.0,0.0,0.0,0.0,0.0,0.0,0.0,0.0,0.0,0.0,0.0,0.0,0.0,0.0,0.0,0.0,0.0,0.0,0.0,0.0,0.0,0.0,0.0,0.0,0.0,0.0,0.0,0.0,0.0,0.0,0.0,0.0,0.0,0.0,0.0,0.0,0.0,0.0,0.0,0.0,0.0,0.0,0.0,0.0,0.0,0.0,0.0,0.0,0.0,0.0,0.0,0.0,0.0,0.0,0.0,0.0,0.0,0.0,0.0,0.0,0.0,0.0,0.0,0.0,0.0,0.0,0.0,0.0,0.0,0.0,0.0,0.0,0.0,0.0,0.0,0.0,0.0,0.0,0.0,0.0,0.0,0.0,0.0,0.0,0.0,0.0,0.0,0.0,0.0,0.0,0.0,0.0,0.0,0.0,0.0,0.0,0.0,0.0,0.0,0.0,0.0,0.0,0.0,0.0,0.0,0.0,0.0,0.0,0.0,0.0,0.0,0.0,0.0,0.0,0.0,0.0,0.0,0.0,0.0,0.0,0.0,0.0,0.0,0.0,0.0,0.0,0.0,0.0,0.0,0.0,0.0,0.0,0.0,0.0,0.0,0.0,0.0,0.0,0.0,0.0,0.0,0.0,0.0,0.0,0.0,0.0,0.0,0.0,0.0,0.0,0.0,0.0,0.0,0.0,0.0,0.0,0.0,0.0,0.0,0.0,0.0,0.0,0.0,0.0,0.0,0.0,0.0,0.0,0.0,0.0,0.0,0.0,0.0,0.0,0.0,0.0,0.0,0.0,0.0,0.0,0.0,0.0,0.0,0.0,0.0,0.0,0.0,0.0,0.0,0.0,0.0,0.0,0.0,0.0,0.0,0.0,0.0,0.0,0.0,0.0,0.0,0.0,0.0,0.0,0.0,0.0,0.0,0.0,0.0,0.0,0.0,0.0,0.0,0.0,0.0,0.0,0.0,0.0,0.0,0.0,0.0,0.0,0.0,0.0,0.0,0.0,0.0,0.0,0.0,0.0,0.0,0.0,0.0,0.0,0.0,0.0,0.0,0.0,0.0,0.0,0.0,0.0,0.0,0.0,0.0,0.0,0.0,0.0,0.0,0.0,0.0,0.0,0.0,0.0,0.0,0.0,0.0,0.0,0.0,0.0,0.0,0.0,0.0,0.0,0.0,0.0,0.0,0.0,0.0,0.0,0.0,0.0,0.0,0.0,0.0,0.0,0.0,0.0,0.0,0.0,0.0,0.0,0.0,0.0,0.0,0.0,0.0,0.0,0.0,0.0,0.0,0.0,0.0,0.0,0.0,0.0,0.0,0.0,0.0,0.0,0.0,0.0,0.0,0.0,0.0,0.0,0.0,0.0,0.0,0.0,0.0,0.0,0.0,0.0,0.0,0.0,0.0,0.0,0.0,0.0,0.0,0.0,0.0,0.0,0.0,0.0,0.0,0.0,0.0,0.0,0.0,0.0,0.0,0.0,0.0,0.0,0.0,0.0,0.0,0.0,0.0,0.0,0.0,0.0,0.0,0.0,0.0,0.0,0.0,0.0,0.0,0.0,0.0,0.0,0.0,0.0,0.0,0.0,0.0,0.0,0.0,0.0,0.0,0.0,0.0,0.0,0.0,0.0,0.0,0.0,0.0,0.0,0.0,0.0,0.0,0.0,0.0,0.0,0.0,0.0,0.0,0.0,0.0,0.0,0.0,0.0,0.0,0.0,0.0,0.0,0.0,0.0,0.0,0.0,0.0,0.0,0.0,0.0,0.0,0.0,0.0,0.0,0.0,0.0,0.0,0.0,0.0,0.0,0.0,0.0,0.0,0.0,0.0,0.0,0.0,0.0,0.0,0.0,0.0,0.0,0.0,0.0,0.0,0.0,0.0,0.0,0.0,0.0,0.0,0.0,0.0,0.0,0.0,0.0,0.0,0.0,0.0,0.0,0.0,0.0,0.0,0.0,0.0,0.0,0.0,0.0,0.0,0.0,0.0,0.0,0.0,0.0,0.0,0.0,0.0,0.0,0.0,0.0,0.0,0.0,0.0,0.0,0.0,0.0,0.0,0.0,0.0,0.0,0.0,0.0,0.0,0.0,0.0,0.0,0.0,0.0,0.0,0.0,0.0,0.0,0.0,0.0,0.0,0.0,0.0,0.0,0.0,0.0,0.0,0.0,0.0,0.0,0.0,0.0,0.0,0.0,0.0,0.0,0.0,0.0,0.0,0.0,0.0,0.0,0.0,0.0,0.0,0.0,0.0,0.0,0.0,0.0,0.0,0.0,0.0,0.0,0.0,0.0,0.0,0.0,0.0,0.0,0.0,0.0,0.0,0.0,0.0,0.0,0.0,0.0,0.0,0.0,0.0,0.0,0.0,0.0,0.0,0.0,0.0,0.0,0.0,0.0,0.0,0.0,0.0,0.0,0.0,0.0,0.0,0.0,0.0,0.0,0.0,0.0,0.0,0.0,0.0,0.0,0.0,0.0,0.0,0.0,0.0,0.0,0.0,0.0,0.0,0.0,0.0,0.0,0.0,0.0,0.0,0.0,0.0,0.0,0.0,0.0,0.0,0.0,0.0,0.0,0.0,0.0,0.0,0.0,0.0,0.0,0.0,0.0,0.0,0.0,0.0,0.0,0.0,0.0,0.0,0.0,0.0,0.0,0.0,0.0,0.0,0.0,0.0,0.0,0.0,0.0,0.0,0.0,0.0,0.0,0.0,0.0,0.0,0.0,0.0,0.0,0.0,0.0,0.0,0.0,0.0,0.0,0.0,0.0,0.0,0.0,0.0,0.0,0.0,0.0,0.0,0.0,0.0,0.0,0.0,0.0,0.0,0.0,0.0,0.0,0.0,0.0,0.0,0.0,0.0,0.0,0.0,0.0,0.0,0.0,0.0,0.0,0.0,0.0,0.0,0.0,0.0,0.0,0.0,0.0,0.0,0.0,0.0,0.0,0.0,0.0,0.0,0.0,0.0,0.0,0.0,0.0,0.0,0.0,0.0,0.0,0.0,0.0,0.0,0.0,0.0,0.0,0.0,0.0,0.0,0.0,0.0,0.0,0.0,0.0,0.0,0.0,0.0,0.0,0.0,0.0,0.0,0.0,0.0,0.0,0.0,0.0,0.0,0.0,0.0,0.0,0.0,0.0,0.0,0.0,0.0,0.0,0.0,0.0,0.0,0.0,0.0,0.0,0.0,0.0,0.0,0.0,0.0,0.0,0.0,0.0,0.0,0.0,0.0,0.0,0.0,0.0,0.0,0.0,0.0,0.0,0.0,0.0,0.0,0.0,0.0,0.0,0.0,0.0,0.0,0.0,0.0,0.0,0.0,0.0,0.0,0.0,0.0,0.0,0.0,0.0,0.0,0.0,0.0,0.0,0.0,0.0,0.0,0.0,0.0,0.0,0.0,0.0,0.0,0.0,0.0,0.0,0.0,0.0,0.0,0.0,0.0,0.0,0.0,0.0,0.0,0.0,0.0,0.0,0.0,0.0,0.0,0.0,0.0,0.0,0.0,0.0,0.0,0.0,0.0,0.0,0.0,0.0,0.0,0.0,0.0,0.0,0.0,0.0,0.0,0.0,0.0,0.0,0.0,0.0,0.0,0.0,0.0,0.0,0.0,0.0,0.0,0.0,0.0,0.0,0.0,0.0,0.0,0.0,0.0,0.0,0.0,0.0,0.0,0.0,0.0,0.0,0.0,0.0,0.0,0.0,0.0,0.0,0.0,0.0,0.0,0.0,0.0,0.0,0.0,0.0,0.0,0.0,0.0,0.0,0.0,0.0,0.0,0.0,0.0,0.0,0.0,0.0,0.0,0.0,0.0,0.0,0.0,0.0,0.0,0.0,0.0,0.0,0.0,0.0,0.0,0.0,0.0,0.0,0.0,0.0,0.0,0.0,0.0,0.0,0.0,0.0,0.0,0.0,0.0,0.0,0.0,0.0,0.0,0.0,0.0,0.0,0.0,0.0,0.0,0.0,0.0,0.0,0.0,0.0,0.0,0.0,0.0,0.0,0.0,0.0,0.0,0.0,0.0,0.0,0.0,0.0,0.0,0.0,0.0,0.0,0.0,0.0,0.0,0.0,0.0,0.0,0.0,0.0,0.0,0.0,0.0,0.0,0.0,0.0,0.0,0.0,0.0,0.0,0.0,0.0,0.0,0.0,0.0,0.0,0.0,0.0,0.0,0.0,0.0,0.0,0.0,0.0,0.0,0.0,0.0,0.0,0.0,0.0,0.0,0.4984,0.0,0.0,0.0,0.0,0.0,0.0,0.0,0.0,0.0,0.0,0.0,0.0,0.0,0.0,0.0,0.0,0.0,0.0,0.0,0.0,0.0,0.0,0.0,0.0,0.0,0.0,0.0,0.0,0.0,0.0,0.0,0.0,0.0,0.0,0.0,0.0,0.0,0.0,0.0,0.0,0.0,0.0,0.0,0.0,0.0,0.0,0.0,0.0,0.0,0.0,0.0,0.0,0.0,0.0,0.0,0.0,0.0,0.0,0.0,0.0,0.0,0.0,0.0,0.0,0.0,0.0,0.0,0.0,0.0,0.0,0.0,0.0,0.0,0.0,0.0,0.0,0.0,0.0,0.0,0.0,0.0,0.0,0.0,0.0,0.0,0.0,0.0,0.0,0.0,0.0,0.0,0.0,0.0,0.0,0.0,0.0,0.0,0.0,0.0,0.0,0.0,0.0,0.0,0.0,0.0,0.0,0.0,0.0,0.0,0.0,0.5851,0.5669,0.5623,0.5716,0.5876,0.0,0.0,0.0,0.0,0.0,0.0,0.0,0.0,0.0,0.0,0.0,0.0,0.0,0.0,0.0,0.0,0.0,0.0,0.0,0.0,0.0,0.0,0.0,0.0,0.0,0.0,0.0,0.0,0.0,0.0,0.0,0.0,0.0,0.0,0.0,0.0,0.0,0.0,0.0,0.0,0.0,0.0,0.0,0.0,0.0,0.0,0.0,0.0,0.0,0.0,0.0,0.0,0.0,0.0,0.0,0.0,0.0,0.0,0.0,0.0,0.0,0.0,0.0,0.0,0.0,0.0,0.0,0.0,0.0,0.0,0.0,0.0,0.0,0.0,0.0,0.0,0.0,0.0,0.0,0.0,0.0,0.0,0.0,0.0,0.0,0.0,0.0,0.0,0.0,0.0,0.0,0.0,0.0,0.0,0.0,0.0,0.0,0.0,0.0,0.0,0.0,0.0,0.0,0.0,0.0,0.0,0.0,0.0,0.0,0.0,0.0,0.0,0.6512,0.651,0.6681,0.0,0.0,0.0,0.0,0.0,0.0,0.0,0.0,0.0,0.0,0.0,0.0,0.0,0.0,0.0,0.0,0.0,0.0,0.0,0.0,0.0,0.0,0.0,0.0,0.0,0.0,0.0,0.0,0.0,0.0,0.0,0.0,0.0,0.0,0.0,0.0,0.0,0.0,0.0,0.0,0.0,0.0,0.0,0.0,0.0,0.0,0.0,0.0,0.0,0.0,0.0,0.0,0.0,0.0,0.0,0.0,0.0,0.0,0.0,0.0,0.0,0.0,0.0,0.0,0.0,0.0,0.0,0.0,0.0,0.0,0.0,0.0,0.0,0.0,0.0,0.0,0.0,0.0,0.0,0.0,0.0,0.0,0.0,0.0,0.0,0.0,0.0,0.0,0.0,0.0,0.0,0.0,0.0,0.0,0.0,0.0,0.0,0.0,0.0,0.0,0.0,0.0,0.0,0.0,0.0,0.0,0.0,0.0,0.0,0.0,0.7627,0.7324,0.7011,0.0,0.7043,0.0,0.0,0.0,0.0,0.0,0.0,0.0,0.0,0.0,0.0,0.0,0.0,0.0,0.0,0.0,0.0,0.0,0.0,0.0,0.0,0.0,0.0,0.0,0.0,0.0,0.0,0.0,0.0,0.0,0.0,0.0,0.0,0.0,0.0,0.0,0.0,0.0,0.0,0.0,0.0,0.0,0.0,0.0,0.0,0.0,0.0,0.0,0.0,0.0,0.0,0.0,0.0,0.0,0.0,0.0,0.0,0.0,0.0,0.0,0.0,0.0,0.0,0.0,0.0,0.0,0.0,0.0,0.0,0.0,0.0,0.0,0.0,0.0,0.0,0.0,0.0,0.0,0.0,0.0,0.0,0.0,0.0,0.0,0.0,0.0,0.0,0.0,0.0,0.0,0.0,0.0,0.0,0.0,0.0,0.0,0.0,0.0,0.0,0.0,0.0,0.0,0.0,0.0,0.0,0.0,0.0,0.0,0.0,0.0,0.0,0.8787,0.8241,0.7796,0.747,0.0,0.0,0.0,0.0,0.0,0.0,0.0,0.0,0.0,0.0,0.0,0.0,0.0,0.0,0.0,0.0,0.0,0.0,0.0,0.0,0.0,0.0,0.0,0.0,0.0,0.0,0.0,0.0,0.0,0.0,0.0,0.0,0.0,0.0,0.0,0.0,0.0,0.0,0.0,0.0,0.0,0.0,0.0,0.0,0.0,0.0,0.0,0.0,0.0,0.0,0.0,0.0,0.0,0.0,0.0,0.0,0.0,0.0,0.0,0.0,0.0,0.0,0.0,0.0,0.0,0.0,0.0,0.0,0.0,0.0,0.0,0.0,0.0,0.0,0.0,0.0,0.0,0.0,0.0,0.0,0.0,0.0,0.0,0.0,0.0,0.0,0.0,0.0,0.0,0.0,0.0,0.0,0.0,0.0,0.0,0.0,0.0,0.0,0.0,0.0,0.0,0.0,0.0,0.0,0.0,0.0,0.0,0.0,0.0,0.0,1.0507,0.9684,0.8852,0.8339,0.7939,0.7747,0.0,0.0,0.0,0.0,0.0,0.0,0.0,0.0,0.0,0.0,0.0,0.0,0.0,0.0,0.0,0.0,0.0,0.0,0.0,0.0,0.0,0.0,0.0,0.0,0.0,0.0,0.0,0.0,0.0,0.0,0.0,0.0,0.0,0.0,0.0,0.0,0.0,0.0,0.0,0.0,0.0,0.0,0.0,0.0,0.0,0.0,0.0,0.0,0.0,0.0,0.0,0.0,0.0,0.0,0.0,0.0,0.0,0.0,0.0,0.0,0.0,0.0,0.0,0.0,0.0,0.0,0.0,0.0,0.0,0.0,0.0,0.0,0.0,0.0,0.0,0.0,0.0,0.0,0.0,0.0,0.0,0.0,0.0,0.0,0.0,0.0,0.0,0.0,0.0,0.0,0.0,0.0,0.0,0.0,0.0,0.0,0.0,0.0,0.0,0.0,0.0,0.0,0.0,0.0,0.0,0.0,0.0,0.0,0.0,1.1351,1.0252,0.8881,0.8389,0.8295,0.0,0.0,0.0,0.0,0.0,0.0,0.0,0.0,0.0,0.0,0.0,0.0,0.0,0.0,0.0,0.0,0.0,0.0,0.0,0.0,0.0,0.0,0.0,0.0,0.0,0.0,0.0,0.0,0.0,0.0,0.0,0.0,0.0,0.0,0.0,0.0,0.0,0.0,0.0,0.0,0.0,0.0,0.0,0.0,0.0,0.0,0.0,0.0,0.0,0.0,0.0,0.0,0.0,0.0,0.0,0.0,0.0,0.0,0.0,0.0,0.0,0.0,0.0,0.0,0.0,0.0,0.0,0.0,0.0,0.0,0.0,0.0,0.0,0.0,0.0,0.0,0.0,0.0,0.0,0.0,0.0,0.0,0.0,0.0,0.0,0.0,0.0,0.0,0.0,0.0,0.0,0.0,0.0,0.0,0.0,0.0,0.0,0.0,0.0,0.0,0.0,0.0,0.0,0.0,0.0,0.0,0.0,0.0,0.0,1.259,1.1469,1.0308,0.9353,0.9181,0.9075,0.0,0.0,0.0,0.0,0.0,0.0,0.0,0.0,0.0,0.0,0.0,0.0,0.0,0.0,0.0,0.0,0.0,0.0,0.0,0.0,0.0,0.0,0.0,0.0,0.0,0.0,0.0,0.0,0.0,0.0,0.0,0.0,0.0,0.0,0.0,0.0,0.0,0.0,0.0,0.0,0.0,0.0,0.0,0.0,0.0,0.0,0.0,0.0,0.0,0.0,0.0,0.0,0.0,0.0,0.0,0.0,0.0,0.0,0.0,0.0,0.0,0.0,0.0,0.0,0.0,0.0,0.0,0.0,0.0,0.0,0.0,0.0,0.0,0.0,0.0,0.0,0.0,0.0,0.0,0.0,0.0,0.0,0.0,0.0,0.0,0.0,0.0,0.0,0.0,0.0,0.0,0.0,0.0,0.0,0.0,0.0,0.0,0.0,0.0,0.0,0.0,0.0,0.0,0.0,0.0,0.0,0.0,0.0,0.0,1.2568,0.0,1.0742,0.0,0.9947,0.9874,0.0,0.0,0.0,0.0,0.0,0.0,0.0,0.0,0.0,0.0,0.0,0.0,0.0,0.0,0.0,0.0,0.0,0.0,0.0,0.0,0.0,0.0,0.0,0.0,0.0,0.0,0.0,0.0,0.0,0.0,0.0,0.0,0.0,0.0,0.0,0.0,0.0,0.0,0.0,0.0,0.0,0.0,0.0,0.0,0.0,0.0,0.0,0.0,0.0,0.0,0.0,0.0,0.0,0.0,0.0,0.0,0.0,0.0,0.0,0.0,0.0,0.0,0.0,0.0,0.0,0.0,0.0,0.0,0.0,0.0,0.0,0.0,0.0,0.0,0.0,0.0,0.0,0.0,0.0,0.0,0.0,0.0,0.0,0.0,0.0,0.0,0.0,0.0,0.0,0.0,0.0,0.0,0.0,0.0,0.0,0.0,0.0,0.0,0.0,0.0,0.0,0.0,0.0,0.0,0.0,0.0,0.0,0.0,1.2955,1.2046,1.1928,1.1512,1.0828,1.0711,1.0683,0.0,0.0,0.0,0.0,0.0,0.0,0.0,0.0,0.0,0.0,0.0,0.0,0.0,0.0,0.0,0.0,0.0,0.0,0.0,0.0,0.0,0.0,0.0,0.0,0.0,0.0,0.0,0.0,0.0,0.0,0.0,0.0,0.0,0.0,0.0,0.0,0.0,0.0,0.0,0.0,0.0,0.0,0.0,0.0,0.0,0.0,0.0,0.0,0.0,0.0,0.0,0.0,0.0,0.0,0.0,0.0,0.0,0.0,0.0,0.0,0.0,0.0,0.0,0.0,0.0,0.0,0.0,0.0,0.0,0.0,0.0,0.0,0.0,0.0,0.0,0.0,0.0,0.0,0.0,0.0,0.0,0.0,0.0,0.0,0.0,0.0,0.0,0.0,0.0,0.0,0.0,0.0,0.0,0.0,0.0,0.0,0.0,0.0,0.0,0.0,0.0,0.0,0.0,0.0,0.0,0.0,0.0,0.0,0.0,1.1823,1.176,1.1572,1.1189,1.113,1.115,0.0,0.0,0.0,0.0,0.0,0.0,0.0,0.0,0.0,0.0,0.0,0.0,0.0,0.0,0.0,0.0,0.0,0.0,0.0,0.0,0.0,0.0,0.0,0.0,0.0,0.0,0.0,0.0,0.0,0.0,0.0,0.0,0.0,0.0,0.0,0.0,0.0,0.0,0.0,0.0,0.0,0.0,0.0,0.0,0.0,0.0,0.0,0.0,0.0,0.0,0.0,0.0,0.0,0.0,0.0,0.0,0.0,0.0,0.0,0.0,0.0,0.0,0.0,0.0,0.0,0.0,0.0,0.0,0.0,0.0,0.0,0.0,0.0,0.0,0.0,0.0,0.0,0.0,0.0,0.0,0.0,0.0,0.0,0.0,0.0,0.0,0.0,0.0,0.0,0.0,0.0,0.0,0.0,0.0,0.0,0.0,0.0,0.0,0.0,0.0,0.0,0.0,0.0,0.0,0.0,0.0,0.0,0.0,0.0,1.2051,1.2,1.184,1.1611,1.1679,1.1727,1.1683,0.0,0.0,0.0,0.0,0.0,0.0,0.0,0.0,0.0,0.0,0.0,0.0,0.0,0.0,0.0,0.0,0.0,0.0,0.0,0.0,0.0,0.0,0.0,0.0,0.0,0.0,0.0,0.0,0.0,0.0,0.0,0.0,0.0,0.0,0.0,0.0,0.0,0.0,0.0,0.0,0.0,0.0,0.0,0.0,0.0,0.0,0.0,0.0,0.0,0.0,0.0,0.0,0.0,0.0,0.0,0.0,0.0,0.0,0.0,0.0,0.0,0.0,0.0,0.0,0.0,0.0,0.0,0.0,0.0,0.0,0.0,0.0,0.0,0.0,0.0,0.0,0.0,0.0,0.0,0.0,0.0,0.0,0.0,0.0,0.0,0.0,0.0,0.0,0.0,0.0,0.0,0.0,0.0,0.0,0.0,0.0,0.0,0.0,0.0,0.0,0.0,0.0,0.0,0.0,0.0,0.0,0.0,0.0,1.2694,1.2504,1.2342,1.2095,1.2264,1.2332,0.0,0.0,0.0,0.0,0.0,0.0,0.0,0.0,0.0,0.0,0.0,0.0,0.0,0.0,0.0,0.0,0.0,0.0,0.0,0.0,0.0,0.0,0.0,0.0,0.0,0.0,0.0,0.0,0.0,0.0,0.0,0.0,0.0,0.0,0.0,0.0,0.0,0.0,0.0,0.0,0.0,0.0,0.0,0.0,0.0,0.0,0.0,0.0,0.0,0.0,0.0,0.0,0.0,0.0,0.0,0.0,0.0,0.0,0.0,0.0,0.0,0.0,0.0,0.0,0.0,0.0,0.0,0.0,0.0,0.0,0.0,0.0,0.0,0.0,0.0,0.0,0.0,0.0,0.0,0.0,0.0,0.0,0.0,0.0,0.0,0.0,0.0,0.0,0.0,0.0,0.0,0.0,0.0,0.0,0.0,0.0,0.0,0.0,0.0,0.0,0.0,0.0,0.0,0.0,0.0,0.0,0.0,0.0,0.0,1.3401,1.3181,1.2778,1.2153,1.2404,1.2515,0.0,0.0,0.0,0.0,0.0,0.0,0.0,0.0,0.0,0.0,0.0,0.0,0.0,0.0,0.0,0.0,0.0,0.0,0.0,0.0,0.0,0.0,0.0,0.0,0.0,0.0,0.0,0.0,0.0,0.0,0.0,0.0,0.0,0.0,0.0,0.0,0.0,0.0,0.0,0.0,0.0,0.0,0.0,0.0,0.0,0.0,0.0,0.0,0.0,0.0,0.0,0.0,0.0,0.0,0.0,0.0,0.0,0.0,0.0,0.0,0.0,0.0,0.0,0.0,0.0,0.0,0.0,0.0,0.0,0.0,0.0,0.0,0.0,0.0,0.0,0.0,0.0,0.0,0.0,0.0,0.0,0.0,0.0,0.0,0.0,0.0,0.0,0.0,0.0,0.0,0.0,0.0,0.0,0.0,0.0,0.0,0.0,0.0,0.0,0.0,0.0,0.0,0.0,0.0,0.0,0.0,0.0,0.0,1.4234,1.4234,1.3856,1.3519,1.3176,1.3075,1.3128,0.0,0.0,0.0,0.0,0.0,0.0,0.0,0.0,0.0,0.0,0.0,0.0,0.0,0.0,0.0,0.0,0.0,0.0,0.0,0.0,0.0,0.0,0.0,0.0,0.0,0.0,0.0,0.0,0.0,0.0,0.0,0.0,0.0,0.0,0.0,0.0,0.0,0.0,0.0,0.0,0.0,0.0,0.0,0.0,0.0,0.0,0.0,0.0,0.0,0.0,0.0,0.0,0.0,0.0,0.0,0.0,0.0,0.0,0.0,0.0,0.0,0.0,0.0,0.0,0.0,0.0,0.0,0.0,0.0,0.0,0.0,0.0,0.0,0.0,0.0,0.0,0.0,0.0,0.0,0.0,0.0,0.0,0.0,0.0,0.0,0.0,0.0,0.0,0.0,0.0,0.0,0.0,0.0,0.0,0.0,0.0,0.0,0.0,0.0,0.0,0.0,0.0,0.0,0.0,0.0,0.0,0.0,0.0,1.5196,1.519,1.4648,1.4546,1.4761,1.4175,1.4013,0.0,0.0,0.0,0.0,0.0,0.0,0.0,0.0,0.0,0.0,0.0,0.0,0.0,0.0,0.0,0.0,0.0,0.0,0.0,0.0,0.0,0.0,0.0,0.0,0.0,0.0,0.0,0.0,0.0,0.0,0.0,0.0,0.0,0.0,0.0,0.0,0.0,0.0,0.0,0.0,0.0,0.0,0.0,0.0,0.0,0.0,0.0,0.0,0.0,0.0,0.0,0.0,0.0,0.0,0.0,0.0,0.0,0.0,0.0,0.0,0.0,0.0,0.0,0.0,0.0,0.0,0.0,0.0,0.0,0.0,0.0,0.0,0.0,0.0,0.0,0.0,0.0,0.0,0.0,0.0,0.0,0.0,0.0,0.0,0.0,0.0,0.0,0.0,0.0,0.0,0.0,0.0,0.0,0.0,0.0,0.0,0.0,0.0,0.0,0.0,0.0,0.0,0.0,0.0,0.0,0.0,0.0,0.0,1.6358,1.6358,1.6033,1.598,1.6252,1.5244,1.4874,0.0,0.0,0.0,0.0,0.0,0.0,0.0,0.0,0.0,0.0,0.0,0.0,0.0,0.0,0.0,0.0,0.0,0.0,0.0,0.0,0.0,0.0,0.0,0.0,0.0,0.0,0.0,0.0,0.0,0.0,0.0,0.0,0.0,0.0,0.0,0.0,0.0,0.0,0.0,0.0,0.0,0.0,0.0,0.0,0.0,0.0,0.0,0.0,1.7325,0.0,0.0,0.0,0.0,0.0,0.0,0.0,0.0,0.0,0.0,0.0,0.0,0.0,0.0,0.0,0.0,0.0,0.0,0.0,0.0,0.0,0.0,0.0,0.0,0.0,0.0,0.0,0.0,0.0,0.0,0.0,0.0,0.0,0.0,0.0,0.0,0.0,0.0,0.0,0.0,0.0,0.0,0.0,0.0,0.0,0.0,0.0,0.0,0.0,0.0,0.0,0.0,0.0,0.0,0.0,0.0,0.0,0.0,0.0,1.747,1.747,1.7252,1.7199,1.7477,1.7041,1.667,0.0,0.0,0.0,0.0,0.0,0.0,0.0,0.0,0.0,0.0,0.0,0.0,0.0,0.0,0.0,0.0,0.0,0.0,0.0,0.0,0.0,0.0,0.0,0.0,0.0,0.0,0.0,0.0,0.0,0.0,0.0,0.0,0.0,0.0,0.0,0.0,0.0,0.0,0.0,0.0,0.0,0.0,0.0,0.0,0.0,0.0,0.0,0.0,0.0,0.0,0.0,0.0,0.0,0.0,0.0,0.0,0.0,0.0,0.0,0.0,0.0,0.0,0.0,0.0,0.0,0.0,0.0,0.0,0.0,0.0,0.0,0.0,0.0,0.0,0.0,0.0,0.0,0.0,0.0,0.0,0.0,0.0,0.0,0.0,0.0,0.0,0.0,0.0,0.0,0.0,0.0,0.0,0.0,0.0,0.0,0.0,0.0,0.0,0.0,0.0,0.0,0.0,0.0,0.0,0.0,0.0,0.0,1.89,1.8579,1.8579,1.8356,1.8363,1.8579,1.8783,1.8606,1.7928,0.0,0.0,0.0,0.0,0.0,0.0,0.0,0.0,0.0,0.0,0.0,0.0,0.0,0.0,0.0,0.0,0.0,0.0,0.0,0.0,0.0,0.0,0.0,0.0,0.0,0.0,0.0,0.0,0.0,0.0,0.0,0.0,0.0,0.0,0.0,0.0,0.0,0.0,1.859,1.9211,0.0,0.0,0.0,0.0,0.0,0.0,0.0,0.0,1.9649,0.0,0.0,0.0,0.0,0.0,0.0,0.0,0.0,0.0,0.0,0.0,0.0,0.0,0.0,0.0,0.0,0.0,0.0,0.0,0.0,0.0,0.0,0.0,0.0,0.0,0.0,0.0,0.0,0.0,0.0,0.0,0.0,0.0,0.0,0.0,0.0,0.0,0.0,0.0,0.0,0.0,0.0,0.0,0.0,0.0,0.0,0.0,0.0,0.0,0.0,0.0,0.0,0.0,0.0,0.0,0.0,1.9983,1.962,1.9465,1.9465,1.9465,1.9413,1.9457,1.9469,1.9385,1.9225,0.0,0.0,0.0,0.0,0.0,0.0,0.0,0.0,0.0,0.0,0.0,0.0,0.0,0.0,0.0,0.0,0.0,0.0,0.0,0.0,0.0,0.0,0.0,0.0,0.0,0.0,0.0,0.0,0.0,0.0,0.0,0.0,0.0,0.0,0.0,0.0,0.0,0.0,0.0,2.067,2.1014,0.0,0.0,0.0,0.0,0.0,0.0,0.0,0.0,2.0149,0.0,0.0,0.0,0.0,0.0,0.0,0.0,0.0,0.0,0.0,0.0,0.0,0.0,0.0,0.0,0.0,0.0,0.0,0.0,0.0,0.0,0.0,0.0,0.0,0.0,0.0,0.0,0.0,0.0,0.0,0.0,0.0,0.0,0.0,0.0,0.0,0.0,0.0,0.0,0.0,0.0,0.0,0.0,0.0,0.0,0.0,0.0,0.0,0.0,0.0,0.0,0.0,0.0,0.0,0.0,2.0218,2.014,2.0166,2.0292,2.0205,2.0101,2.0094,2.0027,1.9872,0.0,0.0,0.0,0.0,0.0,0.0,0.0,0.0,0.0,0.0,0.0,0.0,0.0,0.0,0.0,0.0,0.0,0.0,0.0,0.0,0.0,0.0,0.0,0.0,0.0,0.0,0.0,0.0,0.0,0.0,0.0,0.0,0.0,0.0,0.0,0.0,0.0,0.0,0.0,0.0,2.1898,2.1971,2.1897,0.0,0.0,0.0,0.0,0.0,0.0,2.1141,2.1177,0.0,0.0,0.0,0.0,0.0,0.0,0.0,0.0,0.0,0.0,0.0,0.0,0.0,0.0,0.0,0.0,0.0,0.0,0.0,0.0,0.0,0.0,0.0,0.0,0.0,0.0,0.0,0.0,0.0,0.0,0.0,0.0,0.0,0.0,0.0,0.0,0.0,0.0,0.0,0.0,0.0,0.0,0.0,0.0,0.0,0.0,0.0,0.0,0.0,0.0,0.0,0.0,0.0,0.0,0.0,2.0676,2.0642,2.0811,2.1105,2.0865,2.0688,2.0625,2.053,2.018,0.0,0.0,0.0,0.0,0.0,0.0,0.0,0.0,0.0,0.0,0.0,0.0,0.0,0.0,0.0,0.0,0.0,0.0,0.0,0.0,0.0,0.0,0.0,0.0,0.0,0.0,0.0,0.0,0.0,0.0,0.0,0.0,0.0,0.0,0.0,0.0,0.0,0.0,0.0,0.0,0.0,2.2802,2.3057,2.2675,0.0,0.0,0.0,0.0,2.1998,2.2167,0.0,0.0,0.0,0.0,0.0,0.0,0.0,0.0,0.0,0.0,0.0,0.0,0.0,0.0,0.0,0.0,0.0,0.0,0.0,0.0,0.0,0.0,0.0,0.0,0.0,0.0,0.0,0.0,0.0,0.0,0.0,0.0,0.0,0.0,0.0,0.0,0.0,0.0,0.0,0.0,0.0,0.0,0.0,0.0,0.0,0.0,0.0,0.0,0.0,0.0,0.0,0.0,0.0,0.0,0.0,0.0,2.1715,2.1486,2.1562,2.1903,2.1717,2.1433,2.113,2.0818,2.0449,0.0,0.0,0.0,0.0,0.0,0.0,0.0,0.0,0.0,0.0,0.0,0.0,0.0,0.0,0.0,0.0,0.0,0.0,0.0,0.0,0.0,0.0,0.0,0.0,0.0,0.0,0.0,0.0,0.0,0.0,0.0,0.0,0.0,0.0,0.0,0.0,0.0,0.0,0.0,0.0,0.0,2.359,2.3475,2.3402,2.3232,0.0,0.0,2.296,2.296,2.296,0.0,0.0,0.0,0.0,0.0,0.0,0.0,0.0,0.0,0.0,0.0,0.0,0.0,0.0,0.0,0.0,0.0,0.0,0.0,0.0,0.0,0.0,0.0,0.0,0.0,0.0,0.0,0.0,0.0,0.0,0.0,0.0,0.0,0.0,0.0,0.0,0.0,0.0,0.0,0.0,0.0,0.0,0.0,0.0,0.0,0.0,0.0,0.0,0.0,0.0,0.0,0.0,0.0,0.0,0.0,2.157,2.2254,2.2127,2.2367,2.3003,2.2778,2.2405,2.2045,2.157,2.1147,0.0,0.0,0.0,0.0,0.0,0.0,0.0,0.0,0.0,0.0,0.0,0.0,0.0,0.0,0.0,0.0,0.0,0.0,0.0,0.0,0.0,0.0,0.0,0.0,0.0,0.0,0.0,0.0,0.0,0.0,0.0,0.0,0.0,0.0,0.0,0.0,0.0,0.0,0.0,0.0,0.0,0.0,2.4689,2.4866,0.0,0.0,0.0,2.4301,2.4284,0.0,0.0,0.0,0.0,0.0,0.0,0.0,0.0,0.0,0.0,0.0,0.0,0.0,0.0,0.0,0.0,0.0,0.0,0.0,0.0,0.0,0.0,0.0,0.0,0.0,0.0,0.0,0.0,0.0,0.0,0.0,0.0,0.0,0.0,0.0,0.0,0.0,0.0,0.0,0.0,0.0,0.0,0.0,0.0,0.0,0.0,0.0,0.0,0.0,0.0,0.0,0.0,0.0,0.0,0.0,0.0,0.0,2.2999,2.2914,2.3251,2.4038,2.3827,2.3444,2.2967,2.2509,0.0,0.0,0.0,0.0,0.0,0.0,0.0,0.0,0.0,0.0,0.0,0.0,0.0,0.0,0.0,0.0,0.0,0.0,0.0,0.0,0.0,0.0,0.0,0.0,0.0,0.0,0.0,2.0363,0.0,0.0,0.0,0.0,0.0,0.0,0.0,0.0,0.0,0.0,0.0,0.0,0.0,0.0,2.6367,2.5997,2.641,2.6541,0.0,0.0,2.5873,2.5752,2.5594,2.536,0.0,0.0,0.0,0.0,0.0,0.0,0.0,0.0,0.0,0.0,0.0,0.0,0.0,0.0,0.0,0.0,0.0,0.0,0.0,0.0,0.0,0.0,0.0,0.0,0.0,0.0,0.0,0.0,0.0,0.0,0.0,0.0,0.0,0.0,0.0,0.0,0.0,0.0,0.0,0.0,0.0,0.0,0.0,0.0,0.0,0.0,0.0,0.0,0.0,0.0,0.0,0.0,0.0,0.0,2.3207,2.4246,2.4034,2.4306,2.5158,2.4943,2.4428,2.3655,2.3598,2.311,0.0,0.0,0.0,0.0,0.0,0.0,0.0,0.0,0.0,0.0,0.0,0.0,0.0,0.0,0.0,0.0,0.0,0.0,0.0,0.0,0.0,0.0,0.0,0.0,0.0,0.0,0.0,0.0,0.0,0.0,0.0,0.0,0.0,0.0,0.0,0.0,0.0,0.0,0.0,0.0,0.0,2.699,2.7169,2.7626,2.7972,0.0,2.7895,2.7749,2.7238,2.7149,2.6959,2.6471,0.0,0.0,0.0,0.0,0.0,0.0,0.0,0.0,0.0,0.0,0.0,0.0,0.0,0.0,0.0,0.0,0.0,0.0,0.0,0.0,0.0,0.0,0.0,0.0,0.0,0.0,0.0,0.0,0.0,0.0,0.0,0.0,0.0,0.0,0.0,0.0,0.0,0.0,0.0,0.0,0.0,0.0,0.0,0.0,0.0,0.0,0.0,0.0,0.0,0.0,0.0,0.0,0.0,2.393,2.4884,2.4792,2.5172,2.6003,2.5936,2.5484,2.4638,2.447,2.3806,0.0,0.0,0.0,0.0,0.0,0.0,0.0,0.0,0.0,0.0,0.0,0.0,0.0,0.0,0.0,0.0,0.0,0.0,0.0,0.0,0.0,0.0,0.0,0.0,0.0,0.0,0.0,0.0,2.2369,2.2488,2.291,0.0,0.0,0.0,0.0,0.0,0.0,0.0,0.0,0.0,0.0,2.8813,2.8592,2.9515,0.0,0.0,2.9574,2.9449,2.9038,2.8607,2.8162,2.758,2.7002,0.0,0.0,0.0,0.0,0.0,0.0,0.0,0.0,0.0,0.0,0.0,0.0,0.0,0.0,0.0,0.0,0.0,0.0,0.0,0.0,0.0,0.0,0.0,0.0,0.0,0.0,0.0,0.0,0.0,0.0,0.0,0.0,0.0,0.0,0.0,0.0,0.0,0.0,0.0,0.0,0.0,0.0,0.0,0.0,0.0,0.0,0.0,0.0,0.0,0.0,0.0,0.0,2.4679,2.5614,2.5634,2.6064,2.6945,2.6965,2.6535,2.5675,2.5442,2.4668,0.0,0.0,0.0,0.0,0.0,0.0,0.0,0.0,0.0,0.0,0.0,0.0,0.0,0.0,0.0,0.0,0.0,0.0,0.0,0.0,0.0,0.0,0.0,0.0,0.0,0.0,0.0,0.0,2.343,2.3541,2.3968,0.0,0.0,0.0,0.0,0.0,0.0,0.0,0.0,0.0,0.0,3.0292,2.9955,3.1127,3.1863,3.1341,3.1238,3.1043,3.0492,3.0002,2.9448,2.8718,0.0,0.0,0.0,0.0,0.0,0.0,0.0,0.0,0.0,0.0,0.0,0.0,0.0,0.0,0.0,0.0,0.0,0.0,0.0,0.0,0.0,0.0,0.0,0.0,0.0,0.0,0.0,2.8631,0.0,0.0,2.8348,0.0,0.0,0.0,0.0,0.0,0.0,0.0,0.0,0.0,0.0,0.0,0.0,0.0,0.0,0.0,0.0,0.0,0.0,0.0,0.0,0.0,0.0,2.5625,2.6549,2.657,2.7027,2.7955,2.7951,2.7505,2.6613,2.657,2.5781,2.4137,0.0,0.0,0.0,0.0,0.0,0.0,0.0,0.0,0.0,0.0,0.0,0.0,0.0,0.0,0.0,0.0,0.0,0.0,0.0,0.0,0.0,0.0,0.0,0.0,0.0,0.0,2.4187,2.4517,2.4926,0.0,0.0,0.0,0.0,0.0,0.0,0.0,0.0,0.0,0.0,3.0335,3.1153,3.132,3.2248,3.2912,3.2912,3.2912,3.2574,3.1549,3.1361,3.0997,0.0,0.0,0.0,0.0,0.0,0.0,0.0,0.0,0.0,0.0,0.0,0.0,0.0,0.0,0.0,0.0,0.0,0.0,0.0,0.0,0.0,0.0,0.0,0.0,0.0,0.0,0.0,2.9566,2.9452,0.0,0.0,0.0,0.0,0.0,0.0,0.0,0.0,0.0,0.0,0.0,2.8649,2.8242,0.0,0.0,0.0,0.0,0.0,0.0,0.0,0.0,0.0,0.0,0.0,0.0,2.6226,2.7261,2.7315,2.7864,2.8934,2.9013,2.855,2.7569,2.7525,2.6614,2.4618,0.0,0.0,0.0,0.0,0.0,0.0,0.0,0.0,0.0,0.0,0.0,0.0,0.0,0.0,0.0,0.0,0.0,0.0,0.0,0.0,0.0,0.0,0.0,0.0,0.0,2.5484,0.0,0.0,0.0,0.0,0.0,0.0,0.0,0.0,0.0,0.0,0.0,2.9643,3.0101,3.0996,3.1588,3.1641,3.2673,3.3436,0.0,0.0,0.0,0.0,0.0,0.0,0.0,0.0,0.0,0.0,0.0,0.0,0.0,0.0,3.0242,2.9604,2.9316,2.9162,2.8938,0.0,0.0,0.0,0.0,0.0,0.0,0.0,0.0,0.0,0.0,0.0,0.0,0.0,0.0,3.1139,3.0968,3.0703,0.0,0.0,0.0,0.0,0.0,0.0,0.0,0.0,3.0699,3.0577,3.0344,2.9939,2.9726,0.0,2.9125,2.8433,0.0,0.0,0.0,0.0,0.0,0.0,0.0,0.0,2.7074,2.8211,2.83,2.8831,2.992,2.9977,2.9578,2.8802,2.8265,2.7201,2.5639,2.4555,2.3865,0.0,0.0,0.0,0.0,0.0,0.0,0.0,0.0,0.0,0.0,0.0,0.0,0.0,0.0,0.0,0.0,0.0,0.0,0.0,0.0,0.0,0.0,0.0,2.7157,0.0,0.0,0.0,0.0,0.0,0.0,0.0,0.0,0.0,2.9928,3.0291,3.0797,3.1167,3.1861,3.2283,3.2245,0.0,0.0,0.0,0.0,0.0,0.0,0.0,3.2335,3.187,3.1877,3.2062,3.2417,3.2882,3.3093,3.28,0.0,0.0,3.1213,3.0914,3.088,3.0684,3.0912,3.1126,3.1218,3.1523,3.183,0.0,0.0,0.0,0.0,0.0,0.0,0.0,0.0,3.3081,3.3194,0.0,3.2365,0.0,0.0,0.0,0.0,3.2033,3.2227,0.0,0.0,3.1883,3.1764,3.1925,3.1402,3.1288,3.1493,3.0738,3.0331,3.0201,2.7878,0.0,0.0,0.0,0.0,0.0,0.0,2.8198,2.9393,2.944,2.9977,3.0944,3.0979,3.0744,3.019,2.8746,2.7695,2.7148,2.5995,2.5382,2.5345,2.4439,0.0,0.0,0.0,0.0,0.0,0.0,0.0,0.0,0.0,0.0,0.0,0.0,0.0,0.0,0.0,0.0,0.0,0.0,0.0,0.0,2.841,0.0,0.0,0.0,0.0,0.0,0.0,0.0,0.0,0.0,0.0,3.1566,3.1833,3.22,3.2417,0.0,0.0,0.0,0.0,3.388,3.3919,3.3919,3.3791,3.3416,3.333,3.317,3.2786,0.0,0.0,3.4211,3.4805,3.5036,3.4643,3.4929,3.474,3.2626,3.2206,3.2167,3.2289,3.2235,3.2233,3.2379,3.2457,3.2563,3.3887,0.0,0.0,0.0,0.0,3.3169,3.3525,3.357,3.367,3.4028,3.4488,3.3458,0.0,0.0,0.0,0.0,0.0,0.0,3.3245,3.3116,3.3081,3.3119,3.3191,3.2781,3.2567,3.25,3.2032,3.1643,3.1324,3.0209,2.9032,2.789,0.0,0.0,0.0,0.0,2.9274,3.0543,3.0616,3.1173,3.2358,3.2251,3.1779,3.0873,2.9689,2.8704,2.8064,2.7332,2.6745,2.6322,2.5688,0.0,0.0,0.0,0.0,0.0,0.0,0.0,0.0,0.0,0.0,0.0,0.0,0.0,0.0,0.0,0.0,0.0,0.0,0.0,2.9084,2.9123,2.9366,0.0,0.0,0.0,0.0,0.0,0.0,0.0,0.0,0.0,3.3733,3.3415,3.3199,0.0,0.0,3.306,3.2988,3.3367,3.3753,3.3983,3.4048,0.0,3.4283,3.3945,3.3614,3.3514,3.3988,3.4411,3.4371,3.5232,3.5809,3.5244,3.5646,3.5707,3.4875,3.3939,3.3316,3.2948,3.3025,3.3191,3.3271,3.3558,3.3819,3.5962,3.4939,3.4111,3.394,3.4152,3.495,3.53,3.5388,3.5388,3.5714,3.6207,3.5148,3.4992,3.5479,3.4884,0.0,0.0,0.0,3.4147,3.3949,3.3979,3.3966,3.394,3.3768,3.3599,3.3478,3.307,3.2743,3.2502,3.1665,3.0736,2.9729,0.0,0.0,2.9145,2.938,3.005,3.1075,3.1392,3.1975,3.2916,3.2869,3.237,3.1518,3.0637,2.9855,2.9226,2.8612,2.8089,2.7753,2.7164,2.6664,0.0,0.0,0.0,0.0,0.0,0.0,0.0,0.0,0.0,0.0,0.0,2.5852,2.6251,0.0,0.0,0.0,2.8999,2.9846,3.0085,3.0329,0.0,0.0,0.0,0.0,0.0,0.0,0.0,3.3776,3.4187,3.4539,3.485,3.4534,3.4182,3.4045,3.3839,3.3667,3.3563,0.0,3.3995,3.4193,3.4207,3.4326,3.4655,3.4393,3.4239,3.4587,3.4915,3.5185,3.5267,3.5891,3.6165,3.5789,3.5867,3.5952,3.5618,3.5,3.4472,3.4047,3.4058,3.4146,3.4091,3.4354,3.4522,3.7807,3.771,3.6387,3.6007,3.6332,3.7136,3.7595,3.7771,3.7771,3.7943,3.8179,3.7148,3.6798,3.6933,3.6358,0.0,3.575,3.5358,3.5044,3.481,3.4522,3.4397,3.4397,3.4397,3.4397,3.4384,3.3888,3.3639,3.3535,3.2411,3.1759,3.1487,3.0368,2.9909,3.0152,3.0152,3.0535,3.1253,3.1779,3.2331,3.2841,3.2867,3.2598,3.2021,3.1535,3.0932,3.0419,2.9781,2.9389,2.9376,2.8695,2.8042,2.7515,0.0,0.0,0.0,0.0,0.0,0.0,0.0,0.0,0.0,0.0,0.0,0.0,0.0,0.0,0.0,3.0527,0.0,3.094,3.1852,0.0,0.0,0.0,3.3164,3.3374,3.3701,3.4045,3.4414,0.0,0.0,3.518,3.5213,3.5129,3.4798,3.4731,3.4664,3.4481,3.4414,3.4448,3.4477,3.4462,3.4515,3.479,3.4779,3.4959,3.5564,3.5902,3.5928,3.621,3.6389,3.6291,3.5928,3.5805,3.5695,3.5455,3.5564,3.5665,3.541,3.5238,3.5113,3.4881,3.4867,3.4797,3.8706,3.8928,3.8912,3.8168,3.7029,3.7822,3.8209,3.8239,3.8426,3.8929,3.9447,3.8172,3.7531,3.742,3.7113,3.6769,3.6348,3.5991,3.5521,3.5044,3.4797,3.4577,3.4397,3.4397,3.4397,3.4384,3.4267,3.3979,3.3574,3.2842,3.2228,3.1707,3.102,3.0647,3.0584,3.0723,3.1084,3.163,3.1785,3.2097,3.2494,3.2507,3.2249,3.1641,3.15,3.119,3.0635,3.0455,3.0302,3.0163,2.9513,2.9193,2.9186,2.8328,0.0,0.0,0.0,0.0,0.0,0.0,0.0,0.0,0.0,2.7517,2.7719,0.0,2.9464,0.0,3.0785,3.1934,3.2632,3.2939,0.0,0.0,3.3693,3.3914,3.4128,3.4433,3.4721,3.4997,3.5228,3.5359,3.5439,3.5439,3.5407,3.5294,3.5063,3.4835,3.4802,3.4769,3.4835,3.4983,3.4983,3.5096,3.5276,3.5309,3.5353,3.5568,3.5598,3.5576,3.5511,3.5969,3.6143,3.5793,3.6067,3.6193,3.5978,3.5912,3.5784,3.5691,3.5701,3.5669,3.5318,3.5263,3.5195,3.9807,3.9952,4.043,4.0025,3.9072,3.9333,3.9471,3.9586,3.9728,4.0151,4.0689,3.9532,3.8697,3.8127,3.7924,3.7582,3.7169,3.6665,3.6111,3.548,3.5195,3.4921,3.4577,3.466,3.4605,3.4384,3.4342,3.412,3.371,3.2962,3.2421,3.2053,3.1538,3.1224,3.1112,3.1024,3.1143,3.1444,3.168,3.2046,3.2514,3.2371,3.2124,3.1772,3.1639,3.1402,3.1138,3.1112,3.1037,3.0936,3.071,3.0496,3.0352,2.9509,2.8992,0.0,0.0,0.0,0.0,0.0,0.0,0.0,0.0,0.0,0.0,0.0,3.0368,3.0976,3.2126,3.3069,3.3596,3.3825,3.4011,3.4167,3.437,3.4539,3.4735,3.4916,3.5115,3.5294,3.5439,3.5489,3.5489,3.5489,3.5489,3.5489,3.5294,3.518,3.518,3.518,3.5228,3.5326,3.5326,3.5359,3.5472,3.5489,3.5489,3.5489,3.5489,3.5472,3.5359,3.5609,3.5811,3.5625,3.5741,3.5879,3.5805,3.5866,3.583,3.5762,3.5957,3.5899,3.5249,3.5245,3.5316,4.083,4.0901,4.1354,4.1522,4.148,4.1114,4.1015,4.1113,4.117,4.1337,4.1592,4.0723,3.9833,3.887,3.8649,3.8366,3.7924,3.7366,3.6705,3.6017,3.5629,3.5195,3.4839,3.5017,3.4867,3.4509,3.4324,3.4086,3.3833,3.2942,3.2471,3.2339,3.191,3.1669,3.1633,3.136,3.1136,3.1061,3.1521,3.2044,3.2568,3.2237,3.2101,3.2112,3.1862,3.1706,3.173,3.1743,3.1743,3.1743,3.1927,3.178,3.1311,3.0626,3.0174,0.0,2.9173,0.0,0.0,0.0,0.0,0.0,0.0,0.0,0.0,3.0775,3.1517,3.303,3.3787,3.4221,3.4206,3.4568,3.4765,3.4798,3.4916,3.5034,3.5213,3.5246,3.5294,3.5472,3.5489,3.5489,3.5489,3.5489,3.5489,3.5504,3.5472,3.5457,3.5504,3.5472,3.5472,3.5489,3.5489,3.5457,3.5504,3.5489,3.5489,3.5489,3.5489,3.5489,3.5504,3.5519,3.5519,3.5487,3.5401,3.5288,3.5246,3.5603,3.5775,3.56,3.5901,3.5955,3.5203,3.5211,3.5289,4.1451,4.1798,4.209,4.2187,4.2228,4.2295,4.2129,4.1825,4.2034,4.1792,4.1174,4.0444,3.9825,3.928,3.9068,3.876,3.8366,3.7763,3.7042,3.6229,3.5831,3.544,3.5044,3.5072,3.5044,3.4964,3.4607,3.4165,3.3657,3.3163,3.2617,3.2158,3.205,3.1982,3.1996,0.0,0.0,0.0,3.1604,3.1785,3.2014,3.1957,3.2075,3.2341,3.2268,0.0,3.2503,3.2489,3.2489,3.2503,3.2525,0.0,0.0,0.0,0.0,0.0,0.0,0.0,0.0,0.0,0.0,0.0,3.1693,3.176,3.1257,3.2359,3.3449,3.4287,3.4595,3.482,3.4968,3.5049,3.5148,3.5341,3.5359,3.5407,3.5424,3.5439,3.5472,3.5504,3.5489,3.5489,3.5489,3.5489,3.5489,3.5489,3.5489,3.5489,3.5489,3.5489,3.5489,3.5489,3.5489,3.5489,3.5489,3.5489,3.5489,3.5489,3.5489,3.5489,3.5489,3.5489,3.5489,3.5489,3.5457,3.5439,3.5439,3.5511,3.555,3.5307,3.5378,3.5477,3.5626,3.5664,3.5661,4.2158,4.2374,4.2607,4.2688,0.0,4.289,4.289,4.2659,4.2673,4.2179,4.1203,4.0547,3.9942,3.9388,3.9301,3.9031,3.8612,3.8217,3.7582,3.6794,3.6468,3.6031,3.5562,3.5696,3.5616,3.5372,3.4893,3.4437,3.402,3.3542,3.3137,3.2846,3.2903,3.2925,3.296,3.303,3.2761,3.2141,3.2141,3.2191,3.23,3.248,3.2682,3.2846,3.3009,0.0,0.0,0.0,0.0,0.0,0.0,0.0,0.0,0.0,0.0,3.2309,3.1751,3.148,3.1558,3.2003,3.2302,3.2395,3.317,3.3391,3.2754,3.3873,3.4727,3.5067,3.5162,3.5228,3.5326,3.5359,3.5392,3.5457,3.5489,3.5489,3.5489,3.5489,3.5489,3.5489,3.5489,3.5489,3.5489,3.5489,3.5489,3.5489,3.5489,3.5489,3.5489,3.5489,3.5489,3.5489,3.5489,3.5489,3.5489,3.5489,3.5489,3.5489,3.5489,3.5489,3.5489,3.5489,3.5489,3.5489,3.5489,3.5489,3.5489,3.5489,3.5457,3.5374,3.5359,3.5424,3.5649,3.5654,3.5719,4.2729,4.2809,4.301,4.3036,4.3076,4.325,4.3305,4.3275,4.2862,0.0,0.0,4.0576,3.9933,3.9403,3.9388,3.9192,3.887,3.8627,3.8104,3.7419,3.7095,3.6665,3.6151,3.6298,3.6218,3.5856,3.5211,3.4854,3.4673,3.4051,3.3736,3.377,3.3845,3.3914,3.3934,3.3934,3.3673,3.3129,3.2988,3.2903,3.2938,3.3269,3.3479,3.3563,3.3825,3.3982,3.4002,3.4002,3.4002,3.4002,3.4138,3.4023,3.3516,3.3565,3.3451,3.3052,3.2954,3.2989,3.3099,3.3357,3.3568,3.3672,3.4289,3.462,3.446,3.5111,3.5489,3.5489,3.5489,3.5504,3.5489,3.5489,3.5489,3.5489,3.5489,3.5489,3.5489,3.5489,3.5489,3.5489,3.5489,3.5489,3.5489,3.5489,3.5489,3.5489,3.5489,3.5489,3.5489,3.5489,3.5489,3.5489,3.5489,3.5489,3.5489,3.5489,3.5489,3.5489,3.5489,3.5489,3.5489,3.5489,3.5489,3.5489,3.5489,3.5489,3.5489,3.5489,3.5489,3.5489,3.5489,3.5489,3.5502,3.5544,3.5722,4.289,4.321,4.325,4.325,4.3235,4.329,4.3305,4.32,4.2109,4.1564,4.1332,4.0083,3.9463,3.9388,3.9388,3.9265,3.9031,3.8649,3.824,3.781,3.725,3.6861,3.6601,3.6457,3.6457,3.6503,3.5704,3.541,3.5423,3.4712,3.4312,3.4278,3.4298,3.4414,3.4549,3.4597,3.4582,3.4587,3.3968,3.3728,3.3899,3.3982,3.4167,3.4481,3.4563,3.4635,3.4754,3.4754,3.4754,3.4754,3.4787,3.481,3.4886,3.4386,3.4127,3.4213,3.3721,3.3392,3.3453,3.3992,3.4607,3.5128,3.5277,3.537,3.5322,3.5412,3.5489,3.5489,3.5489,3.5489,3.5489,3.5489,3.5489,3.5489,3.5489,3.5489,3.5489,3.5489,3.5489,3.5489,3.5489,3.5489,3.5489,3.5489,3.5489,3.5489,3.5489,3.5489,3.5489,3.5489,3.5489,3.5489,3.5489,3.5489,3.5489,3.5489,3.5489,3.5489,3.5489,3.5489,3.5489,3.5489,3.5489,3.5489,3.5489,3.5489,3.5489,3.5489,3.5489,3.5489,3.5489,3.5489,3.5504,3.5553,3.5804,4.2809,4.297,4.309,4.3155,4.317,4.325,4.3305,4.317,4.1938,4.1422,4.125,3.9993,3.9388,3.9388,3.9388,3.9301,3.9104,3.8922,3.8538,3.8052,3.7787,3.7404,3.7056,3.7031,3.7031,3.7,3.6636,3.6301,3.6028,3.558,3.5203,3.4879,3.4931,3.503,3.5129,3.5144,3.5162,3.5228,3.4687,3.4438,3.4539,3.4654,3.4754,3.4964,3.5063,3.5162,3.5213,3.5213,3.5213,3.5228,3.5228,3.513,3.4837,3.4852,3.4797,3.4548,3.4547,3.4577,3.4592,3.4861,3.516,3.5474,3.5489,3.5669,3.6013,3.5714,3.5489,3.5489,3.5489,3.5489,3.5489,3.5489,3.5489,3.5489,3.5489,3.5489,3.5489,3.5489,3.5489,3.5489,3.5489,3.5489,3.5489,3.5489,3.5489,3.5489,3.5489,3.5489,3.5489,3.5489,3.5489,3.5489,3.5489,3.5489,3.5489,3.5489,3.5489,3.5489,3.5489,3.5489,3.5489,3.5489,3.5489,3.5489,3.5489,3.5489,3.5489,3.5489,3.5489,3.5489,3.5489,3.5489,3.5534,3.5998,3.6596,4.25,4.2662,4.2795,4.2915,4.3021,4.321,4.32,4.3,4.1878,4.1294,4.101,3.9918,3.9388,3.9388,3.9388,3.9301,3.9177,3.9068,3.8775,3.8352,3.8179,3.7801,3.7419,3.7495,3.7457,3.7386,3.737,3.7085,3.6654,3.6374,3.5933,3.5353,3.5439,3.5489,3.5489,3.5489,3.5489,3.5472,3.5195,3.5034,3.5049,3.5195,3.5261,3.5294,3.5407,3.5489,3.5489,3.5489,3.5489,3.5489,3.5489,3.5265,3.4771,3.5205,3.5265,3.4831,3.5205,3.5489,3.5489,3.5489,3.5489,3.5489,3.5489,3.5789,3.6342,3.6028,3.5729,3.5744,3.5744,3.5684,3.5534,3.5489,3.5489,3.5489,3.5489,3.5489,3.5489,3.5489,3.5489,3.5489,3.5489,3.5489,3.5489,3.5489,3.5489,3.5489,3.5489,3.5489,3.5489,3.5489,3.5489,3.5489,3.5489,3.5489,3.5489,3.5489,3.5489,3.5489,3.5489,3.5489,3.5489,3.5489,3.5489,3.5489,3.5489,3.5489,3.5489,3.5489,3.5489,3.5489,3.5489,3.5489,3.5534,3.6477,3.7212,4.1868,4.2392,4.2374,4.2648,4.2936,4.3165,4.297,4.2425,4.1707,4.104,4.0472,3.9723,3.9388,3.9388,3.9388,3.9373,3.9337,3.898,3.8797,3.8634,3.7976,3.761,3.7534,3.7419,3.7419,3.7539,3.7527,3.7557,3.7546,3.6822,3.6129,3.5547,3.5472,3.5489,3.5489,3.5489,3.5489,3.5489,3.5472,3.5439,3.5439,3.5472,3.5457,3.5472,3.5472,3.5489,3.5489,3.5489,3.5489,3.5489,3.5489,3.5474,3.5415,3.5459,3.5474,3.54,3.5459,3.5489,3.5489,3.5489,3.5489,3.5489,3.5519,3.5804,3.6447,3.6447,3.6387,3.6387,3.6387,3.6103,3.5594,3.5489,3.5489,3.5489,3.5489,3.5489,3.5489,3.5489,3.5489,3.5489,3.5489,3.5489,3.5489,3.5489,3.5489,3.5489,3.5489,3.5489,3.5489,3.5489,3.5489,3.5489,3.5489,3.5489,3.5489,3.5489,3.5489,3.5489,3.5489,3.5489,3.5489,3.5489,3.5489,3.5489,3.5489,3.5489,3.5489,3.5489,3.5489,3.5489,3.5489,3.5489,3.5624,3.6522,3.7182,4.0171,4.0498,4.0646,4.1073,4.1656,4.1921,4.1927,4.1767,4.1085,4.0562,4.0174,3.9496,3.9301,3.9388,3.9265,3.9228,3.9192,3.8943,3.8671,3.8412,3.8089,3.7763,3.7457,3.7586,3.7663,3.7649,3.8038,3.8105,3.7697,3.6935,3.6342,3.6058,3.5714,3.5489,3.5489,3.5489,3.5489,3.5489,3.5489,3.5489,3.5489,3.5489,3.5489,3.5489,3.5489,3.5489,3.5489,3.5489,3.5489,3.5489,3.5489,3.5489,3.5489,3.5489,3.5489,3.5489,3.5489,3.5489,3.5489,3.5489,3.5489,3.5489,3.5878,3.6357,3.6956,3.7045,3.703,3.6985,3.6686,3.6222,3.5609,3.5489,3.5489,3.5489,3.5489,3.5489,3.5489,3.5489,3.5489,3.5489,3.5489,3.5489,3.5489,3.5489,3.5489,3.5489,3.5489,3.5489,3.5489,3.5489,3.5489,3.5489,3.5489,3.5489,3.5489,3.5489,3.5489,3.5489,3.5489,3.5489,3.5489,3.5489,3.5489,3.5489,3.5489,3.5489,3.5489,3.5489,3.5489,3.5489,3.5489,3.5489,3.5489,3.6522,3.7187,3.86,3.8982,3.9318,3.9931,4.0656,4.0849,4.0937,4.0881,4.0457,4.0033,3.9624,3.9151,3.8995,3.9046,3.8958,3.8922,3.887,3.8612,3.8315,3.8014,3.7901,3.762,3.7264,3.761,3.7777,3.7787,3.8449,3.8516,3.7908,3.7163,3.6656,3.6417,3.5833,3.5489,3.5489,3.5489,3.5489,3.5489,3.5489,3.5489,3.5489,3.5489,3.5489,3.5489,3.5489,3.5489,3.5489,3.5489,3.5489,3.5489,3.5489,3.5489,3.5489,3.5489,3.5489,3.5489,3.5489,3.5489,3.5489,3.5489,3.5489,3.5564,3.6118,3.6671,3.7075,3.7315,3.7315,3.7105,3.6746,3.6207,3.5609,3.5489,3.5489,3.5489,3.5489,3.5489,3.5489,3.5489,3.5489,3.5489,3.5489,3.5489,3.5489,3.5489,3.5489,3.5489,3.5489,3.5489,3.5489,3.5489,3.5489,3.5489,3.5489,3.5489,3.5489,3.5489,3.5489,3.5489,3.5489,3.5489,3.5489,3.5489,3.5489,3.5489,3.5489,3.5489,3.5489,3.5489,3.5489,3.5489,3.5489,3.5489,3.5489,3.6567,3.7225,3.7642,3.8283,3.9143,3.9646,4.0197,4.0388,4.0259,3.9866,3.9822,3.937,3.8647,3.8545,3.8441,3.8254,3.8366,3.8478,3.8441,3.7953,3.7649,3.7572,3.7264,3.7056,3.707,3.7419,3.7687,3.7886,3.8486,3.8669,3.8336,3.7684,3.706,3.6492,3.5878,3.5519,3.5504,3.5489,3.5489,3.5489,3.5489,3.5489,3.5489,3.5489,3.5489,3.5489,3.5489,3.5489,3.5489,3.5489,3.5489,3.5489,3.5489,3.5489,3.5489,3.5489,3.5489,3.5489,3.5489,3.5489,3.5489,3.5489,3.5519,3.5624,3.6193,3.6537,3.6716,3.7135,3.7165,3.6611,3.6492,3.6148,3.5624,3.5489,3.5489,3.5489,3.5489,3.5489,3.5489,3.5489,3.5489,3.5489,3.5489,3.5489,3.5489,3.5489,3.5489,3.5489,3.5489,3.5489,3.5489,3.5489,3.5489,3.5489,3.5489,3.5489,3.5489,3.5489,3.5489,3.5489,3.5489,3.5489,3.5489,3.5489,3.5489,3.5489,3.5489,3.5489,3.5489,3.5489,3.5489,3.5489,3.5489,3.5489,3.5489,3.6567,3.721,3.6155,3.6634,3.7212,3.7808,3.8374,3.8553,3.8692,3.8754,3.8777,3.8434,3.7982,3.7915,3.7763,3.7443,3.7183,3.7376,3.7839,3.7419,3.7162,3.7017,3.6861,3.6797,3.6864,3.724,3.7596,3.7976,3.8509,3.8898,3.897,3.8362,3.7719,3.7075,3.6447,3.5938,3.5579,3.5489,3.5489,3.5489,3.5489,3.5489,3.5489,3.5489,3.5489,3.5489,3.5489,3.5489,3.5489,3.5489,3.5489,3.5489,3.5489,3.5489,3.5489,3.5489,3.5489,3.5489,3.5489,3.5489,3.5489,3.5489,3.5699,3.6133,3.6716,3.703,3.7105,3.7255,3.715,3.6567,3.6058,3.5729,3.5594,3.5489,3.5489,3.5489,3.5489,3.5489,3.5489,3.5489,3.5489,3.5489,3.5489,3.5489,3.5489,3.5489,3.5489,3.5489,3.5489,3.5489,3.5489,3.5489,3.5489,3.5489,3.5489,3.5489,3.5489,3.5489,3.5489,3.5489,3.5489,3.5489,3.5489,3.5489,3.5489,3.5489,3.5489,3.5489,3.5489,3.5489,3.5489,3.5489,3.5489,3.5489,3.5489,3.6462,3.7,3.5195,3.5521,3.5857,3.6401,3.6964,3.712,3.739,3.7787,3.7825,3.7634,3.7341,3.7211,3.6978,3.6626,3.6203,3.6282,3.6836,3.6587,3.6443,3.631,3.635,3.6403,3.6496,3.6954,3.7419,3.7848,3.8575,3.9068,3.9298,3.8721,3.8167,3.7704,3.6926,3.6267,3.5863,3.5609,3.5489,3.5489,3.5489,3.5489,3.5489,3.5489,3.5489,3.5489,3.5489,3.5489,3.5489,3.5489,3.5489,3.5489,3.5489,3.5489,3.5489,3.5489,3.5489,3.5489,3.5489,3.5489,3.5489,3.5489,3.5699,3.6133,3.6716,3.706,3.6851,3.6985,3.6776,3.6252,3.5818,3.5489,3.5489,3.5489,3.5489,3.5489,3.5489,3.5489,3.5489,3.5489,3.5489,3.5489,3.5489,3.5489,3.5489,3.5489,3.5489,3.5489,3.5489,3.5489,3.5489,3.5489,3.5489,3.5489,3.5489,3.5489,3.5489,3.5489,3.5489,3.5489,3.5489,3.5489,3.5489,3.5489,3.5489,3.5489,3.5489,3.5489,3.5489,3.5489,3.5489,3.5489,3.5489,3.5489,3.5804,3.6267,3.6851,3.4921,3.5127,3.5331,3.5777,3.6269,3.6308,3.6559,3.694,3.6978,3.6861,3.6626,3.6427,3.6203,3.5951,3.5588,3.544,3.5521,3.5467,3.5467,3.5521,3.5642,3.5764,3.5831,3.6587,3.725,3.7711,3.8612,3.9177,3.9343,3.8811,3.8437,3.8138,3.721,3.6611,3.6462,3.5878,3.5549,3.5504,3.5489,3.5489,3.5489,3.5489,3.5489,3.5489,3.5489,3.5489,3.5489,3.5489,3.5489,3.5489,3.5489,3.5489,3.5489,3.5489,3.5489,3.5489,3.5489,3.5489,3.5489,3.5489,3.5519,3.5789,3.6193,3.6372,3.6058,3.6282,3.6312,3.5759,3.5549,3.5489,3.5489,3.5489,3.5489,3.5489,3.5489,3.5489,3.5489,3.5489,3.5489,3.5489,3.5489,3.5489,3.5489,3.5489,3.5489,3.5489,3.5489,3.5489,3.5489,3.5489,3.5489,3.5489,3.5489,3.5489,3.5489,3.5489,3.5489,3.5489,3.5489,3.5489,3.5489,3.5489,3.5489,3.5489,3.5489,3.5489,3.5489,3.5489,3.5489,3.5489,3.5489,3.5504,3.5789,3.6193,3.6896,3.466,3.488,3.4962,3.5236,3.5656,3.5656,3.5871,3.6111,3.6111,3.6005,3.5844,3.571,3.5588,3.5358,3.5072,3.4962,3.4962,3.4825,3.4895,3.5168,3.5236,3.544,3.575,3.6243,3.7028,3.7976,3.8612,3.898,3.9133,3.9113,3.8871,3.8362,3.8003,3.733,3.6567,3.6267,3.5998,3.5534,3.5489,3.5489,3.5489,3.5489,3.5489,3.5489,3.5489,3.5489,3.5489,3.5489,3.5489,3.5489,3.5489,3.5489,3.5489,3.5489,3.5489,3.5489,3.5489,3.5489,3.5489,3.5519,3.5699,3.6073,3.6387,3.6387,3.6222,3.6372,3.6222,3.5654,3.5504,3.5489,3.5489,3.5489,3.5564,3.5504,3.5489,3.5489,3.5489,3.5489,3.5489,3.5489,3.5489,3.5489,3.5489,3.5489,3.5504,3.5472,3.5472,3.5472,3.5472,3.5457,3.5489,3.5489,3.5489,3.5489,3.5489,3.5489,3.5489,3.5489,3.5489,3.5489,3.5489,3.5489,3.5489,3.5489,3.5489,3.5489,3.5489,3.5489,3.5489,3.5489,3.5489,3.5534,3.5609,3.6148,3.6956,3.4494,3.466,3.4577,3.4714,3.5031,3.4949,3.5018,3.5182,3.5223,3.5141,3.5031,3.4949,3.4825,3.4701,3.4494,3.441,3.4369,3.4314,3.4452,3.4756,3.4921,3.5113,3.5467,3.6044,3.6872,3.7863,3.8464,3.8848,3.9104,3.9286,3.9185,3.8811,3.8527,3.8018,3.721,3.6911,3.6507,3.5953,3.5878,3.5759,3.5549,3.5489,3.5489,3.5489,3.5489,3.5489,3.5489,3.5489,3.5489,3.5489,3.5489,3.5489,3.5489,3.5489,3.5489,3.5489,3.5489,3.5489,3.5489,3.5504,3.5654,3.6073,3.6342,3.651,3.6522,3.6626,3.6596,3.6312,3.6252,3.6207,3.6222,3.6237,3.6207,3.6222,3.5759,3.5534,3.5489,3.5489,3.5489,3.5489,3.5489,3.5489,3.5489,3.5489,3.5472,3.5439,3.5407,3.5326,3.5326,3.5311,3.5359,3.5424,3.5457,3.5457,3.5489,3.5489,3.5489,3.5489,3.5489,3.5489,3.5489,3.5489,3.5489,3.5489,3.5489,3.5489,3.5489,3.5489,3.5489,3.5489,3.5639,3.5699,3.5893,3.6492,3.7225,3.4397,3.4356,3.4202,3.4243,3.4397,3.4243,3.423,3.4369,3.4397,3.4397,3.4356,3.423,3.4118,3.4076,3.3937,3.3797,3.3755,3.3992,3.4076,3.4243,3.4507,3.4756,3.5031,3.5817,3.6638,3.7481,3.8142,3.8627,3.8995,3.9228,3.9388,3.9254,3.876,3.8372,3.8103,3.7684,3.7097,3.6511,3.6503,3.6219,3.5726,3.5699,3.5699,3.5729,3.5744,3.5759,3.5804,3.5818,3.5669,3.5519,3.5504,3.5549,3.5579,3.5564,3.5624,3.5744,3.5639,3.5729,3.5669,3.5818,3.5804,3.5938,3.6372,3.6537,3.6671,3.703,3.7255,3.7195,3.721,3.7285,3.7255,3.724,3.7255,3.7225,3.6417,3.5863,3.5654,3.5654,3.5669,3.5624,3.5549,3.5489,3.5489,3.5472,3.5392,3.5279,3.5195,3.5082,3.5049,3.5082,3.518,3.5261,3.5359,3.5424,3.5472,3.5489,3.5489,3.5489,3.5489,3.5504,3.5504,3.5504,3.5489,3.5489,3.5684,3.5624,3.5684,3.5818,3.5923,3.6058,3.6103,3.6043,3.6387,3.7015,3.7509,3.4397,3.4356,3.4202,3.4118,3.416,3.3894,3.3865,3.3894,3.3907,3.3985,3.392,3.381,3.3874,3.3823,3.3751,3.3713,3.379,3.3819,3.381,3.381,3.3894,3.4397,3.499,3.5588,3.6217,3.694,3.761,3.8104,3.8679,3.8995,3.9228,3.9388,3.9035,3.8606,3.8189,3.7875,3.7375,3.6842,3.6872,3.6866,3.6688,3.6764,3.6896,3.6896,3.6866,3.6866,3.6896,3.6911,3.6417,3.5564,3.5489,3.5744,3.6178,3.6237,3.6387,3.6731,3.6851,3.6881,3.6866,3.6851,3.6866,3.6911,3.703,3.7165,3.7165,3.73,3.7404,3.7404,3.7404,3.7449,3.7434,3.7464,3.7449,3.7375,3.712,3.6881,3.6746,3.6507,3.6237,3.6193,3.5818,3.5594,3.5532,3.5374,3.5261,3.5148,3.4983,3.4817,3.4769,3.4817,3.4898,3.5129,3.5261,3.5374,3.5439,3.5472,3.5489,3.5489,3.5504,3.5504,3.5519,3.5549,3.5519,3.5489,3.6103,3.6237,3.6432,3.6611,3.6671,3.6626,3.6761,3.6806,3.7135,3.7644,3.7973,3.5087,3.4972,3.4757,3.4585,3.4512,3.4214,3.4127,3.4139,3.4127,3.4139,3.4139,3.4139,3.4139,3.4139,3.4139,3.4139,3.4139,3.4226,3.4155,3.3905,3.3798,3.4118,3.4771,3.5304,3.5911,3.6573,3.7264,3.7877,3.8366,3.876,3.9017,3.9068,3.8958,3.8642,3.831,3.804,3.7623,3.7147,3.7157,3.7161,3.688,3.7144,3.7233,3.7302,3.7336,3.7404,3.7389,3.7389,3.7015,3.6462,3.6327,3.6477,3.6806,3.6881,3.7045,3.7389,3.7404,3.7389,3.7404,3.7404,3.7404,3.7464,3.7614,3.7793,3.7898,3.8048,3.8222,3.8287,3.8257,3.8257,3.8257,3.8257,3.8242,3.8302,3.8242,3.8033,3.7524,3.7075,3.6896,3.6731,3.6342,3.5923,3.5908,3.552,3.5207,3.4964,3.475,3.4582,3.4448,3.453,3.4664,3.4898,3.5162,3.5294,3.5392,3.5424,3.5496,3.5496,3.5475,3.5478,3.5598,3.5675,3.5845,3.601,3.6503,3.6911,3.7041,3.7131,3.712,3.7165,3.7375,3.7614,3.7868,3.8093,3.8422,3.5947,3.5766,3.5487,3.5277,3.5047,3.4803,3.46,3.4688,3.4613,3.467,3.4625,3.4688,3.4607,3.468,3.4557,3.4675,3.4663,3.4774,3.4603,3.4299,3.4104,3.4229,3.4637,3.4987,3.5548,3.6203,3.7056,3.7596,3.8014,3.8464,3.8671,3.8686,3.8516,3.8404,3.8175,3.8107,3.7734,3.73,3.7368,3.7237,3.6974,3.7237,3.7479,3.7499,3.7694,3.7769,3.7759,3.7734,3.7659,3.7629,3.7509,3.7375,3.7449,3.7509,3.7614,3.7734,3.7823,3.7793,3.7689,3.7808,3.7719,3.7868,3.8272,3.8482,3.8571,3.8916,3.9149,3.9119,3.9373,3.9209,3.9194,3.9284,3.9209,3.9134,3.929,3.8745,3.7938,3.7554,3.7494,3.7464,3.6956,3.6641,3.6365,3.5919,3.5281,3.539,3.4956,3.4542,3.4373,3.4326,3.4486,3.4664,3.4916,3.5195,3.5294,3.5392,3.546,3.5484,3.544,3.5481,3.5751,3.5937,3.625,3.6615,3.7044,3.7312,3.7466,3.753,3.7654,3.7819,3.8118,3.8257,3.8362,3.8542,3.8811,3.5841,3.5766,3.5322,3.5143,3.5053,3.4816,3.4705,3.4763,3.4718,3.4826,3.4705,3.4705,3.4731,3.4731,3.4826,3.468,3.4768,3.4846,3.467,3.4652,3.4774,3.4819,3.4853,3.4835,3.503,3.5656,3.6282,3.6872,3.7443,3.7848,3.8188,3.8277,3.7938,3.7801,3.7725,3.739,3.7222,3.7105,3.7368,3.7433,3.7417,3.7791,3.8084,3.8135,3.8477,3.8752,3.894,3.899,3.899,3.8736,3.8093,3.7764,3.8093,3.8182,3.8377,3.8736,3.8886,3.8895,3.8925,3.8835,3.896,3.885,3.896,3.92,3.92,3.929,3.9388,3.9388,3.9388,3.9388,3.9388,3.9388,3.9388,3.9388,3.9373,3.9284,3.896,3.8482,3.8212,3.8048,3.7609,3.7157,3.6985,3.6527,3.6093,3.5842,3.5265,3.4647,3.4418,3.4274,3.4367,3.4564,3.4597,3.4865,3.5108,3.5215,3.5351,3.5442,3.5424,3.553,3.5833,3.6079,3.6354,3.6862,3.7445,3.7723,3.7972,3.8471,3.8701,3.8805,3.8805,3.8886,3.8931,3.9065,3.9065,3.6328,3.6211,3.5951,3.5826,3.5676,3.555,3.5491,3.5491,3.5491,3.5491,3.5491,3.5491,3.5491,3.5491,3.5491,3.5504,3.5416,3.5203,3.5056,3.5039,3.5012,3.4951,3.5047,3.4922,3.5031,3.5552,3.6157,3.6626,3.6878,3.7159,3.7429,3.7596,3.7211,3.6989,3.6925,3.6626,3.6468,3.6559,3.6847,3.7042,3.725,3.7763,3.8292,3.8478,3.8811,3.9068,3.9184,3.9307,3.9373,3.9209,3.8715,3.8482,3.8781,3.8871,3.908,3.9284,3.9388,3.9388,3.9373,3.9388,3.9343,3.9388,3.9388,3.9388,3.9388,3.9388,3.9388,3.9388,3.9388,3.9388,3.9388,3.9388,3.9388,3.9388,3.9388,3.9388,3.9328,3.9095,3.8835,3.8629,3.8147,3.7673,3.7329,3.6906,3.6266,3.5741,3.5416,3.4806,3.4564,3.4447,3.4434,3.4493,3.4418,3.4525,3.4804,3.5028,3.521,3.5314,3.5414,3.5612,3.5933,3.6122,3.6381,3.704,3.7723,3.8314,3.8644,3.919,3.9388,3.9239,3.9179,3.9328,3.9358,3.9239,3.9224,3.6909,3.6722,3.6675,3.6534,3.6417,3.638,3.6342,3.6367,3.6417,3.6267,3.6405,3.6417,3.6241,3.6367,3.6329,3.6392,3.6254,3.5931,3.5667,3.5617,3.5316,3.5327,3.5388,3.5455,3.5461,3.5703,3.6035,3.6225,3.6318,3.6417,3.6587,3.6705,3.6401,3.6243,3.6084,3.5871,3.5723,3.5911,3.6084,3.6282,3.6547,3.7056,3.7634,3.8217,3.8501,3.876,3.9017,3.9213,3.9337,3.9388,3.9388,3.9388,3.9388,3.9388,3.9388,3.9388,3.9388,3.9388,3.9388,3.9388,3.9388,3.9388,3.9388,3.9388,3.9388,3.9388,3.9388,3.9388,3.9388,3.9316,3.9352,3.9265,3.9265,3.9301,3.9301,3.9352,3.9316,3.9352,3.919,3.9007,3.8506,3.7994,3.7528,3.707,3.6349,3.5702,3.5386,3.5078,3.485,3.4622,3.4643,3.4754,3.4725,3.4765,3.5018,3.5097,3.5245,3.5325,3.5392,3.5676,3.5985,3.6231,3.6541,3.7316,3.7996,3.8502,3.8876,3.9111,3.9265,3.9352,3.9388,3.9388,3.9388,3.9388,3.9388,3.6722,3.6675,3.6546,3.6465,3.6417,3.6417,3.6417,3.6417,3.6417,3.6417,3.6417,3.6417,3.6417,3.6417,3.6417,3.6417,3.6355,3.6169,3.6157,3.6157,3.5981,3.6049,3.6058,3.6134,3.6141,3.582,3.5726,3.5738,3.5878,3.575,3.594,3.5912,3.5764,3.5615,3.5602,3.5331,3.5275,3.5412,3.5548,3.5629,3.5831,3.6282,3.6911,3.7634,3.7924,3.83,3.876,3.9017,3.9213,3.9373,3.9388,3.9388,3.9418,3.9418,3.9448,3.9388,3.9388,3.9352,3.9388,3.9373,3.9388,3.9388,3.9388,3.9388,3.9388,3.9388,3.9388,3.9301,3.9228,3.9141,3.9141,3.898,3.8892,3.8929,3.9017,3.9053,3.8995,3.8995,3.9031,3.8855,3.8554,3.817,3.7543,3.7039,3.6495,3.5917,3.5512,3.538,3.5231,3.5,3.4822,3.5012,3.5204,3.5234,3.5344,3.5336,3.5382,3.54,3.5481,3.5659,3.5972,3.6274,3.6763,3.7277,3.7843,3.8361,3.8708,3.9031,3.9192,3.9301,3.9352,3.9388,3.9337,3.9301,3.9388,3.6546,3.6534,3.6465,3.6417,3.6417,3.6417,3.6417,3.6417,3.6417,3.6417,3.6417,3.6417,3.6417,3.6417,3.6417,3.6417,3.6417,3.6417,3.6417,3.6417,3.6417,3.6417,3.6417,3.6499,3.6407,3.6084,3.5685,3.5515,3.5761,3.5683,3.5672,3.5823,3.5682,3.5597,3.5603,3.5292,3.5189,3.5249,3.5244,3.5153,3.5263,3.5683,3.623,3.6808,3.7303,3.7734,3.8263,3.876,3.9031,3.9228,3.9352,3.9388,3.9457,3.9599,3.9652,3.9457,3.9361,3.9294,3.928,3.9265,3.9213,3.9265,3.9382,3.9388,3.9388,3.9388,3.9412,3.9222,3.8922,3.8775,3.8775,3.8604,3.8575,3.8649,3.8738,3.8701,3.8649,3.8649,3.8538,3.8389,3.8144,3.7724,3.7256,3.6813,3.6531,3.6107,3.5664,3.5515,3.5512,3.526,3.4947,3.5121,3.5268,3.518,3.5274,3.539,3.5332,3.5347,3.5401,3.5583,3.5773,3.599,3.6429,3.6922,3.7544,3.8127,3.8649,3.8995,3.9104,3.9228,3.9228,3.9213,3.9213,3.925,3.9265,3.6417,3.6417,3.6417,3.6417,3.6417,3.6417,3.6417,3.6417,3.6417,3.6417,3.6417,3.6417,3.6417,3.6417,3.6417,3.6417,3.6417,3.6417,3.6417,3.6417,3.6417,3.6417,3.6417,3.6417,3.638,3.6314,3.5999,3.5691,3.5692,3.5587,3.5701,3.5786,3.5688,3.574,3.5703,3.531,3.531,3.5269,3.5191,3.5028,3.5211,3.546,3.5804,3.6386,3.6881,3.7518,3.8173,3.8815,3.923,3.9454,3.9609,3.9727,3.972,4.001,4.0003,3.9646,3.9469,3.9417,3.9476,3.9521,3.9624,3.9765,3.9727,3.9785,3.9852,3.9949,3.9735,3.9343,3.9067,3.8839,3.8821,3.8393,3.826,3.8292,3.8295,3.8217,3.8089,3.7976,3.7749,3.7634,3.7582,3.7236,3.6691,3.6336,3.5977,3.579,3.5359,3.5373,3.5305,3.5143,3.4991,3.5171,3.5256,3.5049,3.5118,3.5315,3.5253,3.514,3.517,3.5265,3.5454,3.5629,3.6111,3.6547,3.7173,3.7734,3.8337,3.8833,3.8922,3.8995,3.9017,3.9017,3.9017,3.9053,3.9053,3.6417,3.6417,3.6417,3.6417,3.6417,3.6417,3.6417,3.6417,3.6417,3.6417,3.6417,3.6417,3.6417,3.6417,3.6417,3.6417,3.6417,3.6417,3.6417,3.6417,3.6417,3.6417,3.6417,3.6417,3.6417,3.6405,3.6317,3.6096,3.5918,3.5506,3.5366,3.5583,3.5635,3.5494,3.575,3.55,3.5353,3.5416,3.537,3.5425,3.5587,3.5792,3.6141,3.6641,3.7218,3.7841,3.8368,3.9061,3.9644,4.009,4.0356,4.0492,4.0551,4.058,4.0509,4.0382,4.0406,4.0483,4.0341,4.0262,4.03,4.0423,4.0679,4.0926,4.08,4.0672,4.0444,4.029,3.9789,3.9319,3.8924,3.8405,3.8116,3.7848,3.7739,3.7487,3.7321,3.7275,3.7056,3.673,3.6598,3.6415,3.6045,3.5723,3.544,3.5236,3.5113,3.5154,3.5168,3.5035,3.5036,3.5183,3.5262,3.5112,3.5004,3.5196,3.5117,3.4982,3.4926,3.4949,3.5154,3.5399,3.5669,3.6151,3.6769,3.7327,3.7863,3.8277,3.8575,3.8686,3.8671,3.8745,3.8819,3.8819,3.8745,3.6417,3.6417,3.6417,3.6417,3.6417,3.6417,3.6417,3.6417,3.6417,3.6417,3.6417,3.6417,3.6417,3.6417,3.6417,3.6417,3.6417,3.6417,3.6417,3.6417,3.6417,3.6417,3.6417,3.6417,3.6417,3.6417,3.6405,3.6317,3.6117,3.5991,3.5886,3.5927,3.594,3.6075,3.5996,3.5818,3.5807,3.5769,3.5622,3.5487,3.5531,3.5677,3.5942,3.6367,3.6973,3.7612,3.827,3.8968,3.9602,4.0,4.0354,4.051,4.0534,4.0621,4.0615,4.0429,4.0572,4.0507,4.0195,4.0294,4.0495,4.0607,4.0777,4.0867,4.0965,4.0777,4.0466,4.0064,3.9547,3.9132,3.8793,3.8185,3.7951,3.7675,3.7368,3.716,3.6884,3.6538,3.635,3.5977,3.567,3.5724,3.5736,3.5463,3.5191,3.4853,3.4784,3.4825,3.4949,3.5019,3.5074,3.5156,3.521,3.5183,3.5076,3.5075,3.4953,3.4802,3.4624,3.4701,3.4921,3.5154,3.5399,3.575,3.6282,3.6847,3.7327,3.7787,3.8127,3.8225,3.8285,3.83,3.83,3.8285,3.8263,3.6417,3.6417,3.6417,3.6417,3.6417,3.6417,3.6417,3.6417,3.6417,3.6417,3.6417,3.6417,3.6417,3.6417,3.6417,3.6417,3.6417,3.6417,3.6417,3.6417,3.6417,3.6417,3.6417,3.6417,3.6417,3.6417,3.6417,3.638,3.6392,3.6342,3.6292,3.6417,3.6288,3.6398,3.6442,3.6248,3.6113,3.6213,3.592,3.5754,3.5716,3.5794,3.6019,3.6397,3.6832,3.7374,3.802,3.8824,3.9463,3.9875,4.0311,4.0545,4.0547,4.0617,4.0514,4.0377,4.0365,4.021,4.005,4.011,4.0305,4.0546,4.0771,4.1184,4.1086,4.0651,4.0305,4.0192,3.9492,3.895,3.8418,3.8108,3.7774,3.757,3.7217,3.7013,3.6837,3.6552,3.6388,3.6207,3.5942,3.5655,3.5597,3.5352,3.5,3.4531,3.4439,3.4533,3.4726,3.4999,3.492,3.4974,3.4948,3.4934,3.4867,3.4784,3.4714,3.4673,3.4494,3.4481,3.4701,3.488,3.5113,3.5507,3.5843,3.6097,3.6415,3.7081,3.7672,3.7658,3.7696,3.7672,3.7672,3.7658,3.7696,3.6417,3.6417,3.6417,3.6417,3.6417,3.6417,3.6417,3.6417,3.6417,3.6417,3.6417,3.6417,3.6417,3.6417,3.6417,3.6417,3.6417,3.6417,3.6417,3.6417,3.6417,3.6417,3.6417,3.6417,3.6417,3.6417,3.6417,3.6417,3.6417,3.6417,3.6417,3.6417,3.6417,3.6405,3.6427,3.6386,3.6323,3.6357,3.6218,3.6209,3.6243,3.6349,3.6595,3.697,3.7482,3.8049,3.8545,3.9125,3.9579,3.9895,4.0238,4.0449,4.0421,4.0463,4.0292,4.0033,3.9871,3.9686,3.9566,4.0111,4.0929,4.1279,4.1499,4.1517,4.1432,4.1333,4.107,4.0421,3.9614,3.9248,3.8844,3.8441,3.7886,3.7584,3.7307,3.7,3.6826,3.6692,3.6497,3.6442,3.6221,3.5897,3.5802,3.5624,3.5427,3.5012,3.4907,3.4976,3.4858,3.4984,3.4758,3.468,3.464,3.4601,3.4494,3.4494,3.4535,3.4535,3.4439,3.4397,3.4439,3.466,3.4839,3.5031,3.5345,3.5426,3.5643,3.6409,3.6967,3.7049,3.7056,3.6978,3.6978,3.6964,3.6964,3.6417,3.6417,3.6417,3.6417,3.6417,3.6417,3.6417,3.6417,3.6417,3.6417,3.6417,3.6417,3.6417,3.6417,3.6417,3.6417,3.6417,3.6417,3.6417,3.6417,3.6417,3.6417,3.6417,3.6417,3.6417,3.6417,3.6417,3.6417,3.6417,3.6417,3.6417,3.6417,3.6468,3.6417,3.6417,3.6417,3.6417,3.6417,3.6417,3.6417,3.6417,3.6439,3.6628,3.6862,3.74,3.7815,3.82,3.8819,3.9234,3.9557,3.9851,3.9982,4.0025,3.9952,3.9719,3.9411,3.9292,3.9083,3.9083,3.9763,4.0516,4.0901,4.11,4.1184,4.1198,4.0816,4.0416,3.9954,3.953,3.9087,3.8572,3.8227,3.796,3.7706,3.7411,3.71,3.6915,3.6854,3.6735,3.6656,3.6415,3.6066,3.6035,3.6031,3.5809,3.5587,3.5495,3.5404,3.5286,3.5221,3.509,3.4972,3.4946,3.4685,3.4593,3.4515,3.4424,3.4397,3.4397,3.4463,3.4489,3.4452,3.4618,3.4756,3.5025,3.5337,3.5678,3.6034,3.6321,3.6562,3.6409,3.6204,3.6191,3.6272,3.631,3.6417,3.6417,3.6417,3.6417,3.6417,3.6417,3.6417,3.6417,3.6417,3.6417,3.6417,3.6417,3.6417,3.6417,3.6417,3.6417,3.6417,3.6417,3.6417,3.6417,3.6417,3.6417,3.6417,3.6417,3.6417,3.6417,3.6417,3.6417,3.6417,3.6417,3.6543,3.6644,3.6656,3.6619,3.6417,3.6417,3.6417,3.6417,3.6417,3.6417,3.6417,3.6405,3.6487,3.6722,3.7062,3.7341,3.771,3.8245,3.8607,3.889,3.91,3.9264,3.9278,3.9145,3.8935,3.8756,3.8575,3.8453,3.8634,3.9158,3.9851,4.0243,4.0257,4.0343,4.0257,3.9938,3.9618,3.9428,3.8997,3.8549,3.8213,3.8102,3.8011,3.7788,3.7638,3.7408,3.731,3.725,3.7048,3.6912,3.6737,3.6763,3.6789,3.6828,3.6384,3.6109,3.5822,3.5783,3.5783,3.5744,3.573,3.5613,3.5521,3.5182,3.4829,3.4842,3.4803,3.4397,3.4437,3.4607,3.462,3.4607,3.4816,3.5312,3.5516,3.5548,3.5767,3.6122,3.6173,3.6181,3.6047,3.5967,3.5859,3.5913,3.5737,3.6417,3.6417,3.6417,3.6417,3.6455,3.6417,3.6417,3.6417,3.6417,3.6417,3.6417,3.6417,3.6417,3.6417,3.6417,3.6417,3.6443,3.6455,3.6505,3.6531,3.6707,3.6543,3.6568,3.6631,3.6757,3.6493,3.6606,3.6707,3.6568,3.6707,3.687,3.7048,3.7149,3.6973,3.6505,3.6443,3.6443,3.6455,3.6531,3.6593,3.6631,3.6656,3.6751,3.6767,3.6921,3.7181,3.7294,3.7756,3.8076,3.8167,3.8498,3.8634,3.8634,3.8634,3.8498,3.8304,3.8258,3.8148,3.8024,3.8621,3.91,3.953,3.9557,3.9513,3.9499,3.9264,3.8997,3.8908,3.8517,3.8304,3.8135,3.8044,3.7933,3.7861,3.7756,3.7704,3.7625,3.7586,3.7403,3.7299,3.7599,3.7821,3.7795,3.7652,3.709,3.6658,3.6253,3.6162,3.6319,3.6397,3.6449,3.6214,3.6096,3.5757,3.5443,3.5325,3.5142,3.4685,3.462,3.4946,3.5129,3.5221,3.5495,3.5905,3.5935,3.5877,3.5974,3.6153,3.6445,3.6678,3.6122,3.5925,3.5736,3.5685,3.5633,3.6417,3.6417,3.6417,3.6619,3.6857,3.6556,3.6417,3.6417,3.6417,3.6417,3.6417,3.6417,3.6417,3.6417,3.6468,3.6493,3.6505,3.6883,3.6958,3.6935,3.7199,3.7437,3.7425,3.7324,3.7374,3.7437,3.7437,3.7362,3.75,3.7337,3.7462,3.7713,3.7776,3.7638,3.7513,3.745,3.7462,3.7462,3.7475,3.7475,3.7437,3.7387,3.7285,3.7054,3.7197,3.72,3.7002,3.7529,3.7709,3.7742,3.8109,3.8161,3.8161,3.8161,3.8116,3.8011,3.8024,3.7979,3.7946,3.8194,3.8453,3.8769,3.8904,3.8859,3.889,3.8652,3.8472,3.8427,3.8226,3.8057,3.7979,3.7933,3.79,3.79,3.7835,3.7848,3.7808,3.7821,3.7756,3.7717,3.7887,3.79,3.79,3.79,3.7482,3.7364,3.7024,3.7063,3.7207,3.7273,3.7312,3.6907,3.6632,3.6332,3.6083,3.5926,3.5757,3.543,3.543,3.5691,3.5822,3.5848,3.5979,3.624,3.6214,3.6201,3.6515,3.6841,3.7226,3.7295,3.6713,3.623,3.6059,3.5989,3.5933,3.6417,3.643,3.6619,3.6847,3.7098,3.6845,3.6646,3.6694,3.6694,3.6593,3.648,3.6581,3.6707,3.6757,3.6895,3.6923,3.6973,3.7274,3.7475,3.7513,3.7789,3.7877,3.7939,3.804,3.7852,3.8015,3.8015,3.7965,3.7889,3.7965,3.8103,3.8278,3.8492,3.8605,3.8492,3.8291,3.7914,3.7877,3.7852,3.7877,3.7902,3.7889,3.7801,3.7612,3.7583,3.7615,3.7429,3.7497,3.771,3.7811,3.7892,3.7939,3.7926,3.7913,3.7913,3.79,3.79,3.79,3.79,3.79,3.8161,3.8344,3.8344,3.8344,3.833,3.8194,3.8148,3.8103,3.7979,3.7946,3.79,3.79,3.79,3.79,3.79,3.79,3.79,3.79,3.79,3.79,3.79,3.79,3.79,3.79,3.7769,3.7808,3.7848,3.79,3.79,3.7848,3.7808,3.7482,3.7181,3.6933,3.6684,3.6475,3.6305,3.6136,3.6188,3.6292,3.6423,3.6436,3.6528,3.6658,3.6854,3.705,3.7273,3.7547,3.7684,3.7645,3.7305,3.686,3.6488,3.6345,3.6292,3.6417,3.6493,3.7008,3.7186,3.7224,3.7337,3.7312,3.7211,3.7199,3.6935,3.6556,3.7048,3.7199,3.7312,3.7726,3.7864,3.7889,3.7965,3.8027,3.8078,3.8278,3.8241,3.8253,3.8266,3.8379,3.8228,3.8228,3.8429,3.814,3.8329,3.858,3.8868,3.922,3.9346,3.9145,3.8781,3.8366,3.8391,3.8391,3.8404,3.8429,3.8278,3.8228,3.8152,3.8064,3.8124,3.8066,3.8066,3.8187,3.823,3.8218,3.8089,3.8004,3.7965,3.7965,3.7939,3.7965,3.79,3.79,3.79,3.79,3.8037,3.7992,3.7946,3.7946,3.7992,3.7979,3.7979,3.7946,3.79,3.79,3.79,3.79,3.79,3.79,3.79,3.79,3.79,3.79,3.79,3.79,3.79,3.79,3.79,3.79,3.79,3.79,3.79,3.79,3.79,3.7861,3.7848,3.7612,3.7534,3.7312,3.7037,3.6946,3.6802,3.6645,3.6698,3.6854,3.7037,3.7129,3.7325,3.7665,3.7835,3.7717,3.7743,3.7835,3.773,3.7586,3.7469,3.7063,3.675,3.6632,3.6417,3.648,3.6948,3.74,3.7864,3.8617,3.853,3.7826,3.7764,3.7638,3.7538,3.7688,3.7776,3.7801,3.7939,3.8027,3.8191,3.8379,3.8567,3.8705,3.8894,3.9107,3.9157,3.9107,3.917,3.9157,3.9145,3.9057,3.917,3.9157,3.9157,3.9496,3.9597,3.9685,3.9572,3.9346,3.9182,3.9082,3.9044,3.9044,3.9069,3.9057,3.8906,3.8705,3.8617,3.8629,3.8548,3.8515,3.8653,3.8864,3.9038,3.9102,3.9115,3.9102,3.9024,3.8462,3.8187,3.79,3.79,3.7913,3.7978,3.8031,3.7965,3.79,3.79,3.7926,3.7926,3.79,3.79,3.79,3.79,3.79,3.79,3.79,3.79,3.79,3.79,3.79,3.79,3.79,3.79,3.79,3.79,3.79,3.79,3.79,3.79,3.79,3.79,3.79,3.79,3.79,3.7874,3.773,3.7756,3.756,3.7534,3.7469,3.726,3.7168,3.7377,3.756,3.7717,3.7808,3.7874,3.79,3.7874,3.79,3.79,3.79,3.7782,3.7756,3.7639,3.7299,3.7116,3.6417,3.6518,3.7199,3.7952,3.8718,3.9396,3.927,3.8693,3.8454,3.8253,3.8052,3.8253,3.8341,3.8404,3.8605,3.8743,3.8781,3.9032,3.9195,3.9283,3.9521,3.9559,3.9672,3.9697,3.9622,3.9697,3.9697,3.9559,3.9697,3.9697,3.9672,3.9659,3.9697,3.9697,3.9659,3.9609,3.9647,3.9622,3.9647,3.9697,3.9697,3.9697,3.9446,3.9258,3.917,3.9083,3.9018,3.9089,3.9133,3.9349,3.9615,3.9503,3.9538,3.9573,3.952,3.9037,3.888,3.871,3.871,3.8671,3.8606,3.8501,3.8344,3.824,3.8135,3.8096,3.7978,3.79,3.79,3.79,3.79,3.79,3.79,3.79,3.79,3.79,3.79,3.79,3.79,3.79,3.79,3.79,3.79,3.7926,3.79,3.79,3.79,3.79,3.79,3.79,3.79,3.79,3.79,3.7861,3.79,3.79,3.7808,3.773,3.7704,3.7691,3.79,3.7887,3.7848,3.7861,3.7887,3.79,3.79,3.79,3.79,3.79,3.79,3.7848,3.7821,3.773,3.7652,3.6417,3.6505,3.755,3.8592,3.9609,3.9685,3.9672,3.9647,3.9132,3.8655,3.8379,3.8718,3.8919,3.8994,3.927,3.9459,3.9433,3.9521,3.9546,3.9672,3.9659,3.9697,3.9697,3.9697,3.9697,3.9697,3.9697,3.9697,3.9697,3.9697,3.9697,3.9697,3.9697,3.9697,3.9697,3.9697,3.9697,3.9697,3.9697,3.9697,3.9697,3.9697,3.9697,3.9659,3.9686,3.9674,3.9829,3.9753,3.951,3.9679,3.9744,3.9631,3.9803,3.9769,3.9716,3.9599,3.9468,3.9364,3.9324,3.9311,3.939,3.9285,3.9102,3.8776,3.8527,3.8135,3.7939,3.79,3.79,3.79,3.79,3.7926,3.7939,3.8083,3.8187,3.8331,3.8488,3.8488,3.8501,3.8501,3.8488,3.8475,3.8475,3.854,3.8593,3.8279,3.8214,3.8253,3.8161,3.8161,3.8018,3.8004,3.79,3.79,3.79,3.79,3.79,3.7887,3.79,3.79,3.79,3.79,3.79,3.79,3.79,3.79,3.79,3.79,3.79,3.79,3.79,3.79,3.79,3.79,3.79,3.6417,3.6518,3.755,3.8655,3.9634,3.9697,3.9697,3.9685,3.9572,3.9396,3.932,3.9408,3.9471,3.9484,3.9584,3.9697,3.9697,3.9697,3.9697,3.9697,3.9697,3.9697,3.9697,3.9697,3.9697,3.9697,3.9697,3.9697,3.9697,3.9697,3.9697,3.9697,3.9697,3.9697,3.9697,3.9697,3.9697,3.9697,3.9697,3.9697,3.9697,3.9697,3.9697,3.9697,3.9749,3.9839,3.9917,3.9969,4.0071,4.0272,4.0485,4.067,4.0869,4.0425,4.0252,4.0161,3.9926,3.9834,3.9795,3.9821,3.9821,3.9716,3.9455,3.9128,3.8723,3.8214,3.7939,3.7926,3.79,3.79,3.7952,3.7991,3.8096,3.8331,3.854,3.8815,3.9076,3.9089,3.9115,3.9115,3.9128,3.9115,3.9089,3.9115,3.9194,3.9207,3.9233,3.9194,3.8958,3.8828,3.8397,3.8279,3.7965,3.7913,3.79,3.79,3.79,3.79,3.79,3.79,3.79,3.79,3.79,3.79,3.79,3.79,3.79,3.79,3.79,3.79,3.79,3.79,3.79,3.79,3.79,3.6417,3.6556,3.755,3.8655,3.9572,3.9697,3.9697,3.9697,3.9697,3.9697,3.9697,3.9697,3.9697,3.9697,3.9697,3.9697,3.9697,3.9697,3.9697,3.9697,3.9697,3.9697,3.9697,3.9697,3.9697,3.9697,3.9697,3.9697,3.9697,3.9697,3.9697,3.9697,3.9697,3.9697,3.9697,3.9697,3.9697,3.9697,3.9697,3.9697,3.9697,3.9697,3.9697,3.9697,3.9749,3.9839,3.9839,3.9942,4.0083,4.0377,4.0617,4.0818,4.0954,4.0859,4.084,4.0749,4.0592,4.0357,4.0331,4.0292,4.0278,4.0252,4.0017,3.9756,3.9625,3.9128,3.837,3.8292,3.7952,3.79,3.8253,3.8383,3.8684,3.8945,3.9076,3.9272,3.9377,3.9403,3.9403,3.9403,3.9416,3.9403,3.939,3.939,3.9442,3.9442,3.9573,3.9677,3.9534,3.9455,3.9024,3.8632,3.8383,3.8031,3.79,3.79,3.79,3.79,3.79,3.79,3.79,3.79,3.79,3.79,3.79,3.79,3.79,3.79,3.79,3.79,3.79,3.79,3.79,3.79,3.79,3.6505,3.6744,3.7701,3.8718,3.9609,3.9697,3.9697,3.9697,3.9697,3.9697,3.9697,3.9697,3.9697,3.9697,3.9697,3.9697,3.9697,3.9697,3.9697,3.9697,3.9697,3.9697,3.9697,3.9697,3.9697,3.9697,3.9697,3.9697,3.9697,3.9697,3.9697,3.9697,3.9697,3.9697,3.9697,3.9697,3.9697,3.9697,3.9697,3.9697,3.9697,3.9697,3.9697,3.9697,3.9697,3.9697,3.9697,3.9749,3.989,4.0134,4.0529,4.0782,4.0984,4.1056,4.1182,4.1141,4.1115,4.1076,4.1141,4.1076,4.1141,4.1102,4.0736,4.0474,4.0318,3.9847,3.9089,3.8658,3.8318,3.8305,3.8671,3.8893,3.922,3.9599,3.969,3.9821,3.986,3.9873,3.9873,3.9873,3.9873,3.9873,3.986,3.9847,3.9821,3.9795,3.9795,3.9821,3.9847,3.9847,3.9651,3.9272,3.8972,3.8579,3.8148,3.8096,3.8174,3.79,3.79,3.79,3.79,3.79,3.79,3.79,3.79,3.7926,3.7913,3.79,3.79,3.79,3.79,3.79,3.79,3.79,3.79,3.6885,3.7751,3.8442,3.9094,3.9647,3.9697,3.9697,3.9697,3.9697,3.9697,3.9697,3.9697,3.9697,3.9697,3.9697,3.9697,3.9697,3.9697,3.9697,3.9697,3.9697,3.9697,3.9697,3.9697,3.9697,3.9697,3.9697,3.9697,3.9697,3.9697,3.9697,3.9697,3.9697,3.9697,3.9697,3.9697,3.9697,3.9697,3.9697,3.9697,3.9697,3.9697,3.9697,3.9697,3.9697,3.9697,3.9697,3.9697,3.9736,3.989,4.0236,4.0593,4.0896,4.1097,4.1198,4.1311,4.1311,4.1311,4.1311,4.1311,4.1311,4.1298,4.0971,4.084,4.0657,4.0422,3.9847,3.9547,3.9298,3.9259,3.9481,3.9429,3.9664,4.02,4.0488,4.0684,4.0801,4.0801,4.0801,4.0801,4.0801,4.0801,4.0788,4.0775,4.0775,4.0749,4.0723,4.0736,4.0631,4.0474,4.0252,3.9965,3.9625,3.9115,3.8684,3.8606,3.8553,3.82,3.8018,3.8227,3.8227,3.7926,3.7926,3.824,3.8096,3.7991,3.7965,3.8004,3.79,3.79,3.79,3.79,3.79,3.79,3.79]}]]